<?xml version="1.0" encoding="UTF-8" standalone="no" ?>
<gpx xmlns="http://www.topografix.com/GPX/1/1" xmlns:xsi="http://www.w3.org/2001/XMLSchema-instance" xsi:schemaLocation="http://www.topografix.com/GPX/1/1 http://www.topografix.com/GPX/1/1/gpx.xsd" version="1.1" creator="VisuGPX - https://www.visugpx.com">
  <metadata>
    <name>Tram'Jurassienne 2016 (57km)</name>
    <desc><![CDATA[Un peu boeux ;)]]></desc>
  </metadata>
  <trk>
    <name><![CDATA[2016-06-26 07:43]]></name>
    <desc><![CDATA[<p>Heure de départ: 06/26/2016 07:43</p><p>Heure d'arrivée: 06/26/2016 14:30</p><p>Distance: 58,4 km (06:47)</p><p>Temps déplacement: 04:46</p><p>Vitesse moyenne: 8,61 km/h</p><p>Vitesse moyenne mouv.: 12,26 km/h</p><p>Vitesse Max.: 49,63km/h</p><p>Altitude minimale: 543 m</p><p>Altitude maximale: 1183 m</p><p>Vitesse de montée: 386,8 m/h</p><p>Vitesse de descente: -875,8 m/h</p><p>Gain d'altitude: 1579 m</p><p>Perte d'altitude: -1943 m</p><p>Temps de montée: 04:04</p><p>Temps de descente: 02:13</p><hr align="center" width="480" style="height: 2px; width: 517px"/>]]></desc>
    <trkseg>
      <trkpt lat="46.57489" lon="5.95171">
        <ele>906</ele>
        <time>2016-06-26T05:43:34Z</time>
      </trkpt>
      <trkpt lat="46.57473" lon="5.95192">
        <ele>906</ele>
        <time>2016-06-26T05:47:30Z</time>
      </trkpt>
      <trkpt lat="46.57457" lon="5.95204">
        <ele>906</ele>
        <time>2016-06-26T05:47:37Z</time>
      </trkpt>
      <trkpt lat="46.57439" lon="5.95215">
        <ele>906</ele>
        <time>2016-06-26T05:47:45Z</time>
      </trkpt>
      <trkpt lat="46.57423" lon="5.95231">
        <ele>905</ele>
        <time>2016-06-26T05:47:52Z</time>
      </trkpt>
      <trkpt lat="46.57406" lon="5.95244">
        <ele>906</ele>
        <time>2016-06-26T05:47:58Z</time>
      </trkpt>
      <trkpt lat="46.5739" lon="5.95258">
        <ele>904</ele>
        <time>2016-06-26T05:48:04Z</time>
      </trkpt>
      <trkpt lat="46.57372" lon="5.95273">
        <ele>904</ele>
        <time>2016-06-26T05:48:10Z</time>
      </trkpt>
      <trkpt lat="46.57354" lon="5.95286">
        <ele>904</ele>
        <time>2016-06-26T05:48:16Z</time>
      </trkpt>
      <trkpt lat="46.57337" lon="5.95299">
        <ele>904</ele>
        <time>2016-06-26T05:48:21Z</time>
      </trkpt>
      <trkpt lat="46.57322" lon="5.95317">
        <ele>904</ele>
        <time>2016-06-26T05:48:27Z</time>
      </trkpt>
      <trkpt lat="46.57307" lon="5.95336">
        <ele>903</ele>
        <time>2016-06-26T05:48:34Z</time>
      </trkpt>
      <trkpt lat="46.5729" lon="5.95351">
        <ele>903</ele>
        <time>2016-06-26T05:48:41Z</time>
      </trkpt>
      <trkpt lat="46.57272" lon="5.95364">
        <ele>903</ele>
        <time>2016-06-26T05:48:48Z</time>
      </trkpt>
      <trkpt lat="46.57256" lon="5.9538">
        <ele>903</ele>
        <time>2016-06-26T05:48:55Z</time>
      </trkpt>
      <trkpt lat="46.57246" lon="5.95404">
        <ele>905</ele>
        <time>2016-06-26T05:49:02Z</time>
      </trkpt>
      <trkpt lat="46.57243" lon="5.9543">
        <ele>905</ele>
        <time>2016-06-26T05:49:08Z</time>
      </trkpt>
      <trkpt lat="46.57234" lon="5.95454">
        <ele>906</ele>
        <time>2016-06-26T05:49:16Z</time>
      </trkpt>
      <trkpt lat="46.5722" lon="5.95472">
        <ele>907</ele>
        <time>2016-06-26T05:49:24Z</time>
      </trkpt>
      <trkpt lat="46.5721" lon="5.95496">
        <ele>907</ele>
        <time>2016-06-26T05:49:31Z</time>
      </trkpt>
      <trkpt lat="46.57198" lon="5.95552">
        <ele>908</ele>
        <time>2016-06-26T05:49:44Z</time>
      </trkpt>
      <trkpt lat="46.57179" lon="5.95566">
        <ele>908</ele>
        <time>2016-06-26T05:49:52Z</time>
      </trkpt>
      <trkpt lat="46.57161" lon="5.95575">
        <ele>909</ele>
        <time>2016-06-26T05:49:58Z</time>
      </trkpt>
      <trkpt lat="46.57144" lon="5.95585">
        <ele>909</ele>
        <time>2016-06-26T05:50:03Z</time>
      </trkpt>
      <trkpt lat="46.57127" lon="5.95596">
        <ele>909</ele>
        <time>2016-06-26T05:50:08Z</time>
      </trkpt>
      <trkpt lat="46.5711" lon="5.95606">
        <ele>910</ele>
        <time>2016-06-26T05:50:13Z</time>
      </trkpt>
      <trkpt lat="46.57089" lon="5.95611">
        <ele>910</ele>
        <time>2016-06-26T05:50:19Z</time>
      </trkpt>
      <trkpt lat="46.57072" lon="5.95607">
        <ele>911</ele>
        <time>2016-06-26T05:50:24Z</time>
      </trkpt>
      <trkpt lat="46.57053" lon="5.95608">
        <ele>912</ele>
        <time>2016-06-26T05:50:29Z</time>
      </trkpt>
      <trkpt lat="46.57034" lon="5.95612">
        <ele>912</ele>
        <time>2016-06-26T05:50:34Z</time>
      </trkpt>
      <trkpt lat="46.57015" lon="5.9562">
        <ele>912</ele>
        <time>2016-06-26T05:50:39Z</time>
      </trkpt>
      <trkpt lat="46.56994" lon="5.95628">
        <ele>915</ele>
        <time>2016-06-26T05:50:45Z</time>
      </trkpt>
      <trkpt lat="46.56976" lon="5.95635">
        <ele>915</ele>
        <time>2016-06-26T05:50:51Z</time>
      </trkpt>
      <trkpt lat="46.56955" lon="5.9564">
        <ele>915</ele>
        <time>2016-06-26T05:50:57Z</time>
      </trkpt>
      <trkpt lat="46.56936" lon="5.95646">
        <ele>916</ele>
        <time>2016-06-26T05:51:02Z</time>
      </trkpt>
      <trkpt lat="46.56916" lon="5.95655">
        <ele>916</ele>
        <time>2016-06-26T05:51:07Z</time>
      </trkpt>
      <trkpt lat="46.56896" lon="5.95663">
        <ele>916</ele>
        <time>2016-06-26T05:51:11Z</time>
      </trkpt>
      <trkpt lat="46.56875" lon="5.95673">
        <ele>913</ele>
        <time>2016-06-26T05:51:16Z</time>
      </trkpt>
      <trkpt lat="46.56858" lon="5.95681">
        <ele>913</ele>
        <time>2016-06-26T05:51:19Z</time>
      </trkpt>
      <trkpt lat="46.56837" lon="5.95678">
        <ele>912</ele>
        <time>2016-06-26T05:51:24Z</time>
      </trkpt>
      <trkpt lat="46.56817" lon="5.95675">
        <ele>910</ele>
        <time>2016-06-26T05:51:27Z</time>
      </trkpt>
      <trkpt lat="46.56797" lon="5.95673">
        <ele>909</ele>
        <time>2016-06-26T05:51:31Z</time>
      </trkpt>
      <trkpt lat="46.56778" lon="5.95692">
        <ele>909</ele>
        <time>2016-06-26T05:51:35Z</time>
      </trkpt>
      <trkpt lat="46.56768" lon="5.95718">
        <ele>908</ele>
        <time>2016-06-26T05:51:38Z</time>
      </trkpt>
      <trkpt lat="46.56773" lon="5.95748">
        <ele>907</ele>
        <time>2016-06-26T05:51:41Z</time>
      </trkpt>
      <trkpt lat="46.56787" lon="5.95777">
        <ele>905</ele>
        <time>2016-06-26T05:51:44Z</time>
      </trkpt>
      <trkpt lat="46.56802" lon="5.95806">
        <ele>905</ele>
        <time>2016-06-26T05:51:47Z</time>
      </trkpt>
      <trkpt lat="46.56816" lon="5.95835">
        <ele>903</ele>
        <time>2016-06-26T05:51:50Z</time>
      </trkpt>
      <trkpt lat="46.56825" lon="5.95862">
        <ele>902</ele>
        <time>2016-06-26T05:51:53Z</time>
      </trkpt>
      <trkpt lat="46.56815" lon="5.95888">
        <ele>901</ele>
        <time>2016-06-26T05:51:56Z</time>
      </trkpt>
      <trkpt lat="46.56796" lon="5.95897">
        <ele>900</ele>
        <time>2016-06-26T05:51:59Z</time>
      </trkpt>
      <trkpt lat="46.56777" lon="5.95903">
        <ele>899</ele>
        <time>2016-06-26T05:52:02Z</time>
      </trkpt>
      <trkpt lat="46.56757" lon="5.95911">
        <ele>897</ele>
        <time>2016-06-26T05:52:05Z</time>
      </trkpt>
      <trkpt lat="46.56741" lon="5.95923">
        <ele>895</ele>
        <time>2016-06-26T05:52:08Z</time>
      </trkpt>
      <trkpt lat="46.56727" lon="5.95942">
        <ele>894</ele>
        <time>2016-06-26T05:52:11Z</time>
      </trkpt>
      <trkpt lat="46.56714" lon="5.95971">
        <ele>894</ele>
        <time>2016-06-26T05:52:15Z</time>
      </trkpt>
      <trkpt lat="46.56704" lon="5.95995">
        <ele>894</ele>
        <time>2016-06-26T05:52:18Z</time>
      </trkpt>
      <trkpt lat="46.56693" lon="5.96021">
        <ele>892</ele>
        <time>2016-06-26T05:52:21Z</time>
      </trkpt>
      <trkpt lat="46.56682" lon="5.96044">
        <ele>892</ele>
        <time>2016-06-26T05:52:24Z</time>
      </trkpt>
      <trkpt lat="46.5667" lon="5.96067">
        <ele>892</ele>
        <time>2016-06-26T05:52:27Z</time>
      </trkpt>
      <trkpt lat="46.56656" lon="5.96092">
        <ele>892</ele>
        <time>2016-06-26T05:52:31Z</time>
      </trkpt>
      <trkpt lat="46.56644" lon="5.96116">
        <ele>893</ele>
        <time>2016-06-26T05:52:35Z</time>
      </trkpt>
      <trkpt lat="46.56631" lon="5.96138">
        <ele>893</ele>
        <time>2016-06-26T05:52:39Z</time>
      </trkpt>
      <trkpt lat="46.56617" lon="5.96164">
        <ele>893</ele>
        <time>2016-06-26T05:52:44Z</time>
      </trkpt>
      <trkpt lat="46.56605" lon="5.96191">
        <ele>895</ele>
        <time>2016-06-26T05:52:49Z</time>
      </trkpt>
      <trkpt lat="46.56593" lon="5.96215">
        <ele>896</ele>
        <time>2016-06-26T05:52:54Z</time>
      </trkpt>
      <trkpt lat="46.5658" lon="5.96236">
        <ele>900</ele>
        <time>2016-06-26T05:52:59Z</time>
      </trkpt>
      <trkpt lat="46.56562" lon="5.96248">
        <ele>900</ele>
        <time>2016-06-26T05:53:04Z</time>
      </trkpt>
      <trkpt lat="46.56543" lon="5.96248">
        <ele>900</ele>
        <time>2016-06-26T05:53:09Z</time>
      </trkpt>
      <trkpt lat="46.56523" lon="5.96244">
        <ele>902</ele>
        <time>2016-06-26T05:53:14Z</time>
      </trkpt>
      <trkpt lat="46.56502" lon="5.96243">
        <ele>904</ele>
        <time>2016-06-26T05:53:20Z</time>
      </trkpt>
      <trkpt lat="46.56485" lon="5.96253">
        <ele>909</ele>
        <time>2016-06-26T05:53:25Z</time>
      </trkpt>
      <trkpt lat="46.56474" lon="5.96274">
        <ele>910</ele>
        <time>2016-06-26T05:53:30Z</time>
      </trkpt>
      <trkpt lat="46.56466" lon="5.96298">
        <ele>911</ele>
        <time>2016-06-26T05:53:35Z</time>
      </trkpt>
      <trkpt lat="46.56459" lon="5.96326">
        <ele>912</ele>
        <time>2016-06-26T05:53:41Z</time>
      </trkpt>
      <trkpt lat="46.56451" lon="5.96354">
        <ele>916</ele>
        <time>2016-06-26T05:53:47Z</time>
      </trkpt>
      <trkpt lat="46.56443" lon="5.9638">
        <ele>917</ele>
        <time>2016-06-26T05:53:54Z</time>
      </trkpt>
      <trkpt lat="46.56432" lon="5.96403">
        <ele>919</ele>
        <time>2016-06-26T05:54:03Z</time>
      </trkpt>
      <trkpt lat="46.5642" lon="5.96424">
        <ele>922</ele>
        <time>2016-06-26T05:54:11Z</time>
      </trkpt>
      <trkpt lat="46.56405" lon="5.96444">
        <ele>923</ele>
        <time>2016-06-26T05:54:19Z</time>
      </trkpt>
      <trkpt lat="46.5639" lon="5.96465">
        <ele>923</ele>
        <time>2016-06-26T05:54:27Z</time>
      </trkpt>
      <trkpt lat="46.56385" lon="5.96493">
        <ele>923</ele>
        <time>2016-06-26T05:54:32Z</time>
      </trkpt>
      <trkpt lat="46.5639" lon="5.96522">
        <ele>922</ele>
        <time>2016-06-26T05:54:36Z</time>
      </trkpt>
      <trkpt lat="46.56395" lon="5.9655">
        <ele>922</ele>
        <time>2016-06-26T05:54:40Z</time>
      </trkpt>
      <trkpt lat="46.56404" lon="5.9658">
        <ele>922</ele>
        <time>2016-06-26T05:54:44Z</time>
      </trkpt>
      <trkpt lat="46.5641" lon="5.96612">
        <ele>922</ele>
        <time>2016-06-26T05:54:48Z</time>
      </trkpt>
      <trkpt lat="46.56445" lon="5.96693">
        <ele>927</ele>
        <time>2016-06-26T05:55:02Z</time>
      </trkpt>
      <trkpt lat="46.56454" lon="5.96718">
        <ele>928</ele>
        <time>2016-06-26T05:55:07Z</time>
      </trkpt>
      <trkpt lat="46.56467" lon="5.96743">
        <ele>928</ele>
        <time>2016-06-26T05:55:13Z</time>
      </trkpt>
      <trkpt lat="46.56483" lon="5.96758">
        <ele>929</ele>
        <time>2016-06-26T05:55:18Z</time>
      </trkpt>
      <trkpt lat="46.56501" lon="5.96773">
        <ele>929</ele>
        <time>2016-06-26T05:55:23Z</time>
      </trkpt>
      <trkpt lat="46.56517" lon="5.96787">
        <ele>929</ele>
        <time>2016-06-26T05:55:27Z</time>
      </trkpt>
      <trkpt lat="46.56536" lon="5.96805">
        <ele>929</ele>
        <time>2016-06-26T05:55:32Z</time>
      </trkpt>
      <trkpt lat="46.56552" lon="5.96826">
        <ele>929</ele>
        <time>2016-06-26T05:55:37Z</time>
      </trkpt>
      <trkpt lat="46.56567" lon="5.96846">
        <ele>929</ele>
        <time>2016-06-26T05:55:42Z</time>
      </trkpt>
      <trkpt lat="46.56582" lon="5.96862">
        <ele>929</ele>
        <time>2016-06-26T05:55:47Z</time>
      </trkpt>
      <trkpt lat="46.56596" lon="5.9688">
        <ele>929</ele>
        <time>2016-06-26T05:55:52Z</time>
      </trkpt>
      <trkpt lat="46.56611" lon="5.96896">
        <ele>929</ele>
        <time>2016-06-26T05:56:00Z</time>
      </trkpt>
      <trkpt lat="46.56627" lon="5.96909">
        <ele>929</ele>
        <time>2016-06-26T05:56:08Z</time>
      </trkpt>
      <trkpt lat="46.56644" lon="5.96919">
        <ele>930</ele>
        <time>2016-06-26T05:56:15Z</time>
      </trkpt>
      <trkpt lat="46.56658" lon="5.96936">
        <ele>930</ele>
        <time>2016-06-26T05:56:21Z</time>
      </trkpt>
      <trkpt lat="46.56674" lon="5.96953">
        <ele>928</ele>
        <time>2016-06-26T05:56:27Z</time>
      </trkpt>
      <trkpt lat="46.56691" lon="5.96969">
        <ele>929</ele>
        <time>2016-06-26T05:56:33Z</time>
      </trkpt>
      <trkpt lat="46.56704" lon="5.96989">
        <ele>928</ele>
        <time>2016-06-26T05:56:39Z</time>
      </trkpt>
      <trkpt lat="46.56718" lon="5.9701">
        <ele>931</ele>
        <time>2016-06-26T05:56:45Z</time>
      </trkpt>
      <trkpt lat="46.56732" lon="5.97028">
        <ele>931</ele>
        <time>2016-06-26T05:56:51Z</time>
      </trkpt>
      <trkpt lat="46.56746" lon="5.97047">
        <ele>931</ele>
        <time>2016-06-26T05:56:56Z</time>
      </trkpt>
      <trkpt lat="46.5676" lon="5.97071">
        <ele>929</ele>
        <time>2016-06-26T05:57:01Z</time>
      </trkpt>
      <trkpt lat="46.56777" lon="5.97091">
        <ele>932</ele>
        <time>2016-06-26T05:57:06Z</time>
      </trkpt>
      <trkpt lat="46.56793" lon="5.97105">
        <ele>932</ele>
        <time>2016-06-26T05:57:10Z</time>
      </trkpt>
      <trkpt lat="46.56811" lon="5.97123">
        <ele>932</ele>
        <time>2016-06-26T05:57:14Z</time>
      </trkpt>
      <trkpt lat="46.56826" lon="5.97139">
        <ele>931</ele>
        <time>2016-06-26T05:57:17Z</time>
      </trkpt>
      <trkpt lat="46.56841" lon="5.97156">
        <ele>927</ele>
        <time>2016-06-26T05:57:20Z</time>
      </trkpt>
      <trkpt lat="46.56857" lon="5.97169">
        <ele>925</ele>
        <time>2016-06-26T05:57:23Z</time>
      </trkpt>
      <trkpt lat="46.56881" lon="5.97171">
        <ele>922</ele>
        <time>2016-06-26T05:57:27Z</time>
      </trkpt>
      <trkpt lat="46.56899" lon="5.97167">
        <ele>920</ele>
        <time>2016-06-26T05:57:30Z</time>
      </trkpt>
      <trkpt lat="46.56921" lon="5.97167">
        <ele>915</ele>
        <time>2016-06-26T05:57:33Z</time>
      </trkpt>
      <trkpt lat="46.56945" lon="5.97168">
        <ele>913</ele>
        <time>2016-06-26T05:57:36Z</time>
      </trkpt>
      <trkpt lat="46.56962" lon="5.97182">
        <ele>912</ele>
        <time>2016-06-26T05:57:39Z</time>
      </trkpt>
      <trkpt lat="46.56973" lon="5.9721">
        <ele>912</ele>
        <time>2016-06-26T05:57:44Z</time>
      </trkpt>
      <trkpt lat="46.56984" lon="5.97231">
        <ele>912</ele>
        <time>2016-06-26T05:57:48Z</time>
      </trkpt>
      <trkpt lat="46.56999" lon="5.97253">
        <ele>912</ele>
        <time>2016-06-26T05:57:52Z</time>
      </trkpt>
      <trkpt lat="46.57018" lon="5.97268">
        <ele>911</ele>
        <time>2016-06-26T05:57:56Z</time>
      </trkpt>
      <trkpt lat="46.57039" lon="5.97285">
        <ele>910</ele>
        <time>2016-06-26T05:58:00Z</time>
      </trkpt>
      <trkpt lat="46.57054" lon="5.97301">
        <ele>910</ele>
        <time>2016-06-26T05:58:03Z</time>
      </trkpt>
      <trkpt lat="46.5707" lon="5.97323">
        <ele>909</ele>
        <time>2016-06-26T05:58:06Z</time>
      </trkpt>
      <trkpt lat="46.57085" lon="5.97348">
        <ele>907</ele>
        <time>2016-06-26T05:58:09Z</time>
      </trkpt>
      <trkpt lat="46.57099" lon="5.97373">
        <ele>905</ele>
        <time>2016-06-26T05:58:12Z</time>
      </trkpt>
      <trkpt lat="46.5711" lon="5.97403">
        <ele>904</ele>
        <time>2016-06-26T05:58:15Z</time>
      </trkpt>
      <trkpt lat="46.57112" lon="5.97436">
        <ele>904</ele>
        <time>2016-06-26T05:58:18Z</time>
      </trkpt>
      <trkpt lat="46.57123" lon="5.9747">
        <ele>903</ele>
        <time>2016-06-26T05:58:21Z</time>
      </trkpt>
      <trkpt lat="46.57144" lon="5.97494">
        <ele>902</ele>
        <time>2016-06-26T05:58:24Z</time>
      </trkpt>
      <trkpt lat="46.57159" lon="5.9751">
        <ele>902</ele>
        <time>2016-06-26T05:58:26Z</time>
      </trkpt>
      <trkpt lat="46.57174" lon="5.97525">
        <ele>899</ele>
        <time>2016-06-26T05:58:28Z</time>
      </trkpt>
      <trkpt lat="46.57191" lon="5.97535">
        <ele>898</ele>
        <time>2016-06-26T05:58:30Z</time>
      </trkpt>
      <trkpt lat="46.5721" lon="5.97542">
        <ele>898</ele>
        <time>2016-06-26T05:58:32Z</time>
      </trkpt>
      <trkpt lat="46.57228" lon="5.97548">
        <ele>898</ele>
        <time>2016-06-26T05:58:34Z</time>
      </trkpt>
      <trkpt lat="46.57246" lon="5.97548">
        <ele>898</ele>
        <time>2016-06-26T05:58:36Z</time>
      </trkpt>
      <trkpt lat="46.57264" lon="5.97539">
        <ele>895</ele>
        <time>2016-06-26T05:58:38Z</time>
      </trkpt>
      <trkpt lat="46.5728" lon="5.97523">
        <ele>895</ele>
        <time>2016-06-26T05:58:40Z</time>
      </trkpt>
      <trkpt lat="46.57295" lon="5.97507">
        <ele>894</ele>
        <time>2016-06-26T05:58:42Z</time>
      </trkpt>
      <trkpt lat="46.57312" lon="5.97496">
        <ele>889</ele>
        <time>2016-06-26T05:58:44Z</time>
      </trkpt>
      <trkpt lat="46.57331" lon="5.97496">
        <ele>889</ele>
        <time>2016-06-26T05:58:46Z</time>
      </trkpt>
      <trkpt lat="46.5735" lon="5.97497">
        <ele>885</ele>
        <time>2016-06-26T05:58:48Z</time>
      </trkpt>
      <trkpt lat="46.57369" lon="5.97495">
        <ele>883</ele>
        <time>2016-06-26T05:58:50Z</time>
      </trkpt>
      <trkpt lat="46.57394" lon="5.97493">
        <ele>881</ele>
        <time>2016-06-26T05:58:53Z</time>
      </trkpt>
      <trkpt lat="46.57412" lon="5.97493">
        <ele>880</ele>
        <time>2016-06-26T05:58:56Z</time>
      </trkpt>
      <trkpt lat="46.5743" lon="5.97491">
        <ele>877</ele>
        <time>2016-06-26T05:59:01Z</time>
      </trkpt>
      <trkpt lat="46.57447" lon="5.97474">
        <ele>875</ele>
        <time>2016-06-26T05:59:07Z</time>
      </trkpt>
      <trkpt lat="46.57459" lon="5.97448">
        <ele>875</ele>
        <time>2016-06-26T05:59:12Z</time>
      </trkpt>
      <trkpt lat="46.57478" lon="5.97443">
        <ele>875</ele>
        <time>2016-06-26T05:59:17Z</time>
      </trkpt>
      <trkpt lat="46.57482" lon="5.9747">
        <ele>874</ele>
        <time>2016-06-26T05:59:23Z</time>
      </trkpt>
      <trkpt lat="46.57473" lon="5.97496">
        <ele>874</ele>
        <time>2016-06-26T05:59:29Z</time>
      </trkpt>
      <trkpt lat="46.57467" lon="5.97525">
        <ele>876</ele>
        <time>2016-06-26T05:59:35Z</time>
      </trkpt>
      <trkpt lat="46.57475" lon="5.97555">
        <ele>876</ele>
        <time>2016-06-26T05:59:39Z</time>
      </trkpt>
      <trkpt lat="46.57477" lon="5.97586">
        <ele>877</ele>
        <time>2016-06-26T05:59:42Z</time>
      </trkpt>
      <trkpt lat="46.57484" lon="5.97616">
        <ele>877</ele>
        <time>2016-06-26T05:59:45Z</time>
      </trkpt>
      <trkpt lat="46.57494" lon="5.97641">
        <ele>877</ele>
        <time>2016-06-26T05:59:48Z</time>
      </trkpt>
      <trkpt lat="46.57505" lon="5.97665">
        <ele>875</ele>
        <time>2016-06-26T05:59:51Z</time>
      </trkpt>
      <trkpt lat="46.57514" lon="5.97691">
        <ele>875</ele>
        <time>2016-06-26T05:59:54Z</time>
      </trkpt>
      <trkpt lat="46.57525" lon="5.97718">
        <ele>876</ele>
        <time>2016-06-26T05:59:57Z</time>
      </trkpt>
      <trkpt lat="46.57537" lon="5.97747">
        <ele>876</ele>
        <time>2016-06-26T06:00:01Z</time>
      </trkpt>
      <trkpt lat="46.57545" lon="5.97775">
        <ele>879</ele>
        <time>2016-06-26T06:00:05Z</time>
      </trkpt>
      <trkpt lat="46.57558" lon="5.978">
        <ele>880</ele>
        <time>2016-06-26T06:00:09Z</time>
      </trkpt>
      <trkpt lat="46.57566" lon="5.97826">
        <ele>880</ele>
        <time>2016-06-26T06:00:12Z</time>
      </trkpt>
      <trkpt lat="46.5757" lon="5.97854">
        <ele>883</ele>
        <time>2016-06-26T06:00:16Z</time>
      </trkpt>
      <trkpt lat="46.57571" lon="5.97881">
        <ele>884</ele>
        <time>2016-06-26T06:00:20Z</time>
      </trkpt>
      <trkpt lat="46.5757" lon="5.9791">
        <ele>885</ele>
        <time>2016-06-26T06:00:25Z</time>
      </trkpt>
      <trkpt lat="46.57566" lon="5.97937">
        <ele>886</ele>
        <time>2016-06-26T06:00:32Z</time>
      </trkpt>
      <trkpt lat="46.57561" lon="5.97962">
        <ele>886</ele>
        <time>2016-06-26T06:00:42Z</time>
      </trkpt>
      <trkpt lat="46.57557" lon="5.97989">
        <ele>887</ele>
        <time>2016-06-26T06:00:56Z</time>
      </trkpt>
      <trkpt lat="46.57554" lon="5.98016">
        <ele>888</ele>
        <time>2016-06-26T06:01:03Z</time>
      </trkpt>
      <trkpt lat="46.57553" lon="5.98044">
        <ele>887</ele>
        <time>2016-06-26T06:01:10Z</time>
      </trkpt>
      <trkpt lat="46.57554" lon="5.98071">
        <ele>888</ele>
        <time>2016-06-26T06:01:17Z</time>
      </trkpt>
      <trkpt lat="46.57562" lon="5.98102">
        <ele>893</ele>
        <time>2016-06-26T06:01:25Z</time>
      </trkpt>
      <trkpt lat="46.57576" lon="5.98123">
        <ele>894</ele>
        <time>2016-06-26T06:01:33Z</time>
      </trkpt>
      <trkpt lat="46.57595" lon="5.98139">
        <ele>893</ele>
        <time>2016-06-26T06:01:39Z</time>
      </trkpt>
      <trkpt lat="46.57614" lon="5.98152">
        <ele>893</ele>
        <time>2016-06-26T06:01:43Z</time>
      </trkpt>
      <trkpt lat="46.57634" lon="5.98159">
        <ele>893</ele>
        <time>2016-06-26T06:01:48Z</time>
      </trkpt>
      <trkpt lat="46.57655" lon="5.98167">
        <ele>896</ele>
        <time>2016-06-26T06:01:53Z</time>
      </trkpt>
      <trkpt lat="46.57674" lon="5.98174">
        <ele>894</ele>
        <time>2016-06-26T06:01:58Z</time>
      </trkpt>
      <trkpt lat="46.57693" lon="5.98183">
        <ele>894</ele>
        <time>2016-06-26T06:02:04Z</time>
      </trkpt>
      <trkpt lat="46.57709" lon="5.98197">
        <ele>894</ele>
        <time>2016-06-26T06:02:13Z</time>
      </trkpt>
      <trkpt lat="46.57725" lon="5.98211">
        <ele>894</ele>
        <time>2016-06-26T06:02:33Z</time>
      </trkpt>
      <trkpt lat="46.57742" lon="5.98225">
        <ele>894</ele>
        <time>2016-06-26T06:02:43Z</time>
      </trkpt>
      <trkpt lat="46.57754" lon="5.98246">
        <ele>891</ele>
        <time>2016-06-26T06:02:54Z</time>
      </trkpt>
      <trkpt lat="46.57749" lon="5.98273">
        <ele>899</ele>
        <time>2016-06-26T06:03:08Z</time>
      </trkpt>
      <trkpt lat="46.57742" lon="5.983">
        <ele>903</ele>
        <time>2016-06-26T06:03:17Z</time>
      </trkpt>
      <trkpt lat="46.57734" lon="5.98325">
        <ele>905</ele>
        <time>2016-06-26T06:03:27Z</time>
      </trkpt>
      <trkpt lat="46.57722" lon="5.98347">
        <ele>912</ele>
        <time>2016-06-26T06:03:39Z</time>
      </trkpt>
      <trkpt lat="46.57707" lon="5.98364">
        <ele>913</ele>
        <time>2016-06-26T06:03:55Z</time>
      </trkpt>
      <trkpt lat="46.57691" lon="5.98377">
        <ele>914</ele>
        <time>2016-06-26T06:04:11Z</time>
      </trkpt>
      <trkpt lat="46.57675" lon="5.98391">
        <ele>915</ele>
        <time>2016-06-26T06:04:26Z</time>
      </trkpt>
      <trkpt lat="46.57662" lon="5.98408">
        <ele>919</ele>
        <time>2016-06-26T06:04:44Z</time>
      </trkpt>
      <trkpt lat="46.57655" lon="5.98433">
        <ele>921</ele>
        <time>2016-06-26T06:05:24Z</time>
      </trkpt>
      <trkpt lat="46.57675" lon="5.98435">
        <ele>919</ele>
        <time>2016-06-26T06:05:38Z</time>
      </trkpt>
      <trkpt lat="46.57694" lon="5.98441">
        <ele>920</ele>
        <time>2016-06-26T06:05:46Z</time>
      </trkpt>
      <trkpt lat="46.57706" lon="5.98461">
        <ele>921</ele>
        <time>2016-06-26T06:05:53Z</time>
      </trkpt>
      <trkpt lat="46.57714" lon="5.98487">
        <ele>922</ele>
        <time>2016-06-26T06:06:03Z</time>
      </trkpt>
      <trkpt lat="46.57725" lon="5.98508">
        <ele>927</ele>
        <time>2016-06-26T06:06:15Z</time>
      </trkpt>
      <trkpt lat="46.5774" lon="5.98524">
        <ele>927</ele>
        <time>2016-06-26T06:06:26Z</time>
      </trkpt>
      <trkpt lat="46.57755" lon="5.98539">
        <ele>929</ele>
        <time>2016-06-26T06:06:39Z</time>
      </trkpt>
      <trkpt lat="46.57772" lon="5.98553">
        <ele>930</ele>
        <time>2016-06-26T06:06:50Z</time>
      </trkpt>
      <trkpt lat="46.57785" lon="5.98571">
        <ele>931</ele>
        <time>2016-06-26T06:06:58Z</time>
      </trkpt>
      <trkpt lat="46.578" lon="5.98588">
        <ele>933</ele>
        <time>2016-06-26T06:07:05Z</time>
      </trkpt>
      <trkpt lat="46.57816" lon="5.98603">
        <ele>934</ele>
        <time>2016-06-26T06:07:13Z</time>
      </trkpt>
      <trkpt lat="46.57831" lon="5.98623">
        <ele>934</ele>
        <time>2016-06-26T06:07:22Z</time>
      </trkpt>
      <trkpt lat="46.57843" lon="5.98644">
        <ele>937</ele>
        <time>2016-06-26T06:07:30Z</time>
      </trkpt>
      <trkpt lat="46.57853" lon="5.98669">
        <ele>939</ele>
        <time>2016-06-26T06:07:38Z</time>
      </trkpt>
      <trkpt lat="46.57861" lon="5.98696">
        <ele>940</ele>
        <time>2016-06-26T06:07:44Z</time>
      </trkpt>
      <trkpt lat="46.57872" lon="5.9872">
        <ele>941</ele>
        <time>2016-06-26T06:07:49Z</time>
      </trkpt>
      <trkpt lat="46.57886" lon="5.98741">
        <ele>941</ele>
        <time>2016-06-26T06:07:54Z</time>
      </trkpt>
      <trkpt lat="46.57899" lon="5.98763">
        <ele>943</ele>
        <time>2016-06-26T06:07:59Z</time>
      </trkpt>
      <trkpt lat="46.57909" lon="5.98785">
        <ele>943</ele>
        <time>2016-06-26T06:08:03Z</time>
      </trkpt>
      <trkpt lat="46.57911" lon="5.98816">
        <ele>944</ele>
        <time>2016-06-26T06:08:08Z</time>
      </trkpt>
      <trkpt lat="46.57908" lon="5.98847">
        <ele>945</ele>
        <time>2016-06-26T06:08:13Z</time>
      </trkpt>
      <trkpt lat="46.57901" lon="5.98874">
        <ele>946</ele>
        <time>2016-06-26T06:08:19Z</time>
      </trkpt>
      <trkpt lat="46.57895" lon="5.98902">
        <ele>946</ele>
        <time>2016-06-26T06:08:28Z</time>
      </trkpt>
      <trkpt lat="46.57893" lon="5.9893">
        <ele>947</ele>
        <time>2016-06-26T06:08:36Z</time>
      </trkpt>
      <trkpt lat="46.57897" lon="5.98958">
        <ele>947</ele>
        <time>2016-06-26T06:08:44Z</time>
      </trkpt>
      <trkpt lat="46.57899" lon="5.98985">
        <ele>948</ele>
        <time>2016-06-26T06:08:53Z</time>
      </trkpt>
      <trkpt lat="46.57904" lon="5.99011">
        <ele>949</ele>
        <time>2016-06-26T06:09:02Z</time>
      </trkpt>
      <trkpt lat="46.57912" lon="5.99037">
        <ele>949</ele>
        <time>2016-06-26T06:09:12Z</time>
      </trkpt>
      <trkpt lat="46.57929" lon="5.99051">
        <ele>950</ele>
        <time>2016-06-26T06:09:21Z</time>
      </trkpt>
      <trkpt lat="46.57951" lon="5.99052">
        <ele>950</ele>
        <time>2016-06-26T06:09:28Z</time>
      </trkpt>
      <trkpt lat="46.5797" lon="5.99043">
        <ele>950</ele>
        <time>2016-06-26T06:09:32Z</time>
      </trkpt>
      <trkpt lat="46.57993" lon="5.99041">
        <ele>950</ele>
        <time>2016-06-26T06:09:36Z</time>
      </trkpt>
      <trkpt lat="46.58011" lon="5.99027">
        <ele>950</ele>
        <time>2016-06-26T06:09:39Z</time>
      </trkpt>
      <trkpt lat="46.58028" lon="5.99014">
        <ele>950</ele>
        <time>2016-06-26T06:09:41Z</time>
      </trkpt>
      <trkpt lat="46.58045" lon="5.98994">
        <ele>948</ele>
        <time>2016-06-26T06:09:44Z</time>
      </trkpt>
      <trkpt lat="46.58062" lon="5.98974">
        <ele>947</ele>
        <time>2016-06-26T06:09:46Z</time>
      </trkpt>
      <trkpt lat="46.58085" lon="5.98952">
        <ele>946</ele>
        <time>2016-06-26T06:09:49Z</time>
      </trkpt>
      <trkpt lat="46.58102" lon="5.98939">
        <ele>946</ele>
        <time>2016-06-26T06:09:51Z</time>
      </trkpt>
      <trkpt lat="46.58121" lon="5.98933">
        <ele>946</ele>
        <time>2016-06-26T06:09:53Z</time>
      </trkpt>
      <trkpt lat="46.58146" lon="5.98925">
        <ele>945</ele>
        <time>2016-06-26T06:09:57Z</time>
      </trkpt>
      <trkpt lat="46.58169" lon="5.98931">
        <ele>945</ele>
        <time>2016-06-26T06:10:01Z</time>
      </trkpt>
      <trkpt lat="46.5818" lon="5.98954">
        <ele>946</ele>
        <time>2016-06-26T06:10:36Z</time>
      </trkpt>
      <trkpt lat="46.58175" lon="5.9898">
        <ele>945</ele>
        <time>2016-06-26T06:10:42Z</time>
      </trkpt>
      <trkpt lat="46.58166" lon="5.99002">
        <ele>945</ele>
        <time>2016-06-26T06:10:48Z</time>
      </trkpt>
      <trkpt lat="46.58152" lon="5.9902">
        <ele>948</ele>
        <time>2016-06-26T06:10:55Z</time>
      </trkpt>
      <trkpt lat="46.58138" lon="5.99039">
        <ele>950</ele>
        <time>2016-06-26T06:11:05Z</time>
      </trkpt>
      <trkpt lat="46.58125" lon="5.99059">
        <ele>951</ele>
        <time>2016-06-26T06:11:19Z</time>
      </trkpt>
      <trkpt lat="46.58104" lon="5.99075">
        <ele>952</ele>
        <time>2016-06-26T06:11:36Z</time>
      </trkpt>
      <trkpt lat="46.58096" lon="5.99098">
        <ele>957</ele>
        <time>2016-06-26T06:11:51Z</time>
      </trkpt>
      <trkpt lat="46.5808" lon="5.99113">
        <ele>957</ele>
        <time>2016-06-26T06:12:02Z</time>
      </trkpt>
      <trkpt lat="46.58066" lon="5.99129">
        <ele>958</ele>
        <time>2016-06-26T06:12:09Z</time>
      </trkpt>
      <trkpt lat="46.58053" lon="5.99151">
        <ele>959</ele>
        <time>2016-06-26T06:12:16Z</time>
      </trkpt>
      <trkpt lat="46.58042" lon="5.99174">
        <ele>964</ele>
        <time>2016-06-26T06:12:23Z</time>
      </trkpt>
      <trkpt lat="46.58035" lon="5.99201">
        <ele>965</ele>
        <time>2016-06-26T06:12:30Z</time>
      </trkpt>
      <trkpt lat="46.58028" lon="5.99225">
        <ele>965</ele>
        <time>2016-06-26T06:12:37Z</time>
      </trkpt>
      <trkpt lat="46.58018" lon="5.99248">
        <ele>966</ele>
        <time>2016-06-26T06:12:44Z</time>
      </trkpt>
      <trkpt lat="46.58007" lon="5.99272">
        <ele>971</ele>
        <time>2016-06-26T06:12:52Z</time>
      </trkpt>
      <trkpt lat="46.57993" lon="5.99288">
        <ele>971</ele>
        <time>2016-06-26T06:13:00Z</time>
      </trkpt>
      <trkpt lat="46.57979" lon="5.99306">
        <ele>972</ele>
        <time>2016-06-26T06:13:08Z</time>
      </trkpt>
      <trkpt lat="46.57964" lon="5.9932">
        <ele>972</ele>
        <time>2016-06-26T06:13:14Z</time>
      </trkpt>
      <trkpt lat="46.57951" lon="5.99341">
        <ele>977</ele>
        <time>2016-06-26T06:13:21Z</time>
      </trkpt>
      <trkpt lat="46.57942" lon="5.99366">
        <ele>978</ele>
        <time>2016-06-26T06:13:31Z</time>
      </trkpt>
      <trkpt lat="46.57929" lon="5.99386">
        <ele>979</ele>
        <time>2016-06-26T06:13:40Z</time>
      </trkpt>
      <trkpt lat="46.57915" lon="5.99407">
        <ele>979</ele>
        <time>2016-06-26T06:13:50Z</time>
      </trkpt>
      <trkpt lat="46.57903" lon="5.99427">
        <ele>982</ele>
        <time>2016-06-26T06:14:00Z</time>
      </trkpt>
      <trkpt lat="46.57892" lon="5.9945">
        <ele>984</ele>
        <time>2016-06-26T06:14:14Z</time>
      </trkpt>
      <trkpt lat="46.57881" lon="5.99472">
        <ele>985</ele>
        <time>2016-06-26T06:14:28Z</time>
      </trkpt>
      <trkpt lat="46.57871" lon="5.99495">
        <ele>985</ele>
        <time>2016-06-26T06:14:44Z</time>
      </trkpt>
      <trkpt lat="46.57863" lon="5.9952">
        <ele>989</ele>
        <time>2016-06-26T06:15:01Z</time>
      </trkpt>
      <trkpt lat="46.57864" lon="5.99547">
        <ele>989</ele>
        <time>2016-06-26T06:15:16Z</time>
      </trkpt>
      <trkpt lat="46.57876" lon="5.99569">
        <ele>990</ele>
        <time>2016-06-26T06:15:25Z</time>
      </trkpt>
      <trkpt lat="46.57882" lon="5.99595">
        <ele>992</ele>
        <time>2016-06-26T06:15:32Z</time>
      </trkpt>
      <trkpt lat="46.57875" lon="5.99621">
        <ele>992</ele>
        <time>2016-06-26T06:15:41Z</time>
      </trkpt>
      <trkpt lat="46.57868" lon="5.99648">
        <ele>993</ele>
        <time>2016-06-26T06:15:49Z</time>
      </trkpt>
      <trkpt lat="46.57862" lon="5.99675">
        <ele>993</ele>
        <time>2016-06-26T06:15:57Z</time>
      </trkpt>
      <trkpt lat="46.57857" lon="5.99701">
        <ele>993</ele>
        <time>2016-06-26T06:16:05Z</time>
      </trkpt>
      <trkpt lat="46.57854" lon="5.99727">
        <ele>992</ele>
        <time>2016-06-26T06:16:13Z</time>
      </trkpt>
      <trkpt lat="46.57849" lon="5.99756">
        <ele>992</ele>
        <time>2016-06-26T06:16:21Z</time>
      </trkpt>
      <trkpt lat="46.57842" lon="5.99786">
        <ele>992</ele>
        <time>2016-06-26T06:16:28Z</time>
      </trkpt>
      <trkpt lat="46.57832" lon="5.99811">
        <ele>994</ele>
        <time>2016-06-26T06:16:33Z</time>
      </trkpt>
      <trkpt lat="46.57827" lon="5.9984">
        <ele>993</ele>
        <time>2016-06-26T06:16:37Z</time>
      </trkpt>
      <trkpt lat="46.57786" lon="5.99935">
        <ele>998</ele>
        <time>2016-06-26T06:16:54Z</time>
      </trkpt>
      <trkpt lat="46.57777" lon="5.99959">
        <ele>998</ele>
        <time>2016-06-26T06:17:03Z</time>
      </trkpt>
      <trkpt lat="46.57773" lon="5.99988">
        <ele>998</ele>
        <time>2016-06-26T06:17:11Z</time>
      </trkpt>
      <trkpt lat="46.57767" lon="6.00013">
        <ele>999</ele>
        <time>2016-06-26T06:17:19Z</time>
      </trkpt>
      <trkpt lat="46.57766" lon="6.00039">
        <ele>1000</ele>
        <time>2016-06-26T06:17:26Z</time>
      </trkpt>
      <trkpt lat="46.57764" lon="6.00067">
        <ele>999</ele>
        <time>2016-06-26T06:17:34Z</time>
      </trkpt>
      <trkpt lat="46.5776" lon="6.00093">
        <ele>1000</ele>
        <time>2016-06-26T06:17:40Z</time>
      </trkpt>
      <trkpt lat="46.57749" lon="6.00118">
        <ele>1004</ele>
        <time>2016-06-26T06:17:47Z</time>
      </trkpt>
      <trkpt lat="46.57743" lon="6.00145">
        <ele>1004</ele>
        <time>2016-06-26T06:17:54Z</time>
      </trkpt>
      <trkpt lat="46.57738" lon="6.00171">
        <ele>1006</ele>
        <time>2016-06-26T06:18:02Z</time>
      </trkpt>
      <trkpt lat="46.57732" lon="6.00196">
        <ele>1009</ele>
        <time>2016-06-26T06:18:10Z</time>
      </trkpt>
      <trkpt lat="46.57737" lon="6.00223">
        <ele>1009</ele>
        <time>2016-06-26T06:18:21Z</time>
      </trkpt>
      <trkpt lat="46.57744" lon="6.00247">
        <ele>1006</ele>
        <time>2016-06-26T06:18:49Z</time>
      </trkpt>
      <trkpt lat="46.57752" lon="6.00272">
        <ele>1008</ele>
        <time>2016-06-26T06:19:02Z</time>
      </trkpt>
      <trkpt lat="46.57757" lon="6.00297">
        <ele>1010</ele>
        <time>2016-06-26T06:19:17Z</time>
      </trkpt>
      <trkpt lat="46.57756" lon="6.00324">
        <ele>1009</ele>
        <time>2016-06-26T06:19:30Z</time>
      </trkpt>
      <trkpt lat="46.57756" lon="6.00351">
        <ele>1014</ele>
        <time>2016-06-26T06:19:43Z</time>
      </trkpt>
      <trkpt lat="46.57756" lon="6.00378">
        <ele>1017</ele>
        <time>2016-06-26T06:19:56Z</time>
      </trkpt>
      <trkpt lat="46.57764" lon="6.00401">
        <ele>1018</ele>
        <time>2016-06-26T06:20:07Z</time>
      </trkpt>
      <trkpt lat="46.57769" lon="6.00427">
        <ele>1022</ele>
        <time>2016-06-26T06:20:19Z</time>
      </trkpt>
      <trkpt lat="46.57775" lon="6.00452">
        <ele>1023</ele>
        <time>2016-06-26T06:20:31Z</time>
      </trkpt>
      <trkpt lat="46.57773" lon="6.00479">
        <ele>1023</ele>
        <time>2016-06-26T06:20:42Z</time>
      </trkpt>
      <trkpt lat="46.57774" lon="6.00506">
        <ele>1024</ele>
        <time>2016-06-26T06:20:52Z</time>
      </trkpt>
      <trkpt lat="46.57772" lon="6.00534">
        <ele>1024</ele>
        <time>2016-06-26T06:21:01Z</time>
      </trkpt>
      <trkpt lat="46.57773" lon="6.00563">
        <ele>1023</ele>
        <time>2016-06-26T06:21:10Z</time>
      </trkpt>
      <trkpt lat="46.57771" lon="6.00591">
        <ele>1022</ele>
        <time>2016-06-26T06:21:17Z</time>
      </trkpt>
      <trkpt lat="46.57768" lon="6.00618">
        <ele>1023</ele>
        <time>2016-06-26T06:21:21Z</time>
      </trkpt>
      <trkpt lat="46.57761" lon="6.00643">
        <ele>1021</ele>
        <time>2016-06-26T06:21:26Z</time>
      </trkpt>
      <trkpt lat="46.57754" lon="6.0067">
        <ele>1015</ele>
        <time>2016-06-26T06:21:37Z</time>
      </trkpt>
      <trkpt lat="46.57745" lon="6.00695">
        <ele>1018</ele>
        <time>2016-06-26T06:21:50Z</time>
      </trkpt>
      <trkpt lat="46.57741" lon="6.00721">
        <ele>1018</ele>
        <time>2016-06-26T06:22:05Z</time>
      </trkpt>
      <trkpt lat="46.57734" lon="6.00747">
        <ele>1017</ele>
        <time>2016-06-26T06:22:23Z</time>
      </trkpt>
      <trkpt lat="46.57724" lon="6.00769">
        <ele>1014</ele>
        <time>2016-06-26T06:22:56Z</time>
      </trkpt>
      <trkpt lat="46.57714" lon="6.00792">
        <ele>1014</ele>
        <time>2016-06-26T06:23:20Z</time>
      </trkpt>
      <trkpt lat="46.57706" lon="6.00816">
        <ele>1013</ele>
        <time>2016-06-26T06:23:31Z</time>
      </trkpt>
      <trkpt lat="46.57697" lon="6.00839">
        <ele>1009</ele>
        <time>2016-06-26T06:23:42Z</time>
      </trkpt>
      <trkpt lat="46.57687" lon="6.00861">
        <ele>1008</ele>
        <time>2016-06-26T06:24:02Z</time>
      </trkpt>
      <trkpt lat="46.57672" lon="6.00878">
        <ele>1006</ele>
        <time>2016-06-26T06:24:18Z</time>
      </trkpt>
      <trkpt lat="46.57663" lon="6.00903">
        <ele>1003</ele>
        <time>2016-06-26T06:24:42Z</time>
      </trkpt>
      <trkpt lat="46.57656" lon="6.00928">
        <ele>1001</ele>
        <time>2016-06-26T06:24:59Z</time>
      </trkpt>
      <trkpt lat="46.57651" lon="6.00955">
        <ele>1004</ele>
        <time>2016-06-26T06:25:12Z</time>
      </trkpt>
      <trkpt lat="46.57641" lon="6.00978">
        <ele>1005</ele>
        <time>2016-06-26T06:25:30Z</time>
      </trkpt>
      <trkpt lat="46.57629" lon="6.00999">
        <ele>1005</ele>
        <time>2016-06-26T06:25:44Z</time>
      </trkpt>
      <trkpt lat="46.57622" lon="6.01023">
        <ele>1007</ele>
        <time>2016-06-26T06:26:02Z</time>
      </trkpt>
      <trkpt lat="46.57612" lon="6.01045">
        <ele>1008</ele>
        <time>2016-06-26T06:26:25Z</time>
      </trkpt>
      <trkpt lat="46.57611" lon="6.01071">
        <ele>1008</ele>
        <time>2016-06-26T06:26:57Z</time>
      </trkpt>
      <trkpt lat="46.57604" lon="6.01097">
        <ele>1011</ele>
        <time>2016-06-26T06:27:16Z</time>
      </trkpt>
      <trkpt lat="46.57595" lon="6.01121">
        <ele>1011</ele>
        <time>2016-06-26T06:27:28Z</time>
      </trkpt>
      <trkpt lat="46.57585" lon="6.01145">
        <ele>1011</ele>
        <time>2016-06-26T06:27:38Z</time>
      </trkpt>
      <trkpt lat="46.57573" lon="6.01166">
        <ele>1013</ele>
        <time>2016-06-26T06:27:48Z</time>
      </trkpt>
      <trkpt lat="46.57568" lon="6.01192">
        <ele>1018</ele>
        <time>2016-06-26T06:28:00Z</time>
      </trkpt>
      <trkpt lat="46.57563" lon="6.01218">
        <ele>1019</ele>
        <time>2016-06-26T06:28:11Z</time>
      </trkpt>
      <trkpt lat="46.57563" lon="6.01245">
        <ele>1018</ele>
        <time>2016-06-26T06:28:55Z</time>
      </trkpt>
      <trkpt lat="46.57572" lon="6.0127">
        <ele>1019</ele>
        <time>2016-06-26T06:29:07Z</time>
      </trkpt>
      <trkpt lat="46.57566" lon="6.01295">
        <ele>1021</ele>
        <time>2016-06-26T06:29:19Z</time>
      </trkpt>
      <trkpt lat="46.57559" lon="6.01321">
        <ele>1021</ele>
        <time>2016-06-26T06:29:29Z</time>
      </trkpt>
      <trkpt lat="46.57549" lon="6.01344">
        <ele>1023</ele>
        <time>2016-06-26T06:29:39Z</time>
      </trkpt>
      <trkpt lat="46.57539" lon="6.01368">
        <ele>1024</ele>
        <time>2016-06-26T06:29:50Z</time>
      </trkpt>
      <trkpt lat="46.57529" lon="6.0139">
        <ele>1025</ele>
        <time>2016-06-26T06:30:04Z</time>
      </trkpt>
      <trkpt lat="46.5752" lon="6.01413">
        <ele>1026</ele>
        <time>2016-06-26T06:30:18Z</time>
      </trkpt>
      <trkpt lat="46.57508" lon="6.01434">
        <ele>1027</ele>
        <time>2016-06-26T06:30:30Z</time>
      </trkpt>
      <trkpt lat="46.57497" lon="6.01455">
        <ele>1030</ele>
        <time>2016-06-26T06:30:45Z</time>
      </trkpt>
      <trkpt lat="46.57484" lon="6.01474">
        <ele>1030</ele>
        <time>2016-06-26T06:31:03Z</time>
      </trkpt>
      <trkpt lat="46.57469" lon="6.01491">
        <ele>1031</ele>
        <time>2016-06-26T06:31:20Z</time>
      </trkpt>
      <trkpt lat="46.57451" lon="6.01502">
        <ele>1031</ele>
        <time>2016-06-26T06:31:38Z</time>
      </trkpt>
      <trkpt lat="46.57432" lon="6.0151">
        <ele>1031</ele>
        <time>2016-06-26T06:31:47Z</time>
      </trkpt>
      <trkpt lat="46.57414" lon="6.01519">
        <ele>1029</ele>
        <time>2016-06-26T06:31:55Z</time>
      </trkpt>
      <trkpt lat="46.57398" lon="6.01533">
        <ele>1029</ele>
        <time>2016-06-26T06:32:03Z</time>
      </trkpt>
      <trkpt lat="46.57381" lon="6.01552">
        <ele>1028</ele>
        <time>2016-06-26T06:32:10Z</time>
      </trkpt>
      <trkpt lat="46.57359" lon="6.01574">
        <ele>1027</ele>
        <time>2016-06-26T06:32:15Z</time>
      </trkpt>
      <trkpt lat="46.57343" lon="6.01594">
        <ele>1025</ele>
        <time>2016-06-26T06:32:20Z</time>
      </trkpt>
      <trkpt lat="46.57328" lon="6.01609">
        <ele>1023</ele>
        <time>2016-06-26T06:32:27Z</time>
      </trkpt>
      <trkpt lat="46.57312" lon="6.01624">
        <ele>1023</ele>
        <time>2016-06-26T06:32:34Z</time>
      </trkpt>
      <trkpt lat="46.57293" lon="6.01631">
        <ele>1023</ele>
        <time>2016-06-26T06:32:41Z</time>
      </trkpt>
      <trkpt lat="46.57274" lon="6.01644">
        <ele>1023</ele>
        <time>2016-06-26T06:32:48Z</time>
      </trkpt>
      <trkpt lat="46.57259" lon="6.01659">
        <ele>1022</ele>
        <time>2016-06-26T06:32:54Z</time>
      </trkpt>
      <trkpt lat="46.57243" lon="6.0168">
        <ele>1023</ele>
        <time>2016-06-26T06:33:00Z</time>
      </trkpt>
      <trkpt lat="46.57228" lon="6.01698">
        <ele>1024</ele>
        <time>2016-06-26T06:33:05Z</time>
      </trkpt>
      <trkpt lat="46.57214" lon="6.01719">
        <ele>1024</ele>
        <time>2016-06-26T06:33:11Z</time>
      </trkpt>
      <trkpt lat="46.57204" lon="6.01744">
        <ele>1024</ele>
        <time>2016-06-26T06:33:18Z</time>
      </trkpt>
      <trkpt lat="46.57187" lon="6.01767">
        <ele>1025</ele>
        <time>2016-06-26T06:33:25Z</time>
      </trkpt>
      <trkpt lat="46.57169" lon="6.01788">
        <ele>1024</ele>
        <time>2016-06-26T06:33:28Z</time>
      </trkpt>
      <trkpt lat="46.57152" lon="6.018">
        <ele>1019</ele>
        <time>2016-06-26T06:33:31Z</time>
      </trkpt>
      <trkpt lat="46.57136" lon="6.01814">
        <ele>1019</ele>
        <time>2016-06-26T06:33:35Z</time>
      </trkpt>
      <trkpt lat="46.5712" lon="6.01831">
        <ele>1018</ele>
        <time>2016-06-26T06:33:40Z</time>
      </trkpt>
      <trkpt lat="46.57119" lon="6.01858">
        <ele>1018</ele>
        <time>2016-06-26T06:36:14Z</time>
      </trkpt>
      <trkpt lat="46.57116" lon="6.01884">
        <ele>1018</ele>
        <time>2016-06-26T06:36:19Z</time>
      </trkpt>
      <trkpt lat="46.57112" lon="6.01914">
        <ele>1017</ele>
        <time>2016-06-26T06:36:23Z</time>
      </trkpt>
      <trkpt lat="46.57103" lon="6.01937">
        <ele>1018</ele>
        <time>2016-06-26T06:36:31Z</time>
      </trkpt>
      <trkpt lat="46.57095" lon="6.01962">
        <ele>1018</ele>
        <time>2016-06-26T06:36:40Z</time>
      </trkpt>
      <trkpt lat="46.57079" lon="6.01976">
        <ele>1013</ele>
        <time>2016-06-26T06:36:46Z</time>
      </trkpt>
      <trkpt lat="46.57062" lon="6.0199">
        <ele>1013</ele>
        <time>2016-06-26T06:36:51Z</time>
      </trkpt>
      <trkpt lat="46.57048" lon="6.0201">
        <ele>1013</ele>
        <time>2016-06-26T06:36:55Z</time>
      </trkpt>
      <trkpt lat="46.57035" lon="6.02034">
        <ele>1013</ele>
        <time>2016-06-26T06:37:00Z</time>
      </trkpt>
      <trkpt lat="46.57024" lon="6.02058">
        <ele>1013</ele>
        <time>2016-06-26T06:37:05Z</time>
      </trkpt>
      <trkpt lat="46.57013" lon="6.0208">
        <ele>1013</ele>
        <time>2016-06-26T06:37:10Z</time>
      </trkpt>
      <trkpt lat="46.57003" lon="6.02103">
        <ele>1015</ele>
        <time>2016-06-26T06:37:16Z</time>
      </trkpt>
      <trkpt lat="46.56992" lon="6.02129">
        <ele>1011</ele>
        <time>2016-06-26T06:37:23Z</time>
      </trkpt>
      <trkpt lat="46.5698" lon="6.0215">
        <ele>1011</ele>
        <time>2016-06-26T06:37:33Z</time>
      </trkpt>
      <trkpt lat="46.56974" lon="6.02177">
        <ele>1008</ele>
        <time>2016-06-26T06:37:40Z</time>
      </trkpt>
      <trkpt lat="46.56971" lon="6.02205">
        <ele>1007</ele>
        <time>2016-06-26T06:37:45Z</time>
      </trkpt>
      <trkpt lat="46.56961" lon="6.02228">
        <ele>1005</ele>
        <time>2016-06-26T06:37:50Z</time>
      </trkpt>
      <trkpt lat="46.56956" lon="6.02257">
        <ele>1003</ele>
        <time>2016-06-26T06:37:56Z</time>
      </trkpt>
      <trkpt lat="46.56955" lon="6.02288">
        <ele>1003</ele>
        <time>2016-06-26T06:38:00Z</time>
      </trkpt>
      <trkpt lat="46.56954" lon="6.02315">
        <ele>1002</ele>
        <time>2016-06-26T06:38:03Z</time>
      </trkpt>
      <trkpt lat="46.56945" lon="6.0234">
        <ele>999</ele>
        <time>2016-06-26T06:38:06Z</time>
      </trkpt>
      <trkpt lat="46.56944" lon="6.02369">
        <ele>999</ele>
        <time>2016-06-26T06:38:09Z</time>
      </trkpt>
      <trkpt lat="46.56947" lon="6.024">
        <ele>999</ele>
        <time>2016-06-26T06:38:12Z</time>
      </trkpt>
      <trkpt lat="46.56951" lon="6.02431">
        <ele>995</ele>
        <time>2016-06-26T06:38:15Z</time>
      </trkpt>
      <trkpt lat="46.56956" lon="6.02462">
        <ele>994</ele>
        <time>2016-06-26T06:38:18Z</time>
      </trkpt>
      <trkpt lat="46.56962" lon="6.02493">
        <ele>993</ele>
        <time>2016-06-26T06:38:21Z</time>
      </trkpt>
      <trkpt lat="46.56967" lon="6.02526">
        <ele>988</ele>
        <time>2016-06-26T06:38:24Z</time>
      </trkpt>
      <trkpt lat="46.56974" lon="6.02561">
        <ele>986</ele>
        <time>2016-06-26T06:38:27Z</time>
      </trkpt>
      <trkpt lat="46.56981" lon="6.02598">
        <ele>983</ele>
        <time>2016-06-26T06:38:30Z</time>
      </trkpt>
      <trkpt lat="46.56986" lon="6.02623">
        <ele>982</ele>
        <time>2016-06-26T06:38:32Z</time>
      </trkpt>
      <trkpt lat="46.56992" lon="6.02649">
        <ele>982</ele>
        <time>2016-06-26T06:38:34Z</time>
      </trkpt>
      <trkpt lat="46.56998" lon="6.02677">
        <ele>981</ele>
        <time>2016-06-26T06:38:36Z</time>
      </trkpt>
      <trkpt lat="46.57004" lon="6.02705">
        <ele>982</ele>
        <time>2016-06-26T06:38:38Z</time>
      </trkpt>
      <trkpt lat="46.5701" lon="6.02734">
        <ele>980</ele>
        <time>2016-06-26T06:38:40Z</time>
      </trkpt>
      <trkpt lat="46.57016" lon="6.02762">
        <ele>978</ele>
        <time>2016-06-26T06:38:42Z</time>
      </trkpt>
      <trkpt lat="46.5702" lon="6.02791">
        <ele>978</ele>
        <time>2016-06-26T06:38:44Z</time>
      </trkpt>
      <trkpt lat="46.57027" lon="6.02821">
        <ele>978</ele>
        <time>2016-06-26T06:38:46Z</time>
      </trkpt>
      <trkpt lat="46.57032" lon="6.02848">
        <ele>977</ele>
        <time>2016-06-26T06:38:48Z</time>
      </trkpt>
      <trkpt lat="46.57038" lon="6.02883">
        <ele>977</ele>
        <time>2016-06-26T06:38:51Z</time>
      </trkpt>
      <trkpt lat="46.57049" lon="6.02905">
        <ele>978</ele>
        <time>2016-06-26T06:38:54Z</time>
      </trkpt>
      <trkpt lat="46.5707" lon="6.02907">
        <ele>978</ele>
        <time>2016-06-26T06:38:59Z</time>
      </trkpt>
      <trkpt lat="46.57089" lon="6.02914">
        <ele>979</ele>
        <time>2016-06-26T06:39:06Z</time>
      </trkpt>
      <trkpt lat="46.57103" lon="6.02932">
        <ele>981</ele>
        <time>2016-06-26T06:39:13Z</time>
      </trkpt>
      <trkpt lat="46.5712" lon="6.02961">
        <ele>982</ele>
        <time>2016-06-26T06:39:26Z</time>
      </trkpt>
      <trkpt lat="46.57135" lon="6.02977">
        <ele>983</ele>
        <time>2016-06-26T06:39:38Z</time>
      </trkpt>
      <trkpt lat="46.5715" lon="6.02993">
        <ele>984</ele>
        <time>2016-06-26T06:39:50Z</time>
      </trkpt>
      <trkpt lat="46.57168" lon="6.03003">
        <ele>986</ele>
        <time>2016-06-26T06:40:03Z</time>
      </trkpt>
      <trkpt lat="46.57186" lon="6.03008">
        <ele>988</ele>
        <time>2016-06-26T06:40:16Z</time>
      </trkpt>
      <trkpt lat="46.57204" lon="6.03016">
        <ele>990</ele>
        <time>2016-06-26T06:40:28Z</time>
      </trkpt>
      <trkpt lat="46.57222" lon="6.03026">
        <ele>991</ele>
        <time>2016-06-26T06:40:41Z</time>
      </trkpt>
      <trkpt lat="46.57241" lon="6.0303">
        <ele>992</ele>
        <time>2016-06-26T06:40:53Z</time>
      </trkpt>
      <trkpt lat="46.57257" lon="6.03043">
        <ele>1000</ele>
        <time>2016-06-26T06:41:02Z</time>
      </trkpt>
      <trkpt lat="46.57268" lon="6.03065">
        <ele>1000</ele>
        <time>2016-06-26T06:41:09Z</time>
      </trkpt>
      <trkpt lat="46.57275" lon="6.03092">
        <ele>999</ele>
        <time>2016-06-26T06:41:16Z</time>
      </trkpt>
      <trkpt lat="46.57286" lon="6.03116">
        <ele>1000</ele>
        <time>2016-06-26T06:41:22Z</time>
      </trkpt>
      <trkpt lat="46.57302" lon="6.03136">
        <ele>1001</ele>
        <time>2016-06-26T06:41:28Z</time>
      </trkpt>
      <trkpt lat="46.57316" lon="6.03158">
        <ele>1002</ele>
        <time>2016-06-26T06:41:32Z</time>
      </trkpt>
      <trkpt lat="46.57322" lon="6.03186">
        <ele>999</ele>
        <time>2016-06-26T06:41:35Z</time>
      </trkpt>
      <trkpt lat="46.57322" lon="6.03217">
        <ele>997</ele>
        <time>2016-06-26T06:41:38Z</time>
      </trkpt>
      <trkpt lat="46.57318" lon="6.03249">
        <ele>996</ele>
        <time>2016-06-26T06:41:41Z</time>
      </trkpt>
      <trkpt lat="46.57314" lon="6.03281">
        <ele>993</ele>
        <time>2016-06-26T06:41:44Z</time>
      </trkpt>
      <trkpt lat="46.57311" lon="6.03311">
        <ele>993</ele>
        <time>2016-06-26T06:41:48Z</time>
      </trkpt>
      <trkpt lat="46.5731" lon="6.0334">
        <ele>992</ele>
        <time>2016-06-26T06:41:55Z</time>
      </trkpt>
      <trkpt lat="46.57318" lon="6.03365">
        <ele>991</ele>
        <time>2016-06-26T06:41:59Z</time>
      </trkpt>
      <trkpt lat="46.57331" lon="6.0339">
        <ele>991</ele>
        <time>2016-06-26T06:42:03Z</time>
      </trkpt>
      <trkpt lat="46.57343" lon="6.03417">
        <ele>993</ele>
        <time>2016-06-26T06:42:08Z</time>
      </trkpt>
      <trkpt lat="46.57352" lon="6.03441">
        <ele>993</ele>
        <time>2016-06-26T06:42:13Z</time>
      </trkpt>
      <trkpt lat="46.5734" lon="6.03464">
        <ele>993</ele>
        <time>2016-06-26T06:42:19Z</time>
      </trkpt>
      <trkpt lat="46.57326" lon="6.03479">
        <ele>990</ele>
        <time>2016-06-26T06:42:26Z</time>
      </trkpt>
      <trkpt lat="46.57312" lon="6.035">
        <ele>991</ele>
        <time>2016-06-26T06:42:36Z</time>
      </trkpt>
      <trkpt lat="46.573" lon="6.03522">
        <ele>992</ele>
        <time>2016-06-26T06:42:46Z</time>
      </trkpt>
      <trkpt lat="46.57287" lon="6.03543">
        <ele>992</ele>
        <time>2016-06-26T06:42:56Z</time>
      </trkpt>
      <trkpt lat="46.57273" lon="6.03564">
        <ele>993</ele>
        <time>2016-06-26T06:43:06Z</time>
      </trkpt>
      <trkpt lat="46.5726" lon="6.03585">
        <ele>996</ele>
        <time>2016-06-26T06:43:16Z</time>
      </trkpt>
      <trkpt lat="46.57249" lon="6.03607">
        <ele>999</ele>
        <time>2016-06-26T06:43:24Z</time>
      </trkpt>
      <trkpt lat="46.57237" lon="6.03629">
        <ele>1002</ele>
        <time>2016-06-26T06:43:32Z</time>
      </trkpt>
      <trkpt lat="46.57223" lon="6.03648">
        <ele>1003</ele>
        <time>2016-06-26T06:43:41Z</time>
      </trkpt>
      <trkpt lat="46.57212" lon="6.03671">
        <ele>1008</ele>
        <time>2016-06-26T06:43:52Z</time>
      </trkpt>
      <trkpt lat="46.57201" lon="6.03692">
        <ele>1008</ele>
        <time>2016-06-26T06:44:06Z</time>
      </trkpt>
      <trkpt lat="46.57189" lon="6.03712">
        <ele>1009</ele>
        <time>2016-06-26T06:44:20Z</time>
      </trkpt>
      <trkpt lat="46.57178" lon="6.03734">
        <ele>1010</ele>
        <time>2016-06-26T06:44:34Z</time>
      </trkpt>
      <trkpt lat="46.57165" lon="6.03753">
        <ele>1012</ele>
        <time>2016-06-26T06:44:49Z</time>
      </trkpt>
      <trkpt lat="46.57153" lon="6.03773">
        <ele>1014</ele>
        <time>2016-06-26T06:45:04Z</time>
      </trkpt>
      <trkpt lat="46.57141" lon="6.03794">
        <ele>1015</ele>
        <time>2016-06-26T06:45:20Z</time>
      </trkpt>
      <trkpt lat="46.5713" lon="6.03816">
        <ele>1016</ele>
        <time>2016-06-26T06:45:34Z</time>
      </trkpt>
      <trkpt lat="46.57118" lon="6.03837">
        <ele>1019</ele>
        <time>2016-06-26T06:45:48Z</time>
      </trkpt>
      <trkpt lat="46.57107" lon="6.0386">
        <ele>1019</ele>
        <time>2016-06-26T06:46:03Z</time>
      </trkpt>
      <trkpt lat="46.57095" lon="6.03883">
        <ele>1021</ele>
        <time>2016-06-26T06:46:16Z</time>
      </trkpt>
      <trkpt lat="46.57084" lon="6.03904">
        <ele>1023</ele>
        <time>2016-06-26T06:46:30Z</time>
      </trkpt>
      <trkpt lat="46.57072" lon="6.03925">
        <ele>1030</ele>
        <time>2016-06-26T06:46:44Z</time>
      </trkpt>
      <trkpt lat="46.57061" lon="6.03946">
        <ele>1033</ele>
        <time>2016-06-26T06:46:58Z</time>
      </trkpt>
      <trkpt lat="46.57047" lon="6.03965">
        <ele>1034</ele>
        <time>2016-06-26T06:47:14Z</time>
      </trkpt>
      <trkpt lat="46.57036" lon="6.03986">
        <ele>1036</ele>
        <time>2016-06-26T06:47:30Z</time>
      </trkpt>
      <trkpt lat="46.57023" lon="6.04006">
        <ele>1041</ele>
        <time>2016-06-26T06:47:46Z</time>
      </trkpt>
      <trkpt lat="46.57007" lon="6.04021">
        <ele>1042</ele>
        <time>2016-06-26T06:48:01Z</time>
      </trkpt>
      <trkpt lat="46.56999" lon="6.04046">
        <ele>1046</ele>
        <time>2016-06-26T06:48:18Z</time>
      </trkpt>
      <trkpt lat="46.56988" lon="6.04067">
        <ele>1046</ele>
        <time>2016-06-26T06:48:31Z</time>
      </trkpt>
      <trkpt lat="46.5698" lon="6.04091">
        <ele>1048</ele>
        <time>2016-06-26T06:48:50Z</time>
      </trkpt>
      <trkpt lat="46.56963" lon="6.04103">
        <ele>1049</ele>
        <time>2016-06-26T06:49:26Z</time>
      </trkpt>
      <trkpt lat="46.56949" lon="6.0412">
        <ele>1050</ele>
        <time>2016-06-26T06:49:35Z</time>
      </trkpt>
      <trkpt lat="46.56938" lon="6.04141">
        <ele>1051</ele>
        <time>2016-06-26T06:49:45Z</time>
      </trkpt>
      <trkpt lat="46.56925" lon="6.04162">
        <ele>1053</ele>
        <time>2016-06-26T06:49:57Z</time>
      </trkpt>
      <trkpt lat="46.56913" lon="6.04183">
        <ele>1055</ele>
        <time>2016-06-26T06:50:09Z</time>
      </trkpt>
      <trkpt lat="46.56903" lon="6.04205">
        <ele>1054</ele>
        <time>2016-06-26T06:50:19Z</time>
      </trkpt>
      <trkpt lat="46.56885" lon="6.04216">
        <ele>1054</ele>
        <time>2016-06-26T06:50:29Z</time>
      </trkpt>
      <trkpt lat="46.56881" lon="6.04244">
        <ele>1054</ele>
        <time>2016-06-26T06:50:41Z</time>
      </trkpt>
      <trkpt lat="46.56883" lon="6.0427">
        <ele>1053</ele>
        <time>2016-06-26T06:50:55Z</time>
      </trkpt>
      <trkpt lat="46.56895" lon="6.0429">
        <ele>1053</ele>
        <time>2016-06-26T06:51:08Z</time>
      </trkpt>
      <trkpt lat="46.56911" lon="6.04305">
        <ele>1053</ele>
        <time>2016-06-26T06:51:23Z</time>
      </trkpt>
      <trkpt lat="46.56927" lon="6.04317">
        <ele>1054</ele>
        <time>2016-06-26T06:51:41Z</time>
      </trkpt>
      <trkpt lat="46.56935" lon="6.04342">
        <ele>1053</ele>
        <time>2016-06-26T06:52:00Z</time>
      </trkpt>
      <trkpt lat="46.56946" lon="6.04363">
        <ele>1053</ele>
        <time>2016-06-26T06:52:11Z</time>
      </trkpt>
      <trkpt lat="46.56955" lon="6.04389">
        <ele>1053</ele>
        <time>2016-06-26T06:52:23Z</time>
      </trkpt>
      <trkpt lat="46.56969" lon="6.04408">
        <ele>1052</ele>
        <time>2016-06-26T06:52:33Z</time>
      </trkpt>
      <trkpt lat="46.56987" lon="6.04426">
        <ele>1052</ele>
        <time>2016-06-26T06:52:41Z</time>
      </trkpt>
      <trkpt lat="46.57004" lon="6.04435">
        <ele>1050</ele>
        <time>2016-06-26T06:52:46Z</time>
      </trkpt>
      <trkpt lat="46.57023" lon="6.04434">
        <ele>1049</ele>
        <time>2016-06-26T06:52:52Z</time>
      </trkpt>
      <trkpt lat="46.57044" lon="6.04453">
        <ele>1048</ele>
        <time>2016-06-26T06:52:57Z</time>
      </trkpt>
      <trkpt lat="46.57053" lon="6.04476">
        <ele>1047</ele>
        <time>2016-06-26T06:53:01Z</time>
      </trkpt>
      <trkpt lat="46.5706" lon="6.04504">
        <ele>1047</ele>
        <time>2016-06-26T06:53:06Z</time>
      </trkpt>
      <trkpt lat="46.57072" lon="6.04533">
        <ele>1047</ele>
        <time>2016-06-26T06:53:10Z</time>
      </trkpt>
      <trkpt lat="46.57084" lon="6.04562">
        <ele>1043</ele>
        <time>2016-06-26T06:53:14Z</time>
      </trkpt>
      <trkpt lat="46.57098" lon="6.04585">
        <ele>1044</ele>
        <time>2016-06-26T06:53:17Z</time>
      </trkpt>
      <trkpt lat="46.57113" lon="6.0461">
        <ele>1042</ele>
        <time>2016-06-26T06:53:20Z</time>
      </trkpt>
      <trkpt lat="46.57126" lon="6.04634">
        <ele>1042</ele>
        <time>2016-06-26T06:53:23Z</time>
      </trkpt>
      <trkpt lat="46.57141" lon="6.04655">
        <ele>1041</ele>
        <time>2016-06-26T06:53:27Z</time>
      </trkpt>
      <trkpt lat="46.57161" lon="6.04672">
        <ele>1041</ele>
        <time>2016-06-26T06:53:31Z</time>
      </trkpt>
      <trkpt lat="46.57181" lon="6.04692">
        <ele>1039</ele>
        <time>2016-06-26T06:53:34Z</time>
      </trkpt>
      <trkpt lat="46.57196" lon="6.04708">
        <ele>1039</ele>
        <time>2016-06-26T06:53:36Z</time>
      </trkpt>
      <trkpt lat="46.57217" lon="6.04727">
        <ele>1038</ele>
        <time>2016-06-26T06:53:39Z</time>
      </trkpt>
      <trkpt lat="46.57237" lon="6.04752">
        <ele>1039</ele>
        <time>2016-06-26T06:53:42Z</time>
      </trkpt>
      <trkpt lat="46.57252" lon="6.04769">
        <ele>1034</ele>
        <time>2016-06-26T06:53:44Z</time>
      </trkpt>
      <trkpt lat="46.57268" lon="6.04785">
        <ele>1033</ele>
        <time>2016-06-26T06:53:46Z</time>
      </trkpt>
      <trkpt lat="46.5729" lon="6.04804">
        <ele>1032</ele>
        <time>2016-06-26T06:53:49Z</time>
      </trkpt>
      <trkpt lat="46.57308" lon="6.04822">
        <ele>1031</ele>
        <time>2016-06-26T06:53:52Z</time>
      </trkpt>
      <trkpt lat="46.57329" lon="6.04833">
        <ele>1028</ele>
        <time>2016-06-26T06:53:55Z</time>
      </trkpt>
      <trkpt lat="46.57349" lon="6.04831">
        <ele>1027</ele>
        <time>2016-06-26T06:53:58Z</time>
      </trkpt>
      <trkpt lat="46.57369" lon="6.04833">
        <ele>1026</ele>
        <time>2016-06-26T06:54:01Z</time>
      </trkpt>
      <trkpt lat="46.57389" lon="6.04838">
        <ele>1027</ele>
        <time>2016-06-26T06:54:04Z</time>
      </trkpt>
      <trkpt lat="46.5741" lon="6.04848">
        <ele>1027</ele>
        <time>2016-06-26T06:54:07Z</time>
      </trkpt>
      <trkpt lat="46.57428" lon="6.04862">
        <ele>1024</ele>
        <time>2016-06-26T06:54:09Z</time>
      </trkpt>
      <trkpt lat="46.57443" lon="6.04883">
        <ele>1022</ele>
        <time>2016-06-26T06:54:11Z</time>
      </trkpt>
      <trkpt lat="46.5746" lon="6.04897">
        <ele>1022</ele>
        <time>2016-06-26T06:54:13Z</time>
      </trkpt>
      <trkpt lat="46.57478" lon="6.0491">
        <ele>1020</ele>
        <time>2016-06-26T06:54:15Z</time>
      </trkpt>
      <trkpt lat="46.57494" lon="6.04926">
        <ele>1019</ele>
        <time>2016-06-26T06:54:17Z</time>
      </trkpt>
      <trkpt lat="46.57517" lon="6.0494">
        <ele>1018</ele>
        <time>2016-06-26T06:54:20Z</time>
      </trkpt>
      <trkpt lat="46.57533" lon="6.04957">
        <ele>1019</ele>
        <time>2016-06-26T06:54:23Z</time>
      </trkpt>
      <trkpt lat="46.57551" lon="6.04977">
        <ele>1019</ele>
        <time>2016-06-26T06:54:27Z</time>
      </trkpt>
      <trkpt lat="46.57567" lon="6.04991">
        <ele>1019</ele>
        <time>2016-06-26T06:54:34Z</time>
      </trkpt>
      <trkpt lat="46.57581" lon="6.05008">
        <ele>1019</ele>
        <time>2016-06-26T06:54:43Z</time>
      </trkpt>
      <trkpt lat="46.57593" lon="6.0503">
        <ele>1021</ele>
        <time>2016-06-26T06:54:53Z</time>
      </trkpt>
      <trkpt lat="46.57606" lon="6.0505">
        <ele>1022</ele>
        <time>2016-06-26T06:55:02Z</time>
      </trkpt>
      <trkpt lat="46.5762" lon="6.05066">
        <ele>1022</ele>
        <time>2016-06-26T06:55:11Z</time>
      </trkpt>
      <trkpt lat="46.57638" lon="6.05079">
        <ele>1023</ele>
        <time>2016-06-26T06:55:20Z</time>
      </trkpt>
      <trkpt lat="46.57654" lon="6.05091">
        <ele>1025</ele>
        <time>2016-06-26T06:55:29Z</time>
      </trkpt>
      <trkpt lat="46.57671" lon="6.05102">
        <ele>1028</ele>
        <time>2016-06-26T06:55:41Z</time>
      </trkpt>
      <trkpt lat="46.5768" lon="6.05127">
        <ele>1030</ele>
        <time>2016-06-26T06:55:52Z</time>
      </trkpt>
      <trkpt lat="46.57691" lon="6.05149">
        <ele>1031</ele>
        <time>2016-06-26T06:56:06Z</time>
      </trkpt>
      <trkpt lat="46.57707" lon="6.05164">
        <ele>1033</ele>
        <time>2016-06-26T06:56:21Z</time>
      </trkpt>
      <trkpt lat="46.57724" lon="6.05171">
        <ele>1038</ele>
        <time>2016-06-26T06:56:38Z</time>
      </trkpt>
      <trkpt lat="46.57741" lon="6.05179">
        <ele>1039</ele>
        <time>2016-06-26T06:56:55Z</time>
      </trkpt>
      <trkpt lat="46.57757" lon="6.05193">
        <ele>1043</ele>
        <time>2016-06-26T06:57:12Z</time>
      </trkpt>
      <trkpt lat="46.57772" lon="6.05206">
        <ele>1044</ele>
        <time>2016-06-26T06:57:30Z</time>
      </trkpt>
      <trkpt lat="46.57789" lon="6.05218">
        <ele>1044</ele>
        <time>2016-06-26T06:57:46Z</time>
      </trkpt>
      <trkpt lat="46.57807" lon="6.05227">
        <ele>1045</ele>
        <time>2016-06-26T06:58:01Z</time>
      </trkpt>
      <trkpt lat="46.57826" lon="6.05236">
        <ele>1046</ele>
        <time>2016-06-26T06:58:14Z</time>
      </trkpt>
      <trkpt lat="46.57845" lon="6.0524">
        <ele>1049</ele>
        <time>2016-06-26T06:58:19Z</time>
      </trkpt>
      <trkpt lat="46.57864" lon="6.05245">
        <ele>1051</ele>
        <time>2016-06-26T06:58:23Z</time>
      </trkpt>
      <trkpt lat="46.5788" lon="6.05264">
        <ele>1052</ele>
        <time>2016-06-26T06:58:28Z</time>
      </trkpt>
      <trkpt lat="46.57881" lon="6.05291">
        <ele>1052</ele>
        <time>2016-06-26T06:58:33Z</time>
      </trkpt>
      <trkpt lat="46.57867" lon="6.05311">
        <ele>1051</ele>
        <time>2016-06-26T06:58:38Z</time>
      </trkpt>
      <trkpt lat="46.57851" lon="6.05326">
        <ele>1050</ele>
        <time>2016-06-26T06:58:43Z</time>
      </trkpt>
      <trkpt lat="46.57837" lon="6.05347">
        <ele>1051</ele>
        <time>2016-06-26T06:58:54Z</time>
      </trkpt>
      <trkpt lat="46.57828" lon="6.05379">
        <ele>1048</ele>
        <time>2016-06-26T06:58:58Z</time>
      </trkpt>
      <trkpt lat="46.57825" lon="6.05412">
        <ele>1050</ele>
        <time>2016-06-26T06:59:02Z</time>
      </trkpt>
      <trkpt lat="46.57824" lon="6.0544">
        <ele>1051</ele>
        <time>2016-06-26T06:59:06Z</time>
      </trkpt>
      <trkpt lat="46.57819" lon="6.05468">
        <ele>1051</ele>
        <time>2016-06-26T06:59:11Z</time>
      </trkpt>
      <trkpt lat="46.57807" lon="6.05487">
        <ele>1052</ele>
        <time>2016-06-26T06:59:15Z</time>
      </trkpt>
      <trkpt lat="46.57795" lon="6.05509">
        <ele>1054</ele>
        <time>2016-06-26T06:59:20Z</time>
      </trkpt>
      <trkpt lat="46.57812" lon="6.05521">
        <ele>1055</ele>
        <time>2016-06-26T06:59:35Z</time>
      </trkpt>
      <trkpt lat="46.57825" lon="6.05542">
        <ele>1056</ele>
        <time>2016-06-26T06:59:49Z</time>
      </trkpt>
      <trkpt lat="46.57836" lon="6.05563">
        <ele>1061</ele>
        <time>2016-06-26T07:00:03Z</time>
      </trkpt>
      <trkpt lat="46.57851" lon="6.0558">
        <ele>1061</ele>
        <time>2016-06-26T07:00:18Z</time>
      </trkpt>
      <trkpt lat="46.57856" lon="6.05608">
        <ele>1063</ele>
        <time>2016-06-26T07:00:34Z</time>
      </trkpt>
      <trkpt lat="46.57862" lon="6.05637">
        <ele>1064</ele>
        <time>2016-06-26T07:00:44Z</time>
      </trkpt>
      <trkpt lat="46.57858" lon="6.05664">
        <ele>1064</ele>
        <time>2016-06-26T07:00:55Z</time>
      </trkpt>
      <trkpt lat="46.57869" lon="6.05686">
        <ele>1067</ele>
        <time>2016-06-26T07:01:10Z</time>
      </trkpt>
      <trkpt lat="46.57872" lon="6.05712">
        <ele>1068</ele>
        <time>2016-06-26T07:01:27Z</time>
      </trkpt>
      <trkpt lat="46.57878" lon="6.05738">
        <ele>1069</ele>
        <time>2016-06-26T07:01:37Z</time>
      </trkpt>
      <trkpt lat="46.57885" lon="6.05764">
        <ele>1072</ele>
        <time>2016-06-26T07:01:52Z</time>
      </trkpt>
      <trkpt lat="46.57893" lon="6.05788">
        <ele>1073</ele>
        <time>2016-06-26T07:02:03Z</time>
      </trkpt>
      <trkpt lat="46.57899" lon="6.05814">
        <ele>1074</ele>
        <time>2016-06-26T07:02:17Z</time>
      </trkpt>
      <trkpt lat="46.57904" lon="6.05839">
        <ele>1076</ele>
        <time>2016-06-26T07:02:26Z</time>
      </trkpt>
      <trkpt lat="46.5791" lon="6.05866">
        <ele>1077</ele>
        <time>2016-06-26T07:02:37Z</time>
      </trkpt>
      <trkpt lat="46.57911" lon="6.05892">
        <ele>1078</ele>
        <time>2016-06-26T07:02:49Z</time>
      </trkpt>
      <trkpt lat="46.5792" lon="6.05915">
        <ele>1078</ele>
        <time>2016-06-26T07:03:01Z</time>
      </trkpt>
      <trkpt lat="46.57932" lon="6.05935">
        <ele>1081</ele>
        <time>2016-06-26T07:03:13Z</time>
      </trkpt>
      <trkpt lat="46.57942" lon="6.05958">
        <ele>1082</ele>
        <time>2016-06-26T07:03:30Z</time>
      </trkpt>
      <trkpt lat="46.57955" lon="6.05977">
        <ele>1082</ele>
        <time>2016-06-26T07:03:47Z</time>
      </trkpt>
      <trkpt lat="46.57965" lon="6.06002">
        <ele>1086</ele>
        <time>2016-06-26T07:04:06Z</time>
      </trkpt>
      <trkpt lat="46.57974" lon="6.06024">
        <ele>1087</ele>
        <time>2016-06-26T07:04:24Z</time>
      </trkpt>
      <trkpt lat="46.57982" lon="6.06048">
        <ele>1088</ele>
        <time>2016-06-26T07:04:36Z</time>
      </trkpt>
      <trkpt lat="46.57989" lon="6.06074">
        <ele>1089</ele>
        <time>2016-06-26T07:04:46Z</time>
      </trkpt>
      <trkpt lat="46.57996" lon="6.06101">
        <ele>1092</ele>
        <time>2016-06-26T07:04:57Z</time>
      </trkpt>
      <trkpt lat="46.57992" lon="6.06128">
        <ele>1093</ele>
        <time>2016-06-26T07:05:11Z</time>
      </trkpt>
      <trkpt lat="46.57996" lon="6.06154">
        <ele>1094</ele>
        <time>2016-06-26T07:05:23Z</time>
      </trkpt>
      <trkpt lat="46.57983" lon="6.06176">
        <ele>1097</ele>
        <time>2016-06-26T07:05:38Z</time>
      </trkpt>
      <trkpt lat="46.57971" lon="6.06196">
        <ele>1098</ele>
        <time>2016-06-26T07:05:49Z</time>
      </trkpt>
      <trkpt lat="46.5796" lon="6.06218">
        <ele>1098</ele>
        <time>2016-06-26T07:06:02Z</time>
      </trkpt>
      <trkpt lat="46.57951" lon="6.06242">
        <ele>1099</ele>
        <time>2016-06-26T07:06:15Z</time>
      </trkpt>
      <trkpt lat="46.57958" lon="6.06267">
        <ele>1100</ele>
        <time>2016-06-26T07:06:25Z</time>
      </trkpt>
      <trkpt lat="46.57964" lon="6.06292">
        <ele>1100</ele>
        <time>2016-06-26T07:06:35Z</time>
      </trkpt>
      <trkpt lat="46.57971" lon="6.06318">
        <ele>1100</ele>
        <time>2016-06-26T07:06:46Z</time>
      </trkpt>
      <trkpt lat="46.5798" lon="6.06344">
        <ele>1101</ele>
        <time>2016-06-26T07:07:38Z</time>
      </trkpt>
      <trkpt lat="46.57993" lon="6.06362">
        <ele>1102</ele>
        <time>2016-06-26T07:07:46Z</time>
      </trkpt>
      <trkpt lat="46.58005" lon="6.06383">
        <ele>1100</ele>
        <time>2016-06-26T07:07:55Z</time>
      </trkpt>
      <trkpt lat="46.58013" lon="6.06408">
        <ele>1100</ele>
        <time>2016-06-26T07:08:03Z</time>
      </trkpt>
      <trkpt lat="46.5802" lon="6.06433">
        <ele>1100</ele>
        <time>2016-06-26T07:08:17Z</time>
      </trkpt>
      <trkpt lat="46.58033" lon="6.06455">
        <ele>1100</ele>
        <time>2016-06-26T07:08:27Z</time>
      </trkpt>
      <trkpt lat="46.58045" lon="6.06478">
        <ele>1100</ele>
        <time>2016-06-26T07:08:35Z</time>
      </trkpt>
      <trkpt lat="46.58042" lon="6.06506">
        <ele>1101</ele>
        <time>2016-06-26T07:08:45Z</time>
      </trkpt>
      <trkpt lat="46.58058" lon="6.06524">
        <ele>1101</ele>
        <time>2016-06-26T07:08:56Z</time>
      </trkpt>
      <trkpt lat="46.58071" lon="6.06541">
        <ele>1101</ele>
        <time>2016-06-26T07:09:06Z</time>
      </trkpt>
      <trkpt lat="46.58079" lon="6.06565">
        <ele>1102</ele>
        <time>2016-06-26T07:09:22Z</time>
      </trkpt>
      <trkpt lat="46.58095" lon="6.06583">
        <ele>1104</ele>
        <time>2016-06-26T07:09:33Z</time>
      </trkpt>
      <trkpt lat="46.5811" lon="6.066">
        <ele>1104</ele>
        <time>2016-06-26T07:09:42Z</time>
      </trkpt>
      <trkpt lat="46.58121" lon="6.06622">
        <ele>1105</ele>
        <time>2016-06-26T07:09:55Z</time>
      </trkpt>
      <trkpt lat="46.58131" lon="6.06643">
        <ele>1106</ele>
        <time>2016-06-26T07:10:07Z</time>
      </trkpt>
      <trkpt lat="46.5815" lon="6.06647">
        <ele>1106</ele>
        <time>2016-06-26T07:10:23Z</time>
      </trkpt>
      <trkpt lat="46.58167" lon="6.06638">
        <ele>1103</ele>
        <time>2016-06-26T07:10:31Z</time>
      </trkpt>
      <trkpt lat="46.58186" lon="6.06632">
        <ele>1102</ele>
        <time>2016-06-26T07:10:35Z</time>
      </trkpt>
      <trkpt lat="46.58205" lon="6.06631">
        <ele>1102</ele>
        <time>2016-06-26T07:10:39Z</time>
      </trkpt>
      <trkpt lat="46.58225" lon="6.06631">
        <ele>1101</ele>
        <time>2016-06-26T07:10:49Z</time>
      </trkpt>
      <trkpt lat="46.5824" lon="6.06616">
        <ele>1100</ele>
        <time>2016-06-26T07:11:06Z</time>
      </trkpt>
      <trkpt lat="46.58256" lon="6.06597">
        <ele>1097</ele>
        <time>2016-06-26T07:11:13Z</time>
      </trkpt>
      <trkpt lat="46.58273" lon="6.06577">
        <ele>1094</ele>
        <time>2016-06-26T07:11:17Z</time>
      </trkpt>
      <trkpt lat="46.58288" lon="6.06556">
        <ele>1094</ele>
        <time>2016-06-26T07:11:21Z</time>
      </trkpt>
      <trkpt lat="46.58304" lon="6.06531">
        <ele>1094</ele>
        <time>2016-06-26T07:11:26Z</time>
      </trkpt>
      <trkpt lat="46.58317" lon="6.06513">
        <ele>1095</ele>
        <time>2016-06-26T07:11:36Z</time>
      </trkpt>
      <trkpt lat="46.5833" lon="6.06492">
        <ele>1096</ele>
        <time>2016-06-26T07:11:49Z</time>
      </trkpt>
      <trkpt lat="46.58348" lon="6.06494">
        <ele>1100</ele>
        <time>2016-06-26T07:12:05Z</time>
      </trkpt>
      <trkpt lat="46.58365" lon="6.06507">
        <ele>1102</ele>
        <time>2016-06-26T07:12:22Z</time>
      </trkpt>
      <trkpt lat="46.58383" lon="6.06508">
        <ele>1104</ele>
        <time>2016-06-26T07:12:37Z</time>
      </trkpt>
      <trkpt lat="46.58401" lon="6.06515">
        <ele>1106</ele>
        <time>2016-06-26T07:12:58Z</time>
      </trkpt>
      <trkpt lat="46.5842" lon="6.06518">
        <ele>1108</ele>
        <time>2016-06-26T07:13:14Z</time>
      </trkpt>
      <trkpt lat="46.58438" lon="6.06519">
        <ele>1107</ele>
        <time>2016-06-26T07:13:33Z</time>
      </trkpt>
      <trkpt lat="46.58452" lon="6.06503">
        <ele>1106</ele>
        <time>2016-06-26T07:16:58Z</time>
      </trkpt>
      <trkpt lat="46.58462" lon="6.06481">
        <ele>1107</ele>
        <time>2016-06-26T07:17:13Z</time>
      </trkpt>
      <trkpt lat="46.58469" lon="6.06456">
        <ele>1106</ele>
        <time>2016-06-26T07:17:24Z</time>
      </trkpt>
      <trkpt lat="46.58474" lon="6.06431">
        <ele>1106</ele>
        <time>2016-06-26T07:17:34Z</time>
      </trkpt>
      <trkpt lat="46.58476" lon="6.06401">
        <ele>1107</ele>
        <time>2016-06-26T07:17:40Z</time>
      </trkpt>
      <trkpt lat="46.58474" lon="6.06372">
        <ele>1107</ele>
        <time>2016-06-26T07:17:46Z</time>
      </trkpt>
      <trkpt lat="46.58476" lon="6.06344">
        <ele>1107</ele>
        <time>2016-06-26T07:18:17Z</time>
      </trkpt>
      <trkpt lat="46.58477" lon="6.06317">
        <ele>1106</ele>
        <time>2016-06-26T07:18:24Z</time>
      </trkpt>
      <trkpt lat="46.58477" lon="6.06289">
        <ele>1106</ele>
        <time>2016-06-26T07:18:35Z</time>
      </trkpt>
      <trkpt lat="46.58481" lon="6.06262">
        <ele>1104</ele>
        <time>2016-06-26T07:18:42Z</time>
      </trkpt>
      <trkpt lat="46.58482" lon="6.06232">
        <ele>1102</ele>
        <time>2016-06-26T07:18:50Z</time>
      </trkpt>
      <trkpt lat="46.5848" lon="6.06201">
        <ele>1102</ele>
        <time>2016-06-26T07:18:58Z</time>
      </trkpt>
      <trkpt lat="46.58483" lon="6.06174">
        <ele>1101</ele>
        <time>2016-06-26T07:19:04Z</time>
      </trkpt>
      <trkpt lat="46.5849" lon="6.06146">
        <ele>1099</ele>
        <time>2016-06-26T07:19:11Z</time>
      </trkpt>
      <trkpt lat="46.58494" lon="6.06118">
        <ele>1098</ele>
        <time>2016-06-26T07:19:17Z</time>
      </trkpt>
      <trkpt lat="46.58498" lon="6.06092">
        <ele>1097</ele>
        <time>2016-06-26T07:19:23Z</time>
      </trkpt>
      <trkpt lat="46.58502" lon="6.06063">
        <ele>1092</ele>
        <time>2016-06-26T07:19:30Z</time>
      </trkpt>
      <trkpt lat="46.58506" lon="6.06032">
        <ele>1091</ele>
        <time>2016-06-26T07:19:37Z</time>
      </trkpt>
      <trkpt lat="46.58515" lon="6.06005">
        <ele>1091</ele>
        <time>2016-06-26T07:19:45Z</time>
      </trkpt>
      <trkpt lat="46.58534" lon="6.05999">
        <ele>1091</ele>
        <time>2016-06-26T07:19:54Z</time>
      </trkpt>
      <trkpt lat="46.58553" lon="6.06006">
        <ele>1089</ele>
        <time>2016-06-26T07:20:05Z</time>
      </trkpt>
      <trkpt lat="46.5857" lon="6.06023">
        <ele>1088</ele>
        <time>2016-06-26T07:20:09Z</time>
      </trkpt>
      <trkpt lat="46.58587" lon="6.06037">
        <ele>1086</ele>
        <time>2016-06-26T07:20:13Z</time>
      </trkpt>
      <trkpt lat="46.58606" lon="6.06043">
        <ele>1086</ele>
        <time>2016-06-26T07:20:19Z</time>
      </trkpt>
      <trkpt lat="46.58627" lon="6.06045">
        <ele>1086</ele>
        <time>2016-06-26T07:20:24Z</time>
      </trkpt>
      <trkpt lat="46.58638" lon="6.06067">
        <ele>1086</ele>
        <time>2016-06-26T07:22:18Z</time>
      </trkpt>
      <trkpt lat="46.58656" lon="6.06074">
        <ele>1086</ele>
        <time>2016-06-26T07:22:27Z</time>
      </trkpt>
      <trkpt lat="46.58675" lon="6.06077">
        <ele>1088</ele>
        <time>2016-06-26T07:22:35Z</time>
      </trkpt>
      <trkpt lat="46.58692" lon="6.06088">
        <ele>1088</ele>
        <time>2016-06-26T07:22:39Z</time>
      </trkpt>
      <trkpt lat="46.58706" lon="6.06106">
        <ele>1089</ele>
        <time>2016-06-26T07:22:43Z</time>
      </trkpt>
      <trkpt lat="46.58719" lon="6.0613">
        <ele>1089</ele>
        <time>2016-06-26T07:22:49Z</time>
      </trkpt>
      <trkpt lat="46.58732" lon="6.0615">
        <ele>1090</ele>
        <time>2016-06-26T07:22:58Z</time>
      </trkpt>
      <trkpt lat="46.58743" lon="6.06171">
        <ele>1091</ele>
        <time>2016-06-26T07:23:08Z</time>
      </trkpt>
      <trkpt lat="46.58753" lon="6.06194">
        <ele>1095</ele>
        <time>2016-06-26T07:23:17Z</time>
      </trkpt>
      <trkpt lat="46.58767" lon="6.06214">
        <ele>1096</ele>
        <time>2016-06-26T07:23:28Z</time>
      </trkpt>
      <trkpt lat="46.58783" lon="6.06228">
        <ele>1097</ele>
        <time>2016-06-26T07:23:40Z</time>
      </trkpt>
      <trkpt lat="46.588" lon="6.06237">
        <ele>1098</ele>
        <time>2016-06-26T07:23:54Z</time>
      </trkpt>
      <trkpt lat="46.58817" lon="6.06247">
        <ele>1100</ele>
        <time>2016-06-26T07:24:13Z</time>
      </trkpt>
      <trkpt lat="46.58833" lon="6.06263">
        <ele>1100</ele>
        <time>2016-06-26T07:24:32Z</time>
      </trkpt>
      <trkpt lat="46.58851" lon="6.06273">
        <ele>1103</ele>
        <time>2016-06-26T07:24:48Z</time>
      </trkpt>
      <trkpt lat="46.5887" lon="6.06279">
        <ele>1104</ele>
        <time>2016-06-26T07:25:03Z</time>
      </trkpt>
      <trkpt lat="46.58888" lon="6.06287">
        <ele>1104</ele>
        <time>2016-06-26T07:25:17Z</time>
      </trkpt>
      <trkpt lat="46.58907" lon="6.06291">
        <ele>1105</ele>
        <time>2016-06-26T07:25:24Z</time>
      </trkpt>
      <trkpt lat="46.58928" lon="6.06294">
        <ele>1107</ele>
        <time>2016-06-26T07:25:31Z</time>
      </trkpt>
      <trkpt lat="46.58953" lon="6.06296">
        <ele>1107</ele>
        <time>2016-06-26T07:25:37Z</time>
      </trkpt>
      <trkpt lat="46.58971" lon="6.06294">
        <ele>1108</ele>
        <time>2016-06-26T07:25:40Z</time>
      </trkpt>
      <trkpt lat="46.58993" lon="6.06297">
        <ele>1108</ele>
        <time>2016-06-26T07:25:43Z</time>
      </trkpt>
      <trkpt lat="46.59013" lon="6.06303">
        <ele>1109</ele>
        <time>2016-06-26T07:25:46Z</time>
      </trkpt>
      <trkpt lat="46.59028" lon="6.06317">
        <ele>1109</ele>
        <time>2016-06-26T07:25:49Z</time>
      </trkpt>
      <trkpt lat="46.59041" lon="6.06341">
        <ele>1107</ele>
        <time>2016-06-26T07:25:52Z</time>
      </trkpt>
      <trkpt lat="46.59051" lon="6.06371">
        <ele>1107</ele>
        <time>2016-06-26T07:25:56Z</time>
      </trkpt>
      <trkpt lat="46.59062" lon="6.06395">
        <ele>1107</ele>
        <time>2016-06-26T07:25:59Z</time>
      </trkpt>
      <trkpt lat="46.59078" lon="6.06418">
        <ele>1107</ele>
        <time>2016-06-26T07:26:03Z</time>
      </trkpt>
      <trkpt lat="46.59093" lon="6.06435">
        <ele>1106</ele>
        <time>2016-06-26T07:26:07Z</time>
      </trkpt>
      <trkpt lat="46.5911" lon="6.06449">
        <ele>1105</ele>
        <time>2016-06-26T07:26:12Z</time>
      </trkpt>
      <trkpt lat="46.59129" lon="6.06468">
        <ele>1105</ele>
        <time>2016-06-26T07:26:29Z</time>
      </trkpt>
      <trkpt lat="46.59138" lon="6.06499">
        <ele>1104</ele>
        <time>2016-06-26T07:26:32Z</time>
      </trkpt>
      <trkpt lat="46.59144" lon="6.0653">
        <ele>1104</ele>
        <time>2016-06-26T07:26:35Z</time>
      </trkpt>
      <trkpt lat="46.59152" lon="6.06555">
        <ele>1105</ele>
        <time>2016-06-26T07:26:38Z</time>
      </trkpt>
      <trkpt lat="46.59171" lon="6.06567">
        <ele>1106</ele>
        <time>2016-06-26T07:26:42Z</time>
      </trkpt>
      <trkpt lat="46.59189" lon="6.06578">
        <ele>1106</ele>
        <time>2016-06-26T07:26:47Z</time>
      </trkpt>
      <trkpt lat="46.59202" lon="6.06596">
        <ele>1109</ele>
        <time>2016-06-26T07:26:53Z</time>
      </trkpt>
      <trkpt lat="46.59216" lon="6.06617">
        <ele>1109</ele>
        <time>2016-06-26T07:27:02Z</time>
      </trkpt>
      <trkpt lat="46.59231" lon="6.06634">
        <ele>1110</ele>
        <time>2016-06-26T07:27:11Z</time>
      </trkpt>
      <trkpt lat="46.59248" lon="6.06646">
        <ele>1110</ele>
        <time>2016-06-26T07:27:19Z</time>
      </trkpt>
      <trkpt lat="46.59267" lon="6.06654">
        <ele>1111</ele>
        <time>2016-06-26T07:27:29Z</time>
      </trkpt>
      <trkpt lat="46.59284" lon="6.06663">
        <ele>1111</ele>
        <time>2016-06-26T07:27:40Z</time>
      </trkpt>
      <trkpt lat="46.59304" lon="6.06665">
        <ele>1112</ele>
        <time>2016-06-26T07:27:53Z</time>
      </trkpt>
      <trkpt lat="46.5932" lon="6.06651">
        <ele>1112</ele>
        <time>2016-06-26T07:28:08Z</time>
      </trkpt>
      <trkpt lat="46.59339" lon="6.06645">
        <ele>1116</ele>
        <time>2016-06-26T07:28:28Z</time>
      </trkpt>
      <trkpt lat="46.59357" lon="6.06648">
        <ele>1117</ele>
        <time>2016-06-26T07:28:45Z</time>
      </trkpt>
      <trkpt lat="46.59373" lon="6.06662">
        <ele>1118</ele>
        <time>2016-06-26T07:29:01Z</time>
      </trkpt>
      <trkpt lat="46.59388" lon="6.06678">
        <ele>1120</ele>
        <time>2016-06-26T07:29:16Z</time>
      </trkpt>
      <trkpt lat="46.59402" lon="6.06695">
        <ele>1120</ele>
        <time>2016-06-26T07:29:32Z</time>
      </trkpt>
      <trkpt lat="46.59415" lon="6.06714">
        <ele>1120</ele>
        <time>2016-06-26T07:33:07Z</time>
      </trkpt>
      <trkpt lat="46.59413" lon="6.0674">
        <ele>1121</ele>
        <time>2016-06-26T07:33:23Z</time>
      </trkpt>
      <trkpt lat="46.5941" lon="6.06776">
        <ele>1121</ele>
        <time>2016-06-26T07:33:27Z</time>
      </trkpt>
      <trkpt lat="46.59408" lon="6.06808">
        <ele>1120</ele>
        <time>2016-06-26T07:33:31Z</time>
      </trkpt>
      <trkpt lat="46.59422" lon="6.0683">
        <ele>1118</ele>
        <time>2016-06-26T07:33:35Z</time>
      </trkpt>
      <trkpt lat="46.59439" lon="6.06846">
        <ele>1115</ele>
        <time>2016-06-26T07:33:38Z</time>
      </trkpt>
      <trkpt lat="46.59459" lon="6.06851">
        <ele>1113</ele>
        <time>2016-06-26T07:33:44Z</time>
      </trkpt>
      <trkpt lat="46.59477" lon="6.06841">
        <ele>1111</ele>
        <time>2016-06-26T07:33:52Z</time>
      </trkpt>
      <trkpt lat="46.59495" lon="6.06824">
        <ele>1111</ele>
        <time>2016-06-26T07:33:58Z</time>
      </trkpt>
      <trkpt lat="46.59511" lon="6.06808">
        <ele>1108</ele>
        <time>2016-06-26T07:34:02Z</time>
      </trkpt>
      <trkpt lat="46.59527" lon="6.06794">
        <ele>1109</ele>
        <time>2016-06-26T07:34:07Z</time>
      </trkpt>
      <trkpt lat="46.59546" lon="6.0678">
        <ele>1108</ele>
        <time>2016-06-26T07:34:12Z</time>
      </trkpt>
      <trkpt lat="46.5956" lon="6.06761">
        <ele>1107</ele>
        <time>2016-06-26T07:34:18Z</time>
      </trkpt>
      <trkpt lat="46.59573" lon="6.06737">
        <ele>1111</ele>
        <time>2016-06-26T07:34:25Z</time>
      </trkpt>
      <trkpt lat="46.59587" lon="6.06715">
        <ele>1110</ele>
        <time>2016-06-26T07:34:30Z</time>
      </trkpt>
      <trkpt lat="46.59604" lon="6.06702">
        <ele>1111</ele>
        <time>2016-06-26T07:34:33Z</time>
      </trkpt>
      <trkpt lat="46.59624" lon="6.0671">
        <ele>1111</ele>
        <time>2016-06-26T07:34:39Z</time>
      </trkpt>
      <trkpt lat="46.59634" lon="6.06734">
        <ele>1109</ele>
        <time>2016-06-26T07:34:52Z</time>
      </trkpt>
      <trkpt lat="46.5964" lon="6.0676">
        <ele>1105</ele>
        <time>2016-06-26T07:35:05Z</time>
      </trkpt>
      <trkpt lat="46.59647" lon="6.06787">
        <ele>1104</ele>
        <time>2016-06-26T07:35:19Z</time>
      </trkpt>
      <trkpt lat="46.59644" lon="6.06814">
        <ele>1103</ele>
        <time>2016-06-26T07:35:31Z</time>
      </trkpt>
      <trkpt lat="46.59637" lon="6.06838">
        <ele>1100</ele>
        <time>2016-06-26T07:35:46Z</time>
      </trkpt>
      <trkpt lat="46.59626" lon="6.06861">
        <ele>1099</ele>
        <time>2016-06-26T07:35:59Z</time>
      </trkpt>
      <trkpt lat="46.59628" lon="6.06888">
        <ele>1098</ele>
        <time>2016-06-26T07:36:12Z</time>
      </trkpt>
      <trkpt lat="46.59639" lon="6.06909">
        <ele>1098</ele>
        <time>2016-06-26T07:36:49Z</time>
      </trkpt>
      <trkpt lat="46.59657" lon="6.06915">
        <ele>1098</ele>
        <time>2016-06-26T07:37:10Z</time>
      </trkpt>
      <trkpt lat="46.59675" lon="6.06913">
        <ele>1099</ele>
        <time>2016-06-26T07:37:29Z</time>
      </trkpt>
      <trkpt lat="46.59695" lon="6.06921">
        <ele>1097</ele>
        <time>2016-06-26T07:38:00Z</time>
      </trkpt>
      <trkpt lat="46.59712" lon="6.06931">
        <ele>1098</ele>
        <time>2016-06-26T07:38:18Z</time>
      </trkpt>
      <trkpt lat="46.59724" lon="6.06952">
        <ele>1097</ele>
        <time>2016-06-26T07:38:32Z</time>
      </trkpt>
      <trkpt lat="46.59741" lon="6.06961">
        <ele>1096</ele>
        <time>2016-06-26T07:39:03Z</time>
      </trkpt>
      <trkpt lat="46.59759" lon="6.0697">
        <ele>1096</ele>
        <time>2016-06-26T07:39:36Z</time>
      </trkpt>
      <trkpt lat="46.59776" lon="6.06978">
        <ele>1096</ele>
        <time>2016-06-26T07:39:53Z</time>
      </trkpt>
      <trkpt lat="46.59778" lon="6.07005">
        <ele>1089</ele>
        <time>2016-06-26T07:40:38Z</time>
      </trkpt>
      <trkpt lat="46.59765" lon="6.07024">
        <ele>1089</ele>
        <time>2016-06-26T07:40:46Z</time>
      </trkpt>
      <trkpt lat="46.59752" lon="6.07043">
        <ele>1088</ele>
        <time>2016-06-26T07:41:39Z</time>
      </trkpt>
      <trkpt lat="46.5974" lon="6.07063">
        <ele>1088</ele>
        <time>2016-06-26T07:41:49Z</time>
      </trkpt>
      <trkpt lat="46.59726" lon="6.07085">
        <ele>1087</ele>
        <time>2016-06-26T07:41:58Z</time>
      </trkpt>
      <trkpt lat="46.59706" lon="6.07116">
        <ele>1089</ele>
        <time>2016-06-26T07:42:18Z</time>
      </trkpt>
      <trkpt lat="46.59693" lon="6.07134">
        <ele>1090</ele>
        <time>2016-06-26T07:42:33Z</time>
      </trkpt>
      <trkpt lat="46.59684" lon="6.07158">
        <ele>1091</ele>
        <time>2016-06-26T07:42:47Z</time>
      </trkpt>
      <trkpt lat="46.59673" lon="6.07179">
        <ele>1092</ele>
        <time>2016-06-26T07:43:01Z</time>
      </trkpt>
      <trkpt lat="46.59662" lon="6.07202">
        <ele>1098</ele>
        <time>2016-06-26T07:43:17Z</time>
      </trkpt>
      <trkpt lat="46.59653" lon="6.07225">
        <ele>1099</ele>
        <time>2016-06-26T07:43:33Z</time>
      </trkpt>
      <trkpt lat="46.59644" lon="6.07249">
        <ele>1099</ele>
        <time>2016-06-26T07:43:47Z</time>
      </trkpt>
      <trkpt lat="46.59633" lon="6.07272">
        <ele>1101</ele>
        <time>2016-06-26T07:44:01Z</time>
      </trkpt>
      <trkpt lat="46.59623" lon="6.07296">
        <ele>1102</ele>
        <time>2016-06-26T07:44:13Z</time>
      </trkpt>
      <trkpt lat="46.59614" lon="6.07318">
        <ele>1103</ele>
        <time>2016-06-26T07:44:23Z</time>
      </trkpt>
      <trkpt lat="46.59604" lon="6.07342">
        <ele>1104</ele>
        <time>2016-06-26T07:44:33Z</time>
      </trkpt>
      <trkpt lat="46.59593" lon="6.07363">
        <ele>1104</ele>
        <time>2016-06-26T07:44:42Z</time>
      </trkpt>
      <trkpt lat="46.59579" lon="6.07382">
        <ele>1109</ele>
        <time>2016-06-26T07:44:51Z</time>
      </trkpt>
      <trkpt lat="46.59567" lon="6.07405">
        <ele>1110</ele>
        <time>2016-06-26T07:44:59Z</time>
      </trkpt>
      <trkpt lat="46.5957" lon="6.07432">
        <ele>1111</ele>
        <time>2016-06-26T07:45:06Z</time>
      </trkpt>
      <trkpt lat="46.59586" lon="6.07442">
        <ele>1106</ele>
        <time>2016-06-26T07:45:12Z</time>
      </trkpt>
      <trkpt lat="46.59606" lon="6.07454">
        <ele>1104</ele>
        <time>2016-06-26T07:45:15Z</time>
      </trkpt>
      <trkpt lat="46.59625" lon="6.07475">
        <ele>1103</ele>
        <time>2016-06-26T07:45:18Z</time>
      </trkpt>
      <trkpt lat="46.59644" lon="6.07487">
        <ele>1101</ele>
        <time>2016-06-26T07:45:21Z</time>
      </trkpt>
      <trkpt lat="46.59645" lon="6.07515">
        <ele>1100</ele>
        <time>2016-06-26T07:45:27Z</time>
      </trkpt>
      <trkpt lat="46.59637" lon="6.0754">
        <ele>1101</ele>
        <time>2016-06-26T07:45:36Z</time>
      </trkpt>
      <trkpt lat="46.59629" lon="6.07566">
        <ele>1101</ele>
        <time>2016-06-26T07:45:49Z</time>
      </trkpt>
      <trkpt lat="46.59616" lon="6.07585">
        <ele>1100</ele>
        <time>2016-06-26T07:46:04Z</time>
      </trkpt>
      <trkpt lat="46.59603" lon="6.07604">
        <ele>1100</ele>
        <time>2016-06-26T07:46:20Z</time>
      </trkpt>
      <trkpt lat="46.5959" lon="6.07622">
        <ele>1100</ele>
        <time>2016-06-26T07:46:35Z</time>
      </trkpt>
      <trkpt lat="46.59577" lon="6.07641">
        <ele>1105</ele>
        <time>2016-06-26T07:46:50Z</time>
      </trkpt>
      <trkpt lat="46.59567" lon="6.07663">
        <ele>1104</ele>
        <time>2016-06-26T07:47:05Z</time>
      </trkpt>
      <trkpt lat="46.59556" lon="6.07685">
        <ele>1104</ele>
        <time>2016-06-26T07:47:19Z</time>
      </trkpt>
      <trkpt lat="46.59547" lon="6.0771">
        <ele>1104</ele>
        <time>2016-06-26T07:47:27Z</time>
      </trkpt>
      <trkpt lat="46.5954" lon="6.07736">
        <ele>1105</ele>
        <time>2016-06-26T07:47:33Z</time>
      </trkpt>
      <trkpt lat="46.59532" lon="6.0777">
        <ele>1106</ele>
        <time>2016-06-26T07:47:38Z</time>
      </trkpt>
      <trkpt lat="46.59525" lon="6.07795">
        <ele>1106</ele>
        <time>2016-06-26T07:47:41Z</time>
      </trkpt>
      <trkpt lat="46.59515" lon="6.07821">
        <ele>1107</ele>
        <time>2016-06-26T07:47:44Z</time>
      </trkpt>
      <trkpt lat="46.59504" lon="6.07859">
        <ele>1107</ele>
        <time>2016-06-26T07:47:47Z</time>
      </trkpt>
      <trkpt lat="46.59492" lon="6.07892">
        <ele>1109</ele>
        <time>2016-06-26T07:47:52Z</time>
      </trkpt>
      <trkpt lat="46.59475" lon="6.07901">
        <ele>1109</ele>
        <time>2016-06-26T07:47:57Z</time>
      </trkpt>
      <trkpt lat="46.59457" lon="6.0791">
        <ele>1109</ele>
        <time>2016-06-26T07:48:06Z</time>
      </trkpt>
      <trkpt lat="46.59438" lon="6.07911">
        <ele>1109</ele>
        <time>2016-06-26T07:48:17Z</time>
      </trkpt>
      <trkpt lat="46.5942" lon="6.07902">
        <ele>1108</ele>
        <time>2016-06-26T07:48:27Z</time>
      </trkpt>
      <trkpt lat="46.59401" lon="6.07895">
        <ele>1107</ele>
        <time>2016-06-26T07:48:35Z</time>
      </trkpt>
      <trkpt lat="46.59382" lon="6.0789">
        <ele>1107</ele>
        <time>2016-06-26T07:48:43Z</time>
      </trkpt>
      <trkpt lat="46.59364" lon="6.07881">
        <ele>1106</ele>
        <time>2016-06-26T07:48:49Z</time>
      </trkpt>
      <trkpt lat="46.59353" lon="6.07857">
        <ele>1106</ele>
        <time>2016-06-26T07:48:56Z</time>
      </trkpt>
      <trkpt lat="46.59339" lon="6.0784">
        <ele>1106</ele>
        <time>2016-06-26T07:49:04Z</time>
      </trkpt>
      <trkpt lat="46.5932" lon="6.07828">
        <ele>1104</ele>
        <time>2016-06-26T07:49:10Z</time>
      </trkpt>
      <trkpt lat="46.59303" lon="6.07815">
        <ele>1104</ele>
        <time>2016-06-26T07:49:20Z</time>
      </trkpt>
      <trkpt lat="46.59286" lon="6.07809">
        <ele>1103</ele>
        <time>2016-06-26T07:49:33Z</time>
      </trkpt>
      <trkpt lat="46.59271" lon="6.07825">
        <ele>1103</ele>
        <time>2016-06-26T07:49:49Z</time>
      </trkpt>
      <trkpt lat="46.59263" lon="6.07851">
        <ele>1101</ele>
        <time>2016-06-26T07:49:57Z</time>
      </trkpt>
      <trkpt lat="46.59247" lon="6.07866">
        <ele>1098</ele>
        <time>2016-06-26T07:50:10Z</time>
      </trkpt>
      <trkpt lat="46.59241" lon="6.0789">
        <ele>1097</ele>
        <time>2016-06-26T07:50:17Z</time>
      </trkpt>
      <trkpt lat="46.59238" lon="6.07917">
        <ele>1096</ele>
        <time>2016-06-26T07:50:27Z</time>
      </trkpt>
      <trkpt lat="46.59235" lon="6.07947">
        <ele>1097</ele>
        <time>2016-06-26T07:50:38Z</time>
      </trkpt>
      <trkpt lat="46.59224" lon="6.08044">
        <ele>1098</ele>
        <time>2016-06-26T07:50:55Z</time>
      </trkpt>
      <trkpt lat="46.59211" lon="6.08062">
        <ele>1098</ele>
        <time>2016-06-26T07:51:13Z</time>
      </trkpt>
      <trkpt lat="46.59203" lon="6.08087">
        <ele>1098</ele>
        <time>2016-06-26T07:52:09Z</time>
      </trkpt>
      <trkpt lat="46.59197" lon="6.08114">
        <ele>1098</ele>
        <time>2016-06-26T07:52:21Z</time>
      </trkpt>
      <trkpt lat="46.59197" lon="6.08141">
        <ele>1098</ele>
        <time>2016-06-26T07:52:33Z</time>
      </trkpt>
      <trkpt lat="46.59194" lon="6.08167">
        <ele>1099</ele>
        <time>2016-06-26T07:52:45Z</time>
      </trkpt>
      <trkpt lat="46.59202" lon="6.0819">
        <ele>1099</ele>
        <time>2016-06-26T07:52:58Z</time>
      </trkpt>
      <trkpt lat="46.59217" lon="6.08205">
        <ele>1098</ele>
        <time>2016-06-26T07:53:26Z</time>
      </trkpt>
      <trkpt lat="46.59231" lon="6.08221">
        <ele>1098</ele>
        <time>2016-06-26T07:54:03Z</time>
      </trkpt>
      <trkpt lat="46.59236" lon="6.08248">
        <ele>1098</ele>
        <time>2016-06-26T07:54:18Z</time>
      </trkpt>
      <trkpt lat="46.59238" lon="6.08275">
        <ele>1097</ele>
        <time>2016-06-26T07:54:29Z</time>
      </trkpt>
      <trkpt lat="46.59241" lon="6.08302">
        <ele>1097</ele>
        <time>2016-06-26T07:54:39Z</time>
      </trkpt>
      <trkpt lat="46.59248" lon="6.08328">
        <ele>1096</ele>
        <time>2016-06-26T07:54:47Z</time>
      </trkpt>
      <trkpt lat="46.5925" lon="6.08355">
        <ele>1096</ele>
        <time>2016-06-26T07:54:58Z</time>
      </trkpt>
      <trkpt lat="46.59249" lon="6.08383">
        <ele>1097</ele>
        <time>2016-06-26T07:55:12Z</time>
      </trkpt>
      <trkpt lat="46.59245" lon="6.0841">
        <ele>1096</ele>
        <time>2016-06-26T07:55:28Z</time>
      </trkpt>
      <trkpt lat="46.59239" lon="6.08434">
        <ele>1097</ele>
        <time>2016-06-26T07:55:46Z</time>
      </trkpt>
      <trkpt lat="46.5923" lon="6.08458">
        <ele>1098</ele>
        <time>2016-06-26T07:56:09Z</time>
      </trkpt>
      <trkpt lat="46.59227" lon="6.08485">
        <ele>1098</ele>
        <time>2016-06-26T07:56:34Z</time>
      </trkpt>
      <trkpt lat="46.59217" lon="6.08508">
        <ele>1098</ele>
        <time>2016-06-26T07:56:45Z</time>
      </trkpt>
      <trkpt lat="46.59211" lon="6.08533">
        <ele>1099</ele>
        <time>2016-06-26T07:57:04Z</time>
      </trkpt>
      <trkpt lat="46.59206" lon="6.08559">
        <ele>1099</ele>
        <time>2016-06-26T07:57:21Z</time>
      </trkpt>
      <trkpt lat="46.59201" lon="6.08584">
        <ele>1100</ele>
        <time>2016-06-26T07:57:32Z</time>
      </trkpt>
      <trkpt lat="46.59192" lon="6.08607">
        <ele>1100</ele>
        <time>2016-06-26T07:57:55Z</time>
      </trkpt>
      <trkpt lat="46.59191" lon="6.08635">
        <ele>1100</ele>
        <time>2016-06-26T07:58:12Z</time>
      </trkpt>
      <trkpt lat="46.59188" lon="6.08662">
        <ele>1100</ele>
        <time>2016-06-26T07:58:35Z</time>
      </trkpt>
      <trkpt lat="46.59179" lon="6.08688">
        <ele>1099</ele>
        <time>2016-06-26T07:58:47Z</time>
      </trkpt>
      <trkpt lat="46.59177" lon="6.08715">
        <ele>1098</ele>
        <time>2016-06-26T07:58:55Z</time>
      </trkpt>
      <trkpt lat="46.59173" lon="6.08742">
        <ele>1098</ele>
        <time>2016-06-26T07:59:07Z</time>
      </trkpt>
      <trkpt lat="46.59161" lon="6.08764">
        <ele>1098</ele>
        <time>2016-06-26T07:59:19Z</time>
      </trkpt>
      <trkpt lat="46.59158" lon="6.0879">
        <ele>1097</ele>
        <time>2016-06-26T07:59:29Z</time>
      </trkpt>
      <trkpt lat="46.59143" lon="6.08806">
        <ele>1097</ele>
        <time>2016-06-26T07:59:52Z</time>
      </trkpt>
      <trkpt lat="46.59144" lon="6.08832">
        <ele>1096</ele>
        <time>2016-06-26T08:00:17Z</time>
      </trkpt>
      <trkpt lat="46.59133" lon="6.08855">
        <ele>1094</ele>
        <time>2016-06-26T08:01:35Z</time>
      </trkpt>
      <trkpt lat="46.59139" lon="6.08882">
        <ele>1093</ele>
        <time>2016-06-26T08:01:47Z</time>
      </trkpt>
      <trkpt lat="46.59148" lon="6.08908">
        <ele>1091</ele>
        <time>2016-06-26T08:01:57Z</time>
      </trkpt>
      <trkpt lat="46.59152" lon="6.08937">
        <ele>1088</ele>
        <time>2016-06-26T08:02:05Z</time>
      </trkpt>
      <trkpt lat="46.59155" lon="6.08964">
        <ele>1088</ele>
        <time>2016-06-26T08:02:17Z</time>
      </trkpt>
      <trkpt lat="46.59171" lon="6.08986">
        <ele>1082</ele>
        <time>2016-06-26T08:02:41Z</time>
      </trkpt>
      <trkpt lat="46.59188" lon="6.09">
        <ele>1081</ele>
        <time>2016-06-26T08:02:50Z</time>
      </trkpt>
      <trkpt lat="46.59206" lon="6.09001">
        <ele>1080</ele>
        <time>2016-06-26T08:03:59Z</time>
      </trkpt>
      <trkpt lat="46.59188" lon="6.09004">
        <ele>1081</ele>
        <time>2016-06-26T08:05:57Z</time>
      </trkpt>
      <trkpt lat="46.59206" lon="6.0901">
        <ele>1080</ele>
        <time>2016-06-26T08:06:53Z</time>
      </trkpt>
      <trkpt lat="46.5922" lon="6.09028">
        <ele>1079</ele>
        <time>2016-06-26T08:07:00Z</time>
      </trkpt>
      <trkpt lat="46.59237" lon="6.09039">
        <ele>1079</ele>
        <time>2016-06-26T08:07:08Z</time>
      </trkpt>
      <trkpt lat="46.59252" lon="6.09057">
        <ele>1075</ele>
        <time>2016-06-26T08:07:17Z</time>
      </trkpt>
      <trkpt lat="46.59265" lon="6.09078">
        <ele>1076</ele>
        <time>2016-06-26T08:07:29Z</time>
      </trkpt>
      <trkpt lat="46.59279" lon="6.09095">
        <ele>1077</ele>
        <time>2016-06-26T08:07:45Z</time>
      </trkpt>
      <trkpt lat="46.59293" lon="6.09113">
        <ele>1077</ele>
        <time>2016-06-26T08:08:01Z</time>
      </trkpt>
      <trkpt lat="46.59301" lon="6.09138">
        <ele>1077</ele>
        <time>2016-06-26T08:08:15Z</time>
      </trkpt>
      <trkpt lat="46.59311" lon="6.09162">
        <ele>1077</ele>
        <time>2016-06-26T08:08:28Z</time>
      </trkpt>
      <trkpt lat="46.59316" lon="6.09188">
        <ele>1080</ele>
        <time>2016-06-26T08:08:44Z</time>
      </trkpt>
      <trkpt lat="46.59321" lon="6.09214">
        <ele>1081</ele>
        <time>2016-06-26T08:08:58Z</time>
      </trkpt>
      <trkpt lat="46.59327" lon="6.09241">
        <ele>1081</ele>
        <time>2016-06-26T08:09:12Z</time>
      </trkpt>
      <trkpt lat="46.59329" lon="6.09268">
        <ele>1082</ele>
        <time>2016-06-26T08:09:18Z</time>
      </trkpt>
      <trkpt lat="46.59333" lon="6.09297">
        <ele>1083</ele>
        <time>2016-06-26T08:09:23Z</time>
      </trkpt>
      <trkpt lat="46.59337" lon="6.09323">
        <ele>1079</ele>
        <time>2016-06-26T08:09:27Z</time>
      </trkpt>
      <trkpt lat="46.59331" lon="6.09348">
        <ele>1082</ele>
        <time>2016-06-26T08:09:34Z</time>
      </trkpt>
      <trkpt lat="46.59327" lon="6.09374">
        <ele>1085</ele>
        <time>2016-06-26T08:09:50Z</time>
      </trkpt>
      <trkpt lat="46.59325" lon="6.09402">
        <ele>1085</ele>
        <time>2016-06-26T08:10:03Z</time>
      </trkpt>
      <trkpt lat="46.59317" lon="6.09427">
        <ele>1086</ele>
        <time>2016-06-26T08:10:13Z</time>
      </trkpt>
      <trkpt lat="46.59311" lon="6.09454">
        <ele>1087</ele>
        <time>2016-06-26T08:10:22Z</time>
      </trkpt>
      <trkpt lat="46.59303" lon="6.09487">
        <ele>1087</ele>
        <time>2016-06-26T08:10:30Z</time>
      </trkpt>
      <trkpt lat="46.59297" lon="6.09515">
        <ele>1088</ele>
        <time>2016-06-26T08:10:38Z</time>
      </trkpt>
      <trkpt lat="46.59292" lon="6.09542">
        <ele>1088</ele>
        <time>2016-06-26T08:10:44Z</time>
      </trkpt>
      <trkpt lat="46.5928" lon="6.09564">
        <ele>1089</ele>
        <time>2016-06-26T08:10:51Z</time>
      </trkpt>
      <trkpt lat="46.59268" lon="6.09585">
        <ele>1092</ele>
        <time>2016-06-26T08:11:04Z</time>
      </trkpt>
      <trkpt lat="46.59258" lon="6.09609">
        <ele>1092</ele>
        <time>2016-06-26T08:11:15Z</time>
      </trkpt>
      <trkpt lat="46.59242" lon="6.09625">
        <ele>1096</ele>
        <time>2016-06-26T08:11:23Z</time>
      </trkpt>
      <trkpt lat="46.59228" lon="6.09642">
        <ele>1097</ele>
        <time>2016-06-26T08:11:35Z</time>
      </trkpt>
      <trkpt lat="46.59217" lon="6.09665">
        <ele>1097</ele>
        <time>2016-06-26T08:11:47Z</time>
      </trkpt>
      <trkpt lat="46.59207" lon="6.09688">
        <ele>1097</ele>
        <time>2016-06-26T08:11:58Z</time>
      </trkpt>
      <trkpt lat="46.59192" lon="6.09702">
        <ele>1097</ele>
        <time>2016-06-26T08:12:14Z</time>
      </trkpt>
      <trkpt lat="46.59184" lon="6.09726">
        <ele>1097</ele>
        <time>2016-06-26T08:12:32Z</time>
      </trkpt>
      <trkpt lat="46.59171" lon="6.09748">
        <ele>1098</ele>
        <time>2016-06-26T08:12:47Z</time>
      </trkpt>
      <trkpt lat="46.59159" lon="6.09769">
        <ele>1101</ele>
        <time>2016-06-26T08:13:00Z</time>
      </trkpt>
      <trkpt lat="46.59149" lon="6.0979">
        <ele>1103</ele>
        <time>2016-06-26T08:13:15Z</time>
      </trkpt>
      <trkpt lat="46.59136" lon="6.09808">
        <ele>1103</ele>
        <time>2016-06-26T08:13:32Z</time>
      </trkpt>
      <trkpt lat="46.59125" lon="6.0983">
        <ele>1104</ele>
        <time>2016-06-26T08:13:45Z</time>
      </trkpt>
      <trkpt lat="46.59109" lon="6.09845">
        <ele>1105</ele>
        <time>2016-06-26T08:13:53Z</time>
      </trkpt>
      <trkpt lat="46.59106" lon="6.09871">
        <ele>1106</ele>
        <time>2016-06-26T08:14:12Z</time>
      </trkpt>
      <trkpt lat="46.59107" lon="6.09898">
        <ele>1106</ele>
        <time>2016-06-26T08:14:37Z</time>
      </trkpt>
      <trkpt lat="46.5911" lon="6.09925">
        <ele>1107</ele>
        <time>2016-06-26T08:15:03Z</time>
      </trkpt>
      <trkpt lat="46.5912" lon="6.09947">
        <ele>1107</ele>
        <time>2016-06-26T08:15:16Z</time>
      </trkpt>
      <trkpt lat="46.59128" lon="6.0997">
        <ele>1107</ele>
        <time>2016-06-26T08:15:26Z</time>
      </trkpt>
      <trkpt lat="46.59127" lon="6.09997">
        <ele>1107</ele>
        <time>2016-06-26T08:15:37Z</time>
      </trkpt>
      <trkpt lat="46.59131" lon="6.10024">
        <ele>1108</ele>
        <time>2016-06-26T08:15:49Z</time>
      </trkpt>
      <trkpt lat="46.59125" lon="6.10049">
        <ele>1108</ele>
        <time>2016-06-26T08:16:05Z</time>
      </trkpt>
      <trkpt lat="46.5912" lon="6.10075">
        <ele>1108</ele>
        <time>2016-06-26T08:16:18Z</time>
      </trkpt>
      <trkpt lat="46.59109" lon="6.10098">
        <ele>1109</ele>
        <time>2016-06-26T08:16:33Z</time>
      </trkpt>
      <trkpt lat="46.59101" lon="6.10122">
        <ele>1110</ele>
        <time>2016-06-26T08:16:42Z</time>
      </trkpt>
      <trkpt lat="46.59092" lon="6.10146">
        <ele>1110</ele>
        <time>2016-06-26T08:16:58Z</time>
      </trkpt>
      <trkpt lat="46.59081" lon="6.10167">
        <ele>1112</ele>
        <time>2016-06-26T08:17:16Z</time>
      </trkpt>
      <trkpt lat="46.59064" lon="6.10175">
        <ele>1110</ele>
        <time>2016-06-26T08:17:34Z</time>
      </trkpt>
      <trkpt lat="46.59045" lon="6.10186">
        <ele>1109</ele>
        <time>2016-06-26T08:17:46Z</time>
      </trkpt>
      <trkpt lat="46.59028" lon="6.10197">
        <ele>1108</ele>
        <time>2016-06-26T08:18:00Z</time>
      </trkpt>
      <trkpt lat="46.5901" lon="6.10194">
        <ele>1109</ele>
        <time>2016-06-26T08:18:09Z</time>
      </trkpt>
      <trkpt lat="46.58999" lon="6.10215">
        <ele>1106</ele>
        <time>2016-06-26T08:18:23Z</time>
      </trkpt>
      <trkpt lat="46.58983" lon="6.10232">
        <ele>1104</ele>
        <time>2016-06-26T08:18:38Z</time>
      </trkpt>
      <trkpt lat="46.58973" lon="6.10257">
        <ele>1100</ele>
        <time>2016-06-26T08:19:05Z</time>
      </trkpt>
      <trkpt lat="46.58964" lon="6.10281">
        <ele>1100</ele>
        <time>2016-06-26T08:19:10Z</time>
      </trkpt>
      <trkpt lat="46.58953" lon="6.10307">
        <ele>1100</ele>
        <time>2016-06-26T08:19:14Z</time>
      </trkpt>
      <trkpt lat="46.58944" lon="6.1033">
        <ele>1100</ele>
        <time>2016-06-26T08:19:19Z</time>
      </trkpt>
      <trkpt lat="46.5895" lon="6.10356">
        <ele>1098</ele>
        <time>2016-06-26T08:19:31Z</time>
      </trkpt>
      <trkpt lat="46.58964" lon="6.10373">
        <ele>1097</ele>
        <time>2016-06-26T08:19:36Z</time>
      </trkpt>
      <trkpt lat="46.58975" lon="6.10396">
        <ele>1097</ele>
        <time>2016-06-26T08:19:42Z</time>
      </trkpt>
      <trkpt lat="46.58959" lon="6.10408">
        <ele>1097</ele>
        <time>2016-06-26T08:19:57Z</time>
      </trkpt>
      <trkpt lat="46.5895" lon="6.10432">
        <ele>1095</ele>
        <time>2016-06-26T08:20:11Z</time>
      </trkpt>
      <trkpt lat="46.58966" lon="6.10447">
        <ele>1094</ele>
        <time>2016-06-26T08:20:33Z</time>
      </trkpt>
      <trkpt lat="46.58983" lon="6.10467">
        <ele>1094</ele>
        <time>2016-06-26T08:20:38Z</time>
      </trkpt>
      <trkpt lat="46.59" lon="6.10485">
        <ele>1093</ele>
        <time>2016-06-26T08:20:42Z</time>
      </trkpt>
      <trkpt lat="46.59019" lon="6.10503">
        <ele>1091</ele>
        <time>2016-06-26T08:20:46Z</time>
      </trkpt>
      <trkpt lat="46.59036" lon="6.10515">
        <ele>1090</ele>
        <time>2016-06-26T08:20:49Z</time>
      </trkpt>
      <trkpt lat="46.59053" lon="6.10526">
        <ele>1089</ele>
        <time>2016-06-26T08:20:52Z</time>
      </trkpt>
      <trkpt lat="46.5907" lon="6.10538">
        <ele>1089</ele>
        <time>2016-06-26T08:20:55Z</time>
      </trkpt>
      <trkpt lat="46.59089" lon="6.10547">
        <ele>1090</ele>
        <time>2016-06-26T08:20:58Z</time>
      </trkpt>
      <trkpt lat="46.59108" lon="6.10557">
        <ele>1090</ele>
        <time>2016-06-26T08:21:01Z</time>
      </trkpt>
      <trkpt lat="46.59126" lon="6.10569">
        <ele>1091</ele>
        <time>2016-06-26T08:21:04Z</time>
      </trkpt>
      <trkpt lat="46.59146" lon="6.10581">
        <ele>1091</ele>
        <time>2016-06-26T08:21:08Z</time>
      </trkpt>
      <trkpt lat="46.59164" lon="6.10593">
        <ele>1091</ele>
        <time>2016-06-26T08:21:12Z</time>
      </trkpt>
      <trkpt lat="46.59183" lon="6.10606">
        <ele>1090</ele>
        <time>2016-06-26T08:21:17Z</time>
      </trkpt>
      <trkpt lat="46.59201" lon="6.10616">
        <ele>1090</ele>
        <time>2016-06-26T08:21:21Z</time>
      </trkpt>
      <trkpt lat="46.59221" lon="6.10629">
        <ele>1089</ele>
        <time>2016-06-26T08:21:25Z</time>
      </trkpt>
      <trkpt lat="46.59237" lon="6.10642">
        <ele>1089</ele>
        <time>2016-06-26T08:21:28Z</time>
      </trkpt>
      <trkpt lat="46.59257" lon="6.1066">
        <ele>1087</ele>
        <time>2016-06-26T08:21:32Z</time>
      </trkpt>
      <trkpt lat="46.59278" lon="6.10675">
        <ele>1085</ele>
        <time>2016-06-26T08:21:36Z</time>
      </trkpt>
      <trkpt lat="46.59296" lon="6.10687">
        <ele>1084</ele>
        <time>2016-06-26T08:21:39Z</time>
      </trkpt>
      <trkpt lat="46.59314" lon="6.107">
        <ele>1084</ele>
        <time>2016-06-26T08:21:42Z</time>
      </trkpt>
      <trkpt lat="46.59333" lon="6.10714">
        <ele>1084</ele>
        <time>2016-06-26T08:21:45Z</time>
      </trkpt>
      <trkpt lat="46.59355" lon="6.10732">
        <ele>1084</ele>
        <time>2016-06-26T08:21:48Z</time>
      </trkpt>
      <trkpt lat="46.59376" lon="6.1075">
        <ele>1083</ele>
        <time>2016-06-26T08:21:51Z</time>
      </trkpt>
      <trkpt lat="46.59395" lon="6.10773">
        <ele>1083</ele>
        <time>2016-06-26T08:21:54Z</time>
      </trkpt>
      <trkpt lat="46.59411" lon="6.10794">
        <ele>1082</ele>
        <time>2016-06-26T08:21:57Z</time>
      </trkpt>
      <trkpt lat="46.59426" lon="6.10816">
        <ele>1082</ele>
        <time>2016-06-26T08:22:00Z</time>
      </trkpt>
      <trkpt lat="46.5944" lon="6.10839">
        <ele>1080</ele>
        <time>2016-06-26T08:22:03Z</time>
      </trkpt>
      <trkpt lat="46.59453" lon="6.10861">
        <ele>1079</ele>
        <time>2016-06-26T08:22:06Z</time>
      </trkpt>
      <trkpt lat="46.59468" lon="6.10884">
        <ele>1078</ele>
        <time>2016-06-26T08:22:09Z</time>
      </trkpt>
      <trkpt lat="46.59485" lon="6.10904">
        <ele>1077</ele>
        <time>2016-06-26T08:22:12Z</time>
      </trkpt>
      <trkpt lat="46.59506" lon="6.10927">
        <ele>1075</ele>
        <time>2016-06-26T08:22:15Z</time>
      </trkpt>
      <trkpt lat="46.59526" lon="6.10948">
        <ele>1074</ele>
        <time>2016-06-26T08:22:18Z</time>
      </trkpt>
      <trkpt lat="46.59545" lon="6.10968">
        <ele>1074</ele>
        <time>2016-06-26T08:22:21Z</time>
      </trkpt>
      <trkpt lat="46.59561" lon="6.10986">
        <ele>1073</ele>
        <time>2016-06-26T08:22:24Z</time>
      </trkpt>
      <trkpt lat="46.5958" lon="6.11003">
        <ele>1072</ele>
        <time>2016-06-26T08:22:27Z</time>
      </trkpt>
      <trkpt lat="46.59598" lon="6.11023">
        <ele>1072</ele>
        <time>2016-06-26T08:22:30Z</time>
      </trkpt>
      <trkpt lat="46.59614" lon="6.1104">
        <ele>1072</ele>
        <time>2016-06-26T08:22:33Z</time>
      </trkpt>
      <trkpt lat="46.59628" lon="6.11058">
        <ele>1072</ele>
        <time>2016-06-26T08:22:36Z</time>
      </trkpt>
      <trkpt lat="46.59642" lon="6.11075">
        <ele>1072</ele>
        <time>2016-06-26T08:22:39Z</time>
      </trkpt>
      <trkpt lat="46.59657" lon="6.11099">
        <ele>1072</ele>
        <time>2016-06-26T08:22:43Z</time>
      </trkpt>
      <trkpt lat="46.59668" lon="6.11119">
        <ele>1074</ele>
        <time>2016-06-26T08:22:47Z</time>
      </trkpt>
      <trkpt lat="46.5968" lon="6.11139">
        <ele>1075</ele>
        <time>2016-06-26T08:22:51Z</time>
      </trkpt>
      <trkpt lat="46.5969" lon="6.11163">
        <ele>1075</ele>
        <time>2016-06-26T08:22:56Z</time>
      </trkpt>
      <trkpt lat="46.59699" lon="6.11187">
        <ele>1078</ele>
        <time>2016-06-26T08:23:02Z</time>
      </trkpt>
      <trkpt lat="46.59706" lon="6.11212">
        <ele>1079</ele>
        <time>2016-06-26T08:23:09Z</time>
      </trkpt>
      <trkpt lat="46.59713" lon="6.11239">
        <ele>1080</ele>
        <time>2016-06-26T08:23:17Z</time>
      </trkpt>
      <trkpt lat="46.5972" lon="6.11266">
        <ele>1083</ele>
        <time>2016-06-26T08:23:26Z</time>
      </trkpt>
      <trkpt lat="46.59727" lon="6.11292">
        <ele>1083</ele>
        <time>2016-06-26T08:23:37Z</time>
      </trkpt>
      <trkpt lat="46.59715" lon="6.11313">
        <ele>1083</ele>
        <time>2016-06-26T08:23:56Z</time>
      </trkpt>
      <trkpt lat="46.59697" lon="6.11306">
        <ele>1083</ele>
        <time>2016-06-26T08:24:03Z</time>
      </trkpt>
      <trkpt lat="46.59683" lon="6.11321">
        <ele>1082</ele>
        <time>2016-06-26T08:24:30Z</time>
      </trkpt>
      <trkpt lat="46.59696" lon="6.11304">
        <ele>1083</ele>
        <time>2016-06-26T08:47:16Z</time>
      </trkpt>
      <trkpt lat="46.59713" lon="6.11315">
        <ele>1083</ele>
        <time>2016-06-26T08:50:34Z</time>
      </trkpt>
      <trkpt lat="46.59732" lon="6.11312">
        <ele>1084</ele>
        <time>2016-06-26T08:50:47Z</time>
      </trkpt>
      <trkpt lat="46.59744" lon="6.11333">
        <ele>1086</ele>
        <time>2016-06-26T08:50:57Z</time>
      </trkpt>
      <trkpt lat="46.59757" lon="6.11352">
        <ele>1087</ele>
        <time>2016-06-26T08:51:06Z</time>
      </trkpt>
      <trkpt lat="46.59768" lon="6.11374">
        <ele>1088</ele>
        <time>2016-06-26T08:51:54Z</time>
      </trkpt>
      <trkpt lat="46.59765" lon="6.11348">
        <ele>1087</ele>
        <time>2016-06-26T08:52:17Z</time>
      </trkpt>
      <trkpt lat="46.59751" lon="6.11328">
        <ele>1087</ele>
        <time>2016-06-26T08:52:29Z</time>
      </trkpt>
      <trkpt lat="46.59733" lon="6.11317">
        <ele>1084</ele>
        <time>2016-06-26T08:52:44Z</time>
      </trkpt>
      <trkpt lat="46.59716" lon="6.11307">
        <ele>1083</ele>
        <time>2016-06-26T08:52:56Z</time>
      </trkpt>
      <trkpt lat="46.59732" lon="6.1132">
        <ele>1085</ele>
        <time>2016-06-26T08:57:54Z</time>
      </trkpt>
      <trkpt lat="46.59749" lon="6.11331">
        <ele>1087</ele>
        <time>2016-06-26T08:58:09Z</time>
      </trkpt>
      <trkpt lat="46.59764" lon="6.11346">
        <ele>1087</ele>
        <time>2016-06-26T08:58:28Z</time>
      </trkpt>
      <trkpt lat="46.5977" lon="6.11372">
        <ele>1088</ele>
        <time>2016-06-26T09:00:37Z</time>
      </trkpt>
      <trkpt lat="46.59782" lon="6.11394">
        <ele>1088</ele>
        <time>2016-06-26T09:00:59Z</time>
      </trkpt>
      <trkpt lat="46.59798" lon="6.11407">
        <ele>1088</ele>
        <time>2016-06-26T09:01:12Z</time>
      </trkpt>
      <trkpt lat="46.59816" lon="6.11402">
        <ele>1087</ele>
        <time>2016-06-26T09:01:24Z</time>
      </trkpt>
      <trkpt lat="46.59844" lon="6.11402">
        <ele>1086</ele>
        <time>2016-06-26T09:01:36Z</time>
      </trkpt>
      <trkpt lat="46.59866" lon="6.11404">
        <ele>1086</ele>
        <time>2016-06-26T09:01:40Z</time>
      </trkpt>
      <trkpt lat="46.59884" lon="6.11404">
        <ele>1085</ele>
        <time>2016-06-26T09:01:43Z</time>
      </trkpt>
      <trkpt lat="46.59902" lon="6.11402">
        <ele>1085</ele>
        <time>2016-06-26T09:01:46Z</time>
      </trkpt>
      <trkpt lat="46.59924" lon="6.1141">
        <ele>1084</ele>
        <time>2016-06-26T09:01:50Z</time>
      </trkpt>
      <trkpt lat="46.59977" lon="6.11428">
        <ele>1082</ele>
        <time>2016-06-26T09:02:03Z</time>
      </trkpt>
      <trkpt lat="46.59995" lon="6.11442">
        <ele>1082</ele>
        <time>2016-06-26T09:02:06Z</time>
      </trkpt>
      <trkpt lat="46.60014" lon="6.11451">
        <ele>1081</ele>
        <time>2016-06-26T09:02:09Z</time>
      </trkpt>
      <trkpt lat="46.60033" lon="6.11459">
        <ele>1081</ele>
        <time>2016-06-26T09:02:12Z</time>
      </trkpt>
      <trkpt lat="46.60052" lon="6.11463">
        <ele>1082</ele>
        <time>2016-06-26T09:02:15Z</time>
      </trkpt>
      <trkpt lat="46.60075" lon="6.11464">
        <ele>1082</ele>
        <time>2016-06-26T09:02:19Z</time>
      </trkpt>
      <trkpt lat="46.60094" lon="6.11458">
        <ele>1085</ele>
        <time>2016-06-26T09:02:23Z</time>
      </trkpt>
      <trkpt lat="46.60113" lon="6.11449">
        <ele>1086</ele>
        <time>2016-06-26T09:02:28Z</time>
      </trkpt>
      <trkpt lat="46.60131" lon="6.11439">
        <ele>1087</ele>
        <time>2016-06-26T09:02:33Z</time>
      </trkpt>
      <trkpt lat="46.6015" lon="6.1143">
        <ele>1087</ele>
        <time>2016-06-26T09:02:39Z</time>
      </trkpt>
      <trkpt lat="46.60168" lon="6.11415">
        <ele>1088</ele>
        <time>2016-06-26T09:02:45Z</time>
      </trkpt>
      <trkpt lat="46.60183" lon="6.11394">
        <ele>1089</ele>
        <time>2016-06-26T09:02:49Z</time>
      </trkpt>
      <trkpt lat="46.60198" lon="6.11378">
        <ele>1089</ele>
        <time>2016-06-26T09:02:53Z</time>
      </trkpt>
      <trkpt lat="46.60213" lon="6.11357">
        <ele>1089</ele>
        <time>2016-06-26T09:02:57Z</time>
      </trkpt>
      <trkpt lat="46.60226" lon="6.11335">
        <ele>1089</ele>
        <time>2016-06-26T09:03:01Z</time>
      </trkpt>
      <trkpt lat="46.60242" lon="6.11319">
        <ele>1088</ele>
        <time>2016-06-26T09:03:05Z</time>
      </trkpt>
      <trkpt lat="46.6026" lon="6.11305">
        <ele>1089</ele>
        <time>2016-06-26T09:03:09Z</time>
      </trkpt>
      <trkpt lat="46.60276" lon="6.11294">
        <ele>1089</ele>
        <time>2016-06-26T09:03:12Z</time>
      </trkpt>
      <trkpt lat="46.60294" lon="6.11276">
        <ele>1089</ele>
        <time>2016-06-26T09:03:16Z</time>
      </trkpt>
      <trkpt lat="46.60307" lon="6.11258">
        <ele>1089</ele>
        <time>2016-06-26T09:03:20Z</time>
      </trkpt>
      <trkpt lat="46.60325" lon="6.11248">
        <ele>1088</ele>
        <time>2016-06-26T09:03:25Z</time>
      </trkpt>
      <trkpt lat="46.60342" lon="6.11239">
        <ele>1089</ele>
        <time>2016-06-26T09:03:31Z</time>
      </trkpt>
      <trkpt lat="46.6036" lon="6.11225">
        <ele>1090</ele>
        <time>2016-06-26T09:03:38Z</time>
      </trkpt>
      <trkpt lat="46.60375" lon="6.11207">
        <ele>1090</ele>
        <time>2016-06-26T09:03:44Z</time>
      </trkpt>
      <trkpt lat="46.60389" lon="6.11187">
        <ele>1090</ele>
        <time>2016-06-26T09:03:50Z</time>
      </trkpt>
      <trkpt lat="46.60405" lon="6.11169">
        <ele>1090</ele>
        <time>2016-06-26T09:03:56Z</time>
      </trkpt>
      <trkpt lat="46.60422" lon="6.11156">
        <ele>1091</ele>
        <time>2016-06-26T09:04:02Z</time>
      </trkpt>
      <trkpt lat="46.60442" lon="6.11153">
        <ele>1091</ele>
        <time>2016-06-26T09:04:08Z</time>
      </trkpt>
      <trkpt lat="46.6046" lon="6.11156">
        <ele>1092</ele>
        <time>2016-06-26T09:04:13Z</time>
      </trkpt>
      <trkpt lat="46.60481" lon="6.11157">
        <ele>1093</ele>
        <time>2016-06-26T09:04:19Z</time>
      </trkpt>
      <trkpt lat="46.60502" lon="6.1116">
        <ele>1094</ele>
        <time>2016-06-26T09:04:25Z</time>
      </trkpt>
      <trkpt lat="46.6052" lon="6.11166">
        <ele>1094</ele>
        <time>2016-06-26T09:04:30Z</time>
      </trkpt>
      <trkpt lat="46.60539" lon="6.11175">
        <ele>1095</ele>
        <time>2016-06-26T09:04:35Z</time>
      </trkpt>
      <trkpt lat="46.60558" lon="6.11186">
        <ele>1095</ele>
        <time>2016-06-26T09:04:40Z</time>
      </trkpt>
      <trkpt lat="46.60578" lon="6.11199">
        <ele>1095</ele>
        <time>2016-06-26T09:04:45Z</time>
      </trkpt>
      <trkpt lat="46.60598" lon="6.11211">
        <ele>1096</ele>
        <time>2016-06-26T09:04:50Z</time>
      </trkpt>
      <trkpt lat="46.60617" lon="6.11223">
        <ele>1097</ele>
        <time>2016-06-26T09:04:55Z</time>
      </trkpt>
      <trkpt lat="46.60635" lon="6.11236">
        <ele>1098</ele>
        <time>2016-06-26T09:04:59Z</time>
      </trkpt>
      <trkpt lat="46.60654" lon="6.1125">
        <ele>1101</ele>
        <time>2016-06-26T09:05:04Z</time>
      </trkpt>
      <trkpt lat="46.6067" lon="6.11263">
        <ele>1102</ele>
        <time>2016-06-26T09:05:09Z</time>
      </trkpt>
      <trkpt lat="46.60686" lon="6.11276">
        <ele>1102</ele>
        <time>2016-06-26T09:05:19Z</time>
      </trkpt>
      <trkpt lat="46.60706" lon="6.11276">
        <ele>1102</ele>
        <time>2016-06-26T09:05:28Z</time>
      </trkpt>
      <trkpt lat="46.60723" lon="6.11286">
        <ele>1102</ele>
        <time>2016-06-26T09:05:33Z</time>
      </trkpt>
      <trkpt lat="46.6074" lon="6.11295">
        <ele>1102</ele>
        <time>2016-06-26T09:05:39Z</time>
      </trkpt>
      <trkpt lat="46.60759" lon="6.11303">
        <ele>1101</ele>
        <time>2016-06-26T09:05:46Z</time>
      </trkpt>
      <trkpt lat="46.60777" lon="6.11315">
        <ele>1101</ele>
        <time>2016-06-26T09:05:52Z</time>
      </trkpt>
      <trkpt lat="46.6079" lon="6.11333">
        <ele>1101</ele>
        <time>2016-06-26T09:05:59Z</time>
      </trkpt>
      <trkpt lat="46.60801" lon="6.11356">
        <ele>1104</ele>
        <time>2016-06-26T09:06:07Z</time>
      </trkpt>
      <trkpt lat="46.60814" lon="6.11382">
        <ele>1104</ele>
        <time>2016-06-26T09:06:14Z</time>
      </trkpt>
      <trkpt lat="46.60832" lon="6.11397">
        <ele>1105</ele>
        <time>2016-06-26T09:06:18Z</time>
      </trkpt>
      <trkpt lat="46.60853" lon="6.11409">
        <ele>1104</ele>
        <time>2016-06-26T09:06:22Z</time>
      </trkpt>
      <trkpt lat="46.60873" lon="6.11415">
        <ele>1103</ele>
        <time>2016-06-26T09:06:25Z</time>
      </trkpt>
      <trkpt lat="46.60893" lon="6.11415">
        <ele>1103</ele>
        <time>2016-06-26T09:06:28Z</time>
      </trkpt>
      <trkpt lat="46.60911" lon="6.1141">
        <ele>1103</ele>
        <time>2016-06-26T09:06:31Z</time>
      </trkpt>
      <trkpt lat="46.60931" lon="6.1141">
        <ele>1104</ele>
        <time>2016-06-26T09:06:34Z</time>
      </trkpt>
      <trkpt lat="46.60951" lon="6.11406">
        <ele>1104</ele>
        <time>2016-06-26T09:06:37Z</time>
      </trkpt>
      <trkpt lat="46.6097" lon="6.11396">
        <ele>1104</ele>
        <time>2016-06-26T09:06:40Z</time>
      </trkpt>
      <trkpt lat="46.60987" lon="6.11383">
        <ele>1104</ele>
        <time>2016-06-26T09:06:43Z</time>
      </trkpt>
      <trkpt lat="46.61009" lon="6.11369">
        <ele>1107</ele>
        <time>2016-06-26T09:06:46Z</time>
      </trkpt>
      <trkpt lat="46.61028" lon="6.11352">
        <ele>1107</ele>
        <time>2016-06-26T09:06:49Z</time>
      </trkpt>
      <trkpt lat="46.61042" lon="6.11335">
        <ele>1107</ele>
        <time>2016-06-26T09:06:52Z</time>
      </trkpt>
      <trkpt lat="46.61059" lon="6.11313">
        <ele>1104</ele>
        <time>2016-06-26T09:06:56Z</time>
      </trkpt>
      <trkpt lat="46.61076" lon="6.11288">
        <ele>1103</ele>
        <time>2016-06-26T09:07:00Z</time>
      </trkpt>
      <trkpt lat="46.61091" lon="6.11265">
        <ele>1106</ele>
        <time>2016-06-26T09:07:04Z</time>
      </trkpt>
      <trkpt lat="46.61107" lon="6.11253">
        <ele>1107</ele>
        <time>2016-06-26T09:07:07Z</time>
      </trkpt>
      <trkpt lat="46.61125" lon="6.11239">
        <ele>1104</ele>
        <time>2016-06-26T09:07:10Z</time>
      </trkpt>
      <trkpt lat="46.61142" lon="6.11229">
        <ele>1105</ele>
        <time>2016-06-26T09:07:13Z</time>
      </trkpt>
      <trkpt lat="46.61158" lon="6.11218">
        <ele>1105</ele>
        <time>2016-06-26T09:07:16Z</time>
      </trkpt>
      <trkpt lat="46.61178" lon="6.11204">
        <ele>1109</ele>
        <time>2016-06-26T09:07:19Z</time>
      </trkpt>
      <trkpt lat="46.61196" lon="6.11192">
        <ele>1108</ele>
        <time>2016-06-26T09:07:25Z</time>
      </trkpt>
      <trkpt lat="46.61218" lon="6.11177">
        <ele>1109</ele>
        <time>2016-06-26T09:07:32Z</time>
      </trkpt>
      <trkpt lat="46.61234" lon="6.11161">
        <ele>1104</ele>
        <time>2016-06-26T09:07:39Z</time>
      </trkpt>
      <trkpt lat="46.61253" lon="6.11152">
        <ele>1106</ele>
        <time>2016-06-26T09:07:47Z</time>
      </trkpt>
      <trkpt lat="46.61272" lon="6.11149">
        <ele>1106</ele>
        <time>2016-06-26T09:07:54Z</time>
      </trkpt>
      <trkpt lat="46.61291" lon="6.11149">
        <ele>1106</ele>
        <time>2016-06-26T09:08:02Z</time>
      </trkpt>
      <trkpt lat="46.6131" lon="6.11154">
        <ele>1107</ele>
        <time>2016-06-26T09:08:11Z</time>
      </trkpt>
      <trkpt lat="46.61327" lon="6.11166">
        <ele>1110</ele>
        <time>2016-06-26T09:08:17Z</time>
      </trkpt>
      <trkpt lat="46.61346" lon="6.11166">
        <ele>1110</ele>
        <time>2016-06-26T09:08:22Z</time>
      </trkpt>
      <trkpt lat="46.61365" lon="6.11169">
        <ele>1115</ele>
        <time>2016-06-26T09:08:28Z</time>
      </trkpt>
      <trkpt lat="46.61385" lon="6.11171">
        <ele>1115</ele>
        <time>2016-06-26T09:08:33Z</time>
      </trkpt>
      <trkpt lat="46.61404" lon="6.11178">
        <ele>1115</ele>
        <time>2016-06-26T09:08:37Z</time>
      </trkpt>
      <trkpt lat="46.61424" lon="6.11182">
        <ele>1115</ele>
        <time>2016-06-26T09:08:42Z</time>
      </trkpt>
      <trkpt lat="46.61445" lon="6.11181">
        <ele>1115</ele>
        <time>2016-06-26T09:08:47Z</time>
      </trkpt>
      <trkpt lat="46.61469" lon="6.11182">
        <ele>1115</ele>
        <time>2016-06-26T09:08:52Z</time>
      </trkpt>
      <trkpt lat="46.6149" lon="6.11186">
        <ele>1114</ele>
        <time>2016-06-26T09:08:56Z</time>
      </trkpt>
      <trkpt lat="46.61513" lon="6.11186">
        <ele>1113</ele>
        <time>2016-06-26T09:09:00Z</time>
      </trkpt>
      <trkpt lat="46.61533" lon="6.11187">
        <ele>1113</ele>
        <time>2016-06-26T09:09:04Z</time>
      </trkpt>
      <trkpt lat="46.61555" lon="6.11189">
        <ele>1112</ele>
        <time>2016-06-26T09:09:07Z</time>
      </trkpt>
      <trkpt lat="46.61576" lon="6.11191">
        <ele>1112</ele>
        <time>2016-06-26T09:09:12Z</time>
      </trkpt>
      <trkpt lat="46.61597" lon="6.11189">
        <ele>1110</ele>
        <time>2016-06-26T09:09:17Z</time>
      </trkpt>
      <trkpt lat="46.61617" lon="6.11187">
        <ele>1110</ele>
        <time>2016-06-26T09:09:22Z</time>
      </trkpt>
      <trkpt lat="46.61637" lon="6.11179">
        <ele>1109</ele>
        <time>2016-06-26T09:09:26Z</time>
      </trkpt>
      <trkpt lat="46.61657" lon="6.11165">
        <ele>1107</ele>
        <time>2016-06-26T09:09:30Z</time>
      </trkpt>
      <trkpt lat="46.61672" lon="6.11148">
        <ele>1108</ele>
        <time>2016-06-26T09:09:34Z</time>
      </trkpt>
      <trkpt lat="46.6169" lon="6.11128">
        <ele>1108</ele>
        <time>2016-06-26T09:09:40Z</time>
      </trkpt>
      <trkpt lat="46.61708" lon="6.11111">
        <ele>1108</ele>
        <time>2016-06-26T09:09:44Z</time>
      </trkpt>
      <trkpt lat="46.61725" lon="6.11094">
        <ele>1108</ele>
        <time>2016-06-26T09:09:47Z</time>
      </trkpt>
      <trkpt lat="46.61744" lon="6.11076">
        <ele>1107</ele>
        <time>2016-06-26T09:09:50Z</time>
      </trkpt>
      <trkpt lat="46.61766" lon="6.11057">
        <ele>1107</ele>
        <time>2016-06-26T09:09:53Z</time>
      </trkpt>
      <trkpt lat="46.61782" lon="6.11043">
        <ele>1107</ele>
        <time>2016-06-26T09:09:55Z</time>
      </trkpt>
      <trkpt lat="46.61798" lon="6.11027">
        <ele>1107</ele>
        <time>2016-06-26T09:09:57Z</time>
      </trkpt>
      <trkpt lat="46.61815" lon="6.11014">
        <ele>1106</ele>
        <time>2016-06-26T09:09:59Z</time>
      </trkpt>
      <trkpt lat="46.6183" lon="6.10999">
        <ele>1104</ele>
        <time>2016-06-26T09:10:01Z</time>
      </trkpt>
      <trkpt lat="46.61848" lon="6.10984">
        <ele>1104</ele>
        <time>2016-06-26T09:10:03Z</time>
      </trkpt>
      <trkpt lat="46.61868" lon="6.10965">
        <ele>1105</ele>
        <time>2016-06-26T09:10:06Z</time>
      </trkpt>
      <trkpt lat="46.61892" lon="6.1095">
        <ele>1105</ele>
        <time>2016-06-26T09:10:09Z</time>
      </trkpt>
      <trkpt lat="46.61915" lon="6.10936">
        <ele>1105</ele>
        <time>2016-06-26T09:10:12Z</time>
      </trkpt>
      <trkpt lat="46.61933" lon="6.10929">
        <ele>1108</ele>
        <time>2016-06-26T09:10:18Z</time>
      </trkpt>
      <trkpt lat="46.63986" lon="6.09067">
        <ele>1184</ele>
        <time>2016-06-26T09:32:16Z</time>
      </trkpt>
      <trkpt lat="46.63996" lon="6.09089">
        <ele>1182</ele>
        <time>2016-06-26T09:32:19Z</time>
      </trkpt>
      <trkpt lat="46.64073" lon="6.09276">
        <ele>1169</ele>
        <time>2016-06-26T09:32:44Z</time>
      </trkpt>
      <trkpt lat="46.64092" lon="6.09286">
        <ele>1166</ele>
        <time>2016-06-26T09:34:25Z</time>
      </trkpt>
      <trkpt lat="46.64111" lon="6.09289">
        <ele>1167</ele>
        <time>2016-06-26T09:34:31Z</time>
      </trkpt>
      <trkpt lat="46.64123" lon="6.09309">
        <ele>1167</ele>
        <time>2016-06-26T09:34:45Z</time>
      </trkpt>
      <trkpt lat="46.64135" lon="6.0933">
        <ele>1168</ele>
        <time>2016-06-26T09:34:59Z</time>
      </trkpt>
      <trkpt lat="46.64151" lon="6.09342">
        <ele>1168</ele>
        <time>2016-06-26T09:35:14Z</time>
      </trkpt>
      <trkpt lat="46.64169" lon="6.0935">
        <ele>1172</ele>
        <time>2016-06-26T09:35:30Z</time>
      </trkpt>
      <trkpt lat="46.64185" lon="6.09364">
        <ele>1173</ele>
        <time>2016-06-26T09:35:47Z</time>
      </trkpt>
      <trkpt lat="46.64202" lon="6.09375">
        <ele>1174</ele>
        <time>2016-06-26T09:35:59Z</time>
      </trkpt>
      <trkpt lat="46.6422" lon="6.09383">
        <ele>1176</ele>
        <time>2016-06-26T09:36:06Z</time>
      </trkpt>
      <trkpt lat="46.64239" lon="6.09372">
        <ele>1176</ele>
        <time>2016-06-26T09:36:17Z</time>
      </trkpt>
      <trkpt lat="46.64256" lon="6.09363">
        <ele>1180</ele>
        <time>2016-06-26T09:36:23Z</time>
      </trkpt>
      <trkpt lat="46.64273" lon="6.09354">
        <ele>1180</ele>
        <time>2016-06-26T09:36:31Z</time>
      </trkpt>
      <trkpt lat="46.64287" lon="6.09336">
        <ele>1180</ele>
        <time>2016-06-26T09:36:40Z</time>
      </trkpt>
      <trkpt lat="46.64294" lon="6.09307">
        <ele>1179</ele>
        <time>2016-06-26T09:36:46Z</time>
      </trkpt>
      <trkpt lat="46.64292" lon="6.09277">
        <ele>1179</ele>
        <time>2016-06-26T09:36:50Z</time>
      </trkpt>
      <trkpt lat="46.64288" lon="6.09249">
        <ele>1178</ele>
        <time>2016-06-26T09:36:56Z</time>
      </trkpt>
      <trkpt lat="46.64279" lon="6.09224">
        <ele>1178</ele>
        <time>2016-06-26T09:37:09Z</time>
      </trkpt>
      <trkpt lat="46.6428" lon="6.09197">
        <ele>1177</ele>
        <time>2016-06-26T09:37:21Z</time>
      </trkpt>
      <trkpt lat="46.64278" lon="6.0917">
        <ele>1177</ele>
        <time>2016-06-26T09:37:29Z</time>
      </trkpt>
      <trkpt lat="46.64279" lon="6.09143">
        <ele>1175</ele>
        <time>2016-06-26T09:37:34Z</time>
      </trkpt>
      <trkpt lat="46.64286" lon="6.09115">
        <ele>1175</ele>
        <time>2016-06-26T09:37:38Z</time>
      </trkpt>
      <trkpt lat="46.64288" lon="6.09088">
        <ele>1174</ele>
        <time>2016-06-26T09:37:46Z</time>
      </trkpt>
      <trkpt lat="46.64294" lon="6.0906">
        <ele>1173</ele>
        <time>2016-06-26T09:37:53Z</time>
      </trkpt>
      <trkpt lat="46.64309" lon="6.09027">
        <ele>1172</ele>
        <time>2016-06-26T09:37:57Z</time>
      </trkpt>
      <trkpt lat="46.64318" lon="6.08997">
        <ele>1169</ele>
        <time>2016-06-26T09:38:01Z</time>
      </trkpt>
      <trkpt lat="46.64324" lon="6.08968">
        <ele>1169</ele>
        <time>2016-06-26T09:38:06Z</time>
      </trkpt>
      <trkpt lat="46.64335" lon="6.08945">
        <ele>1163</ele>
        <time>2016-06-26T09:38:11Z</time>
      </trkpt>
      <trkpt lat="46.6435" lon="6.08921">
        <ele>1163</ele>
        <time>2016-06-26T09:38:15Z</time>
      </trkpt>
      <trkpt lat="46.64368" lon="6.08898">
        <ele>1158</ele>
        <time>2016-06-26T09:38:19Z</time>
      </trkpt>
      <trkpt lat="46.6438" lon="6.08876">
        <ele>1156</ele>
        <time>2016-06-26T09:38:23Z</time>
      </trkpt>
      <trkpt lat="46.64392" lon="6.08848">
        <ele>1154</ele>
        <time>2016-06-26T09:38:29Z</time>
      </trkpt>
      <trkpt lat="46.64404" lon="6.08827">
        <ele>1149</ele>
        <time>2016-06-26T09:38:35Z</time>
      </trkpt>
      <trkpt lat="46.64414" lon="6.08799">
        <ele>1149</ele>
        <time>2016-06-26T09:38:39Z</time>
      </trkpt>
      <trkpt lat="46.64415" lon="6.08766">
        <ele>1146</ele>
        <time>2016-06-26T09:38:45Z</time>
      </trkpt>
      <trkpt lat="46.64413" lon="6.0874">
        <ele>1143</ele>
        <time>2016-06-26T09:38:50Z</time>
      </trkpt>
      <trkpt lat="46.64411" lon="6.08712">
        <ele>1142</ele>
        <time>2016-06-26T09:38:56Z</time>
      </trkpt>
      <trkpt lat="46.64403" lon="6.08686">
        <ele>1141</ele>
        <time>2016-06-26T09:39:03Z</time>
      </trkpt>
      <trkpt lat="46.64402" lon="6.08659">
        <ele>1137</ele>
        <time>2016-06-26T09:39:10Z</time>
      </trkpt>
      <trkpt lat="46.644" lon="6.08632">
        <ele>1136</ele>
        <time>2016-06-26T09:39:17Z</time>
      </trkpt>
      <trkpt lat="46.64387" lon="6.0861">
        <ele>1136</ele>
        <time>2016-06-26T09:39:26Z</time>
      </trkpt>
      <trkpt lat="46.6437" lon="6.0859">
        <ele>1136</ele>
        <time>2016-06-26T09:39:30Z</time>
      </trkpt>
      <trkpt lat="46.64352" lon="6.08576">
        <ele>1133</ele>
        <time>2016-06-26T09:39:36Z</time>
      </trkpt>
      <trkpt lat="46.64337" lon="6.08552">
        <ele>1132</ele>
        <time>2016-06-26T09:39:41Z</time>
      </trkpt>
      <trkpt lat="46.64325" lon="6.08526">
        <ele>1134</ele>
        <time>2016-06-26T09:39:45Z</time>
      </trkpt>
      <trkpt lat="46.64311" lon="6.08507">
        <ele>1134</ele>
        <time>2016-06-26T09:39:50Z</time>
      </trkpt>
      <trkpt lat="46.64294" lon="6.08494">
        <ele>1132</ele>
        <time>2016-06-26T09:39:59Z</time>
      </trkpt>
      <trkpt lat="46.64277" lon="6.08485">
        <ele>1132</ele>
        <time>2016-06-26T09:40:11Z</time>
      </trkpt>
      <trkpt lat="46.64259" lon="6.0848">
        <ele>1133</ele>
        <time>2016-06-26T09:40:24Z</time>
      </trkpt>
      <trkpt lat="46.64246" lon="6.08461">
        <ele>1136</ele>
        <time>2016-06-26T09:40:33Z</time>
      </trkpt>
      <trkpt lat="46.64236" lon="6.08434">
        <ele>1135</ele>
        <time>2016-06-26T09:40:38Z</time>
      </trkpt>
      <trkpt lat="46.64225" lon="6.08412">
        <ele>1131</ele>
        <time>2016-06-26T09:40:40Z</time>
      </trkpt>
      <trkpt lat="46.64231" lon="6.08386">
        <ele>1130</ele>
        <time>2016-06-26T09:40:49Z</time>
      </trkpt>
      <trkpt lat="46.64246" lon="6.08369">
        <ele>1129</ele>
        <time>2016-06-26T09:40:57Z</time>
      </trkpt>
      <trkpt lat="46.64264" lon="6.0836">
        <ele>1124</ele>
        <time>2016-06-26T09:40:59Z</time>
      </trkpt>
      <trkpt lat="46.64282" lon="6.08361">
        <ele>1124</ele>
        <time>2016-06-26T09:41:02Z</time>
      </trkpt>
      <trkpt lat="46.64302" lon="6.08358">
        <ele>1123</ele>
        <time>2016-06-26T09:41:09Z</time>
      </trkpt>
      <trkpt lat="46.64323" lon="6.08355">
        <ele>1121</ele>
        <time>2016-06-26T09:41:14Z</time>
      </trkpt>
      <trkpt lat="46.64349" lon="6.08365">
        <ele>1114</ele>
        <time>2016-06-26T09:41:20Z</time>
      </trkpt>
      <trkpt lat="46.64366" lon="6.08379">
        <ele>1113</ele>
        <time>2016-06-26T09:41:22Z</time>
      </trkpt>
      <trkpt lat="46.64384" lon="6.0839">
        <ele>1112</ele>
        <time>2016-06-26T09:41:24Z</time>
      </trkpt>
      <trkpt lat="46.64402" lon="6.08399">
        <ele>1110</ele>
        <time>2016-06-26T09:41:27Z</time>
      </trkpt>
      <trkpt lat="46.64419" lon="6.08412">
        <ele>1106</ele>
        <time>2016-06-26T09:41:30Z</time>
      </trkpt>
      <trkpt lat="46.64437" lon="6.08429">
        <ele>1110</ele>
        <time>2016-06-26T09:41:34Z</time>
      </trkpt>
      <trkpt lat="46.64456" lon="6.08447">
        <ele>1110</ele>
        <time>2016-06-26T09:41:38Z</time>
      </trkpt>
      <trkpt lat="46.64474" lon="6.08461">
        <ele>1110</ele>
        <time>2016-06-26T09:41:41Z</time>
      </trkpt>
      <trkpt lat="46.64495" lon="6.08444">
        <ele>1106</ele>
        <time>2016-06-26T09:41:45Z</time>
      </trkpt>
      <trkpt lat="46.64518" lon="6.08441">
        <ele>1095</ele>
        <time>2016-06-26T09:41:50Z</time>
      </trkpt>
      <trkpt lat="46.64535" lon="6.0843">
        <ele>1092</ele>
        <time>2016-06-26T09:41:54Z</time>
      </trkpt>
      <trkpt lat="46.6452" lon="6.08407">
        <ele>1083</ele>
        <time>2016-06-26T09:41:59Z</time>
      </trkpt>
      <trkpt lat="46.64498" lon="6.08384">
        <ele>1093</ele>
        <time>2016-06-26T09:42:02Z</time>
      </trkpt>
      <trkpt lat="46.64484" lon="6.08368">
        <ele>1092</ele>
        <time>2016-06-26T09:42:04Z</time>
      </trkpt>
      <trkpt lat="46.64466" lon="6.08341">
        <ele>1091</ele>
        <time>2016-06-26T09:42:07Z</time>
      </trkpt>
      <trkpt lat="46.64452" lon="6.08319">
        <ele>1081</ele>
        <time>2016-06-26T09:42:09Z</time>
      </trkpt>
      <trkpt lat="46.64436" lon="6.08297">
        <ele>1080</ele>
        <time>2016-06-26T09:42:11Z</time>
      </trkpt>
      <trkpt lat="46.64423" lon="6.08275">
        <ele>1077</ele>
        <time>2016-06-26T09:42:13Z</time>
      </trkpt>
      <trkpt lat="46.64409" lon="6.08247">
        <ele>1074</ele>
        <time>2016-06-26T09:42:16Z</time>
      </trkpt>
      <trkpt lat="46.64398" lon="6.08226">
        <ele>1074</ele>
        <time>2016-06-26T09:42:20Z</time>
      </trkpt>
      <trkpt lat="46.6442" lon="6.08226">
        <ele>1061</ele>
        <time>2016-06-26T09:42:24Z</time>
      </trkpt>
      <trkpt lat="46.64438" lon="6.08236">
        <ele>1060</ele>
        <time>2016-06-26T09:42:27Z</time>
      </trkpt>
      <trkpt lat="46.64461" lon="6.08244">
        <ele>1057</ele>
        <time>2016-06-26T09:42:31Z</time>
      </trkpt>
      <trkpt lat="46.64482" lon="6.08253">
        <ele>1066</ele>
        <time>2016-06-26T09:42:35Z</time>
      </trkpt>
      <trkpt lat="46.64507" lon="6.0826">
        <ele>1056</ele>
        <time>2016-06-26T09:42:38Z</time>
      </trkpt>
      <trkpt lat="46.64526" lon="6.08267">
        <ele>1054</ele>
        <time>2016-06-26T09:42:40Z</time>
      </trkpt>
      <trkpt lat="46.64549" lon="6.08285">
        <ele>1053</ele>
        <time>2016-06-26T09:42:43Z</time>
      </trkpt>
      <trkpt lat="46.64573" lon="6.08299">
        <ele>1052</ele>
        <time>2016-06-26T09:42:46Z</time>
      </trkpt>
      <trkpt lat="46.64593" lon="6.08307">
        <ele>1040</ele>
        <time>2016-06-26T09:42:49Z</time>
      </trkpt>
      <trkpt lat="46.64592" lon="6.0828">
        <ele>1036</ele>
        <time>2016-06-26T09:42:54Z</time>
      </trkpt>
      <trkpt lat="46.64581" lon="6.08256">
        <ele>1038</ele>
        <time>2016-06-26T09:42:57Z</time>
      </trkpt>
      <trkpt lat="46.64566" lon="6.08231">
        <ele>1034</ele>
        <time>2016-06-26T09:43:00Z</time>
      </trkpt>
      <trkpt lat="46.6455" lon="6.08208">
        <ele>1034</ele>
        <time>2016-06-26T09:43:03Z</time>
      </trkpt>
      <trkpt lat="46.64543" lon="6.08178">
        <ele>1031</ele>
        <time>2016-06-26T09:43:07Z</time>
      </trkpt>
      <trkpt lat="46.64558" lon="6.08159">
        <ele>1021</ele>
        <time>2016-06-26T09:43:10Z</time>
      </trkpt>
      <trkpt lat="46.64573" lon="6.08135">
        <ele>1020</ele>
        <time>2016-06-26T09:43:13Z</time>
      </trkpt>
      <trkpt lat="46.64583" lon="6.0811">
        <ele>1018</ele>
        <time>2016-06-26T09:43:16Z</time>
      </trkpt>
      <trkpt lat="46.64593" lon="6.08084">
        <ele>1016</ele>
        <time>2016-06-26T09:43:19Z</time>
      </trkpt>
      <trkpt lat="46.64606" lon="6.08065">
        <ele>1014</ele>
        <time>2016-06-26T09:43:28Z</time>
      </trkpt>
      <trkpt lat="46.64614" lon="6.08037">
        <ele>1013</ele>
        <time>2016-06-26T09:44:08Z</time>
      </trkpt>
      <trkpt lat="46.64627" lon="6.08011">
        <ele>1012</ele>
        <time>2016-06-26T09:44:12Z</time>
      </trkpt>
      <trkpt lat="46.64637" lon="6.07989">
        <ele>1011</ele>
        <time>2016-06-26T09:44:15Z</time>
      </trkpt>
      <trkpt lat="46.64647" lon="6.07966">
        <ele>1010</ele>
        <time>2016-06-26T09:44:18Z</time>
      </trkpt>
      <trkpt lat="46.64659" lon="6.07943">
        <ele>1010</ele>
        <time>2016-06-26T09:44:21Z</time>
      </trkpt>
      <trkpt lat="46.64673" lon="6.07924">
        <ele>1011</ele>
        <time>2016-06-26T09:44:24Z</time>
      </trkpt>
      <trkpt lat="46.6469" lon="6.07903">
        <ele>1011</ele>
        <time>2016-06-26T09:44:28Z</time>
      </trkpt>
      <trkpt lat="46.64706" lon="6.07882">
        <ele>1011</ele>
        <time>2016-06-26T09:44:32Z</time>
      </trkpt>
      <trkpt lat="46.6472" lon="6.07861">
        <ele>1011</ele>
        <time>2016-06-26T09:44:36Z</time>
      </trkpt>
      <trkpt lat="46.64724" lon="6.07835">
        <ele>1011</ele>
        <time>2016-06-26T09:44:40Z</time>
      </trkpt>
      <trkpt lat="46.64716" lon="6.07807">
        <ele>1009</ele>
        <time>2016-06-26T09:44:44Z</time>
      </trkpt>
      <trkpt lat="46.64707" lon="6.07782">
        <ele>1008</ele>
        <time>2016-06-26T09:44:48Z</time>
      </trkpt>
      <trkpt lat="46.64697" lon="6.07754">
        <ele>1009</ele>
        <time>2016-06-26T09:44:52Z</time>
      </trkpt>
      <trkpt lat="46.64688" lon="6.07723">
        <ele>1007</ele>
        <time>2016-06-26T09:44:56Z</time>
      </trkpt>
      <trkpt lat="46.64678" lon="6.07695">
        <ele>1007</ele>
        <time>2016-06-26T09:44:59Z</time>
      </trkpt>
      <trkpt lat="46.6467" lon="6.0767">
        <ele>1009</ele>
        <time>2016-06-26T09:45:01Z</time>
      </trkpt>
      <trkpt lat="46.64661" lon="6.07644">
        <ele>1007</ele>
        <time>2016-06-26T09:45:03Z</time>
      </trkpt>
      <trkpt lat="46.64649" lon="6.0761">
        <ele>1005</ele>
        <time>2016-06-26T09:45:06Z</time>
      </trkpt>
      <trkpt lat="46.64635" lon="6.07589">
        <ele>1004</ele>
        <time>2016-06-26T09:45:08Z</time>
      </trkpt>
      <trkpt lat="46.64622" lon="6.0757">
        <ele>1001</ele>
        <time>2016-06-26T09:45:10Z</time>
      </trkpt>
      <trkpt lat="46.64606" lon="6.07547">
        <ele>1000</ele>
        <time>2016-06-26T09:45:12Z</time>
      </trkpt>
      <trkpt lat="46.64592" lon="6.07525">
        <ele>1000</ele>
        <time>2016-06-26T09:45:14Z</time>
      </trkpt>
      <trkpt lat="46.6458" lon="6.075">
        <ele>997</ele>
        <time>2016-06-26T09:45:16Z</time>
      </trkpt>
      <trkpt lat="46.6457" lon="6.07471">
        <ele>994</ele>
        <time>2016-06-26T09:45:18Z</time>
      </trkpt>
      <trkpt lat="46.64563" lon="6.07443">
        <ele>993</ele>
        <time>2016-06-26T09:45:20Z</time>
      </trkpt>
      <trkpt lat="46.64553" lon="6.07415">
        <ele>992</ele>
        <time>2016-06-26T09:45:22Z</time>
      </trkpt>
      <trkpt lat="46.64541" lon="6.0739">
        <ele>991</ele>
        <time>2016-06-26T09:45:24Z</time>
      </trkpt>
      <trkpt lat="46.64529" lon="6.07368">
        <ele>990</ele>
        <time>2016-06-26T09:45:26Z</time>
      </trkpt>
      <trkpt lat="46.64516" lon="6.07344">
        <ele>988</ele>
        <time>2016-06-26T09:45:28Z</time>
      </trkpt>
      <trkpt lat="46.64503" lon="6.07317">
        <ele>987</ele>
        <time>2016-06-26T09:45:30Z</time>
      </trkpt>
      <trkpt lat="46.64491" lon="6.07291">
        <ele>982</ele>
        <time>2016-06-26T09:45:32Z</time>
      </trkpt>
      <trkpt lat="46.64478" lon="6.07265">
        <ele>982</ele>
        <time>2016-06-26T09:45:34Z</time>
      </trkpt>
      <trkpt lat="46.64466" lon="6.0724">
        <ele>981</ele>
        <time>2016-06-26T09:45:36Z</time>
      </trkpt>
      <trkpt lat="46.64454" lon="6.07216">
        <ele>980</ele>
        <time>2016-06-26T09:45:38Z</time>
      </trkpt>
      <trkpt lat="46.64435" lon="6.07185">
        <ele>979</ele>
        <time>2016-06-26T09:45:41Z</time>
      </trkpt>
      <trkpt lat="46.6442" lon="6.07168">
        <ele>978</ele>
        <time>2016-06-26T09:45:43Z</time>
      </trkpt>
      <trkpt lat="46.64404" lon="6.07153">
        <ele>975</ele>
        <time>2016-06-26T09:45:45Z</time>
      </trkpt>
      <trkpt lat="46.64383" lon="6.07124">
        <ele>974</ele>
        <time>2016-06-26T09:45:48Z</time>
      </trkpt>
      <trkpt lat="46.64368" lon="6.07103">
        <ele>974</ele>
        <time>2016-06-26T09:45:50Z</time>
      </trkpt>
      <trkpt lat="46.64354" lon="6.0708">
        <ele>973</ele>
        <time>2016-06-26T09:45:52Z</time>
      </trkpt>
      <trkpt lat="46.64345" lon="6.07052">
        <ele>972</ele>
        <time>2016-06-26T09:45:54Z</time>
      </trkpt>
      <trkpt lat="46.64333" lon="6.07025">
        <ele>968</ele>
        <time>2016-06-26T09:45:56Z</time>
      </trkpt>
      <trkpt lat="46.64318" lon="6.07002">
        <ele>967</ele>
        <time>2016-06-26T09:45:58Z</time>
      </trkpt>
      <trkpt lat="46.64303" lon="6.0698">
        <ele>966</ele>
        <time>2016-06-26T09:46:00Z</time>
      </trkpt>
      <trkpt lat="46.64287" lon="6.06959">
        <ele>965</ele>
        <time>2016-06-26T09:46:02Z</time>
      </trkpt>
      <trkpt lat="46.64271" lon="6.06941">
        <ele>965</ele>
        <time>2016-06-26T09:46:04Z</time>
      </trkpt>
      <trkpt lat="46.64256" lon="6.06919">
        <ele>964</ele>
        <time>2016-06-26T09:46:06Z</time>
      </trkpt>
      <trkpt lat="46.64244" lon="6.06897">
        <ele>962</ele>
        <time>2016-06-26T09:46:08Z</time>
      </trkpt>
      <trkpt lat="46.64232" lon="6.06868">
        <ele>962</ele>
        <time>2016-06-26T09:46:11Z</time>
      </trkpt>
      <trkpt lat="46.6422" lon="6.06836">
        <ele>962</ele>
        <time>2016-06-26T09:46:14Z</time>
      </trkpt>
      <trkpt lat="46.6421" lon="6.06811">
        <ele>964</ele>
        <time>2016-06-26T09:46:17Z</time>
      </trkpt>
      <trkpt lat="46.64197" lon="6.06779">
        <ele>964</ele>
        <time>2016-06-26T09:46:21Z</time>
      </trkpt>
      <trkpt lat="46.64186" lon="6.06749">
        <ele>967</ele>
        <time>2016-06-26T09:46:25Z</time>
      </trkpt>
      <trkpt lat="46.64176" lon="6.06719">
        <ele>968</ele>
        <time>2016-06-26T09:46:29Z</time>
      </trkpt>
      <trkpt lat="46.64167" lon="6.06694">
        <ele>968</ele>
        <time>2016-06-26T09:46:32Z</time>
      </trkpt>
      <trkpt lat="46.64154" lon="6.06666">
        <ele>970</ele>
        <time>2016-06-26T09:46:35Z</time>
      </trkpt>
      <trkpt lat="46.64155" lon="6.06639">
        <ele>969</ele>
        <time>2016-06-26T09:46:39Z</time>
      </trkpt>
      <trkpt lat="46.64161" lon="6.06613">
        <ele>970</ele>
        <time>2016-06-26T09:46:51Z</time>
      </trkpt>
      <trkpt lat="46.6416" lon="6.06585">
        <ele>972</ele>
        <time>2016-06-26T09:47:03Z</time>
      </trkpt>
      <trkpt lat="46.64159" lon="6.06558">
        <ele>972</ele>
        <time>2016-06-26T09:47:13Z</time>
      </trkpt>
      <trkpt lat="46.6416" lon="6.06532">
        <ele>972</ele>
        <time>2016-06-26T09:47:22Z</time>
      </trkpt>
      <trkpt lat="46.64162" lon="6.06505">
        <ele>975</ele>
        <time>2016-06-26T09:47:28Z</time>
      </trkpt>
      <trkpt lat="46.6416" lon="6.06478">
        <ele>974</ele>
        <time>2016-06-26T09:47:35Z</time>
      </trkpt>
      <trkpt lat="46.64156" lon="6.06452">
        <ele>973</ele>
        <time>2016-06-26T09:47:41Z</time>
      </trkpt>
      <trkpt lat="46.64151" lon="6.06425">
        <ele>975</ele>
        <time>2016-06-26T09:47:47Z</time>
      </trkpt>
      <trkpt lat="46.64144" lon="6.06399">
        <ele>974</ele>
        <time>2016-06-26T09:47:53Z</time>
      </trkpt>
      <trkpt lat="46.64138" lon="6.06372">
        <ele>973</ele>
        <time>2016-06-26T09:47:59Z</time>
      </trkpt>
      <trkpt lat="46.64134" lon="6.06344">
        <ele>973</ele>
        <time>2016-06-26T09:48:05Z</time>
      </trkpt>
      <trkpt lat="46.64131" lon="6.06313">
        <ele>972</ele>
        <time>2016-06-26T09:48:11Z</time>
      </trkpt>
      <trkpt lat="46.64129" lon="6.06284">
        <ele>972</ele>
        <time>2016-06-26T09:48:17Z</time>
      </trkpt>
      <trkpt lat="46.64126" lon="6.06253">
        <ele>972</ele>
        <time>2016-06-26T09:48:21Z</time>
      </trkpt>
      <trkpt lat="46.64122" lon="6.06224">
        <ele>972</ele>
        <time>2016-06-26T09:48:25Z</time>
      </trkpt>
      <trkpt lat="46.64118" lon="6.06195">
        <ele>972</ele>
        <time>2016-06-26T09:48:28Z</time>
      </trkpt>
      <trkpt lat="46.64114" lon="6.06162">
        <ele>972</ele>
        <time>2016-06-26T09:48:31Z</time>
      </trkpt>
      <trkpt lat="46.64111" lon="6.06129">
        <ele>972</ele>
        <time>2016-06-26T09:48:34Z</time>
      </trkpt>
      <trkpt lat="46.64105" lon="6.06098">
        <ele>971</ele>
        <time>2016-06-26T09:48:37Z</time>
      </trkpt>
      <trkpt lat="46.64102" lon="6.06069">
        <ele>972</ele>
        <time>2016-06-26T09:48:40Z</time>
      </trkpt>
      <trkpt lat="46.64099" lon="6.06041">
        <ele>974</ele>
        <time>2016-06-26T09:48:43Z</time>
      </trkpt>
      <trkpt lat="46.64086" lon="6.06014">
        <ele>972</ele>
        <time>2016-06-26T09:48:46Z</time>
      </trkpt>
      <trkpt lat="46.6407" lon="6.05987">
        <ele>967</ele>
        <time>2016-06-26T09:48:49Z</time>
      </trkpt>
      <trkpt lat="46.64058" lon="6.05965">
        <ele>966</ele>
        <time>2016-06-26T09:48:51Z</time>
      </trkpt>
      <trkpt lat="46.64043" lon="6.05944">
        <ele>965</ele>
        <time>2016-06-26T09:48:53Z</time>
      </trkpt>
      <trkpt lat="46.64025" lon="6.05923">
        <ele>964</ele>
        <time>2016-06-26T09:48:55Z</time>
      </trkpt>
      <trkpt lat="46.64022" lon="6.05893">
        <ele>967</ele>
        <time>2016-06-26T09:48:57Z</time>
      </trkpt>
      <trkpt lat="46.64017" lon="6.05866">
        <ele>968</ele>
        <time>2016-06-26T09:48:59Z</time>
      </trkpt>
      <trkpt lat="46.64015" lon="6.0584">
        <ele>968</ele>
        <time>2016-06-26T09:49:01Z</time>
      </trkpt>
      <trkpt lat="46.64019" lon="6.05807">
        <ele>972</ele>
        <time>2016-06-26T09:49:05Z</time>
      </trkpt>
      <trkpt lat="46.64011" lon="6.05779">
        <ele>972</ele>
        <time>2016-06-26T09:49:08Z</time>
      </trkpt>
      <trkpt lat="46.64002" lon="6.05755">
        <ele>970</ele>
        <time>2016-06-26T09:49:11Z</time>
      </trkpt>
      <trkpt lat="46.63997" lon="6.05723">
        <ele>965</ele>
        <time>2016-06-26T09:49:16Z</time>
      </trkpt>
      <trkpt lat="46.63992" lon="6.05696">
        <ele>965</ele>
        <time>2016-06-26T09:49:23Z</time>
      </trkpt>
      <trkpt lat="46.63982" lon="6.0567">
        <ele>966</ele>
        <time>2016-06-26T09:49:31Z</time>
      </trkpt>
      <trkpt lat="46.63978" lon="6.05642">
        <ele>965</ele>
        <time>2016-06-26T09:49:38Z</time>
      </trkpt>
      <trkpt lat="46.63971" lon="6.05612">
        <ele>965</ele>
        <time>2016-06-26T09:49:43Z</time>
      </trkpt>
      <trkpt lat="46.63966" lon="6.05579">
        <ele>966</ele>
        <time>2016-06-26T09:49:46Z</time>
      </trkpt>
      <trkpt lat="46.63964" lon="6.0555">
        <ele>965</ele>
        <time>2016-06-26T09:49:50Z</time>
      </trkpt>
      <trkpt lat="46.63957" lon="6.0552">
        <ele>965</ele>
        <time>2016-06-26T09:49:54Z</time>
      </trkpt>
      <trkpt lat="46.63956" lon="6.0549">
        <ele>964</ele>
        <time>2016-06-26T09:49:57Z</time>
      </trkpt>
      <trkpt lat="46.6395" lon="6.05453">
        <ele>964</ele>
        <time>2016-06-26T09:50:00Z</time>
      </trkpt>
      <trkpt lat="46.63953" lon="6.05424">
        <ele>964</ele>
        <time>2016-06-26T09:50:02Z</time>
      </trkpt>
      <trkpt lat="46.63957" lon="6.05394">
        <ele>963</ele>
        <time>2016-06-26T09:50:04Z</time>
      </trkpt>
      <trkpt lat="46.63956" lon="6.05367">
        <ele>963</ele>
        <time>2016-06-26T09:50:06Z</time>
      </trkpt>
      <trkpt lat="46.63955" lon="6.05331">
        <ele>960</ele>
        <time>2016-06-26T09:50:09Z</time>
      </trkpt>
      <trkpt lat="46.63956" lon="6.05296">
        <ele>958</ele>
        <time>2016-06-26T09:50:12Z</time>
      </trkpt>
      <trkpt lat="46.63954" lon="6.0527">
        <ele>957</ele>
        <time>2016-06-26T09:50:15Z</time>
      </trkpt>
      <trkpt lat="46.6396" lon="6.05241">
        <ele>949</ele>
        <time>2016-06-26T09:50:18Z</time>
      </trkpt>
      <trkpt lat="46.63973" lon="6.05212">
        <ele>948</ele>
        <time>2016-06-26T09:50:21Z</time>
      </trkpt>
      <trkpt lat="46.63989" lon="6.05196">
        <ele>946</ele>
        <time>2016-06-26T09:50:23Z</time>
      </trkpt>
      <trkpt lat="46.64003" lon="6.05174">
        <ele>942</ele>
        <time>2016-06-26T09:50:25Z</time>
      </trkpt>
      <trkpt lat="46.64012" lon="6.05151">
        <ele>936</ele>
        <time>2016-06-26T09:50:27Z</time>
      </trkpt>
      <trkpt lat="46.64017" lon="6.05123">
        <ele>933</ele>
        <time>2016-06-26T09:50:29Z</time>
      </trkpt>
      <trkpt lat="46.6402" lon="6.05093">
        <ele>933</ele>
        <time>2016-06-26T09:50:31Z</time>
      </trkpt>
      <trkpt lat="46.64016" lon="6.05056">
        <ele>927</ele>
        <time>2016-06-26T09:50:33Z</time>
      </trkpt>
      <trkpt lat="46.64012" lon="6.05022">
        <ele>926</ele>
        <time>2016-06-26T09:50:35Z</time>
      </trkpt>
      <trkpt lat="46.64012" lon="6.04986">
        <ele>923</ele>
        <time>2016-06-26T09:50:37Z</time>
      </trkpt>
      <trkpt lat="46.64011" lon="6.0495">
        <ele>920</ele>
        <time>2016-06-26T09:50:39Z</time>
      </trkpt>
      <trkpt lat="46.64011" lon="6.04921">
        <ele>922</ele>
        <time>2016-06-26T09:50:41Z</time>
      </trkpt>
      <trkpt lat="46.64004" lon="6.04891">
        <ele>915</ele>
        <time>2016-06-26T09:50:43Z</time>
      </trkpt>
      <trkpt lat="46.63994" lon="6.04861">
        <ele>917</ele>
        <time>2016-06-26T09:50:45Z</time>
      </trkpt>
      <trkpt lat="46.63989" lon="6.04829">
        <ele>912</ele>
        <time>2016-06-26T09:50:47Z</time>
      </trkpt>
      <trkpt lat="46.63987" lon="6.04791">
        <ele>910</ele>
        <time>2016-06-26T09:50:49Z</time>
      </trkpt>
      <trkpt lat="46.63984" lon="6.04753">
        <ele>908</ele>
        <time>2016-06-26T09:50:51Z</time>
      </trkpt>
      <trkpt lat="46.63977" lon="6.04716">
        <ele>905</ele>
        <time>2016-06-26T09:50:53Z</time>
      </trkpt>
      <trkpt lat="46.6397" lon="6.04683">
        <ele>904</ele>
        <time>2016-06-26T09:50:55Z</time>
      </trkpt>
      <trkpt lat="46.63963" lon="6.0465">
        <ele>901</ele>
        <time>2016-06-26T09:50:57Z</time>
      </trkpt>
      <trkpt lat="46.63965" lon="6.04613">
        <ele>900</ele>
        <time>2016-06-26T09:50:59Z</time>
      </trkpt>
      <trkpt lat="46.63969" lon="6.04579">
        <ele>896</ele>
        <time>2016-06-26T09:51:01Z</time>
      </trkpt>
      <trkpt lat="46.63972" lon="6.04544">
        <ele>896</ele>
        <time>2016-06-26T09:51:03Z</time>
      </trkpt>
      <trkpt lat="46.63974" lon="6.04509">
        <ele>895</ele>
        <time>2016-06-26T09:51:05Z</time>
      </trkpt>
      <trkpt lat="46.63978" lon="6.04476">
        <ele>893</ele>
        <time>2016-06-26T09:51:07Z</time>
      </trkpt>
      <trkpt lat="46.6398" lon="6.04445">
        <ele>892</ele>
        <time>2016-06-26T09:51:09Z</time>
      </trkpt>
      <trkpt lat="46.63983" lon="6.04414">
        <ele>892</ele>
        <time>2016-06-26T09:51:11Z</time>
      </trkpt>
      <trkpt lat="46.63986" lon="6.04385">
        <ele>894</ele>
        <time>2016-06-26T09:51:13Z</time>
      </trkpt>
      <trkpt lat="46.63989" lon="6.04357">
        <ele>894</ele>
        <time>2016-06-26T09:51:15Z</time>
      </trkpt>
      <trkpt lat="46.63996" lon="6.04324">
        <ele>896</ele>
        <time>2016-06-26T09:51:18Z</time>
      </trkpt>
      <trkpt lat="46.64" lon="6.04298">
        <ele>891</ele>
        <time>2016-06-26T09:51:24Z</time>
      </trkpt>
      <trkpt lat="46.64014" lon="6.04277">
        <ele>891</ele>
        <time>2016-06-26T09:51:31Z</time>
      </trkpt>
      <trkpt lat="46.64028" lon="6.04253">
        <ele>891</ele>
        <time>2016-06-26T09:51:39Z</time>
      </trkpt>
      <trkpt lat="46.64037" lon="6.04224">
        <ele>888</ele>
        <time>2016-06-26T09:51:44Z</time>
      </trkpt>
      <trkpt lat="46.64043" lon="6.04198">
        <ele>887</ele>
        <time>2016-06-26T09:51:49Z</time>
      </trkpt>
      <trkpt lat="46.64047" lon="6.04168">
        <ele>886</ele>
        <time>2016-06-26T09:51:56Z</time>
      </trkpt>
      <trkpt lat="46.64046" lon="6.04137">
        <ele>882</ele>
        <time>2016-06-26T09:52:03Z</time>
      </trkpt>
      <trkpt lat="46.64043" lon="6.04106">
        <ele>881</ele>
        <time>2016-06-26T09:52:07Z</time>
      </trkpt>
      <trkpt lat="46.64033" lon="6.04083">
        <ele>882</ele>
        <time>2016-06-26T09:52:12Z</time>
      </trkpt>
      <trkpt lat="46.6403" lon="6.04054">
        <ele>874</ele>
        <time>2016-06-26T09:52:19Z</time>
      </trkpt>
      <trkpt lat="46.64038" lon="6.04027">
        <ele>871</ele>
        <time>2016-06-26T09:52:27Z</time>
      </trkpt>
      <trkpt lat="46.6405" lon="6.04006">
        <ele>869</ele>
        <time>2016-06-26T09:52:34Z</time>
      </trkpt>
      <trkpt lat="46.6406" lon="6.03982">
        <ele>862</ele>
        <time>2016-06-26T09:52:40Z</time>
      </trkpt>
      <trkpt lat="46.64064" lon="6.0395">
        <ele>861</ele>
        <time>2016-06-26T09:52:46Z</time>
      </trkpt>
      <trkpt lat="46.64066" lon="6.03922">
        <ele>859</ele>
        <time>2016-06-26T09:52:52Z</time>
      </trkpt>
      <trkpt lat="46.64067" lon="6.03896">
        <ele>854</ele>
        <time>2016-06-26T09:53:47Z</time>
      </trkpt>
      <trkpt lat="46.64058" lon="6.03873">
        <ele>852</ele>
        <time>2016-06-26T09:54:06Z</time>
      </trkpt>
      <trkpt lat="46.64052" lon="6.03847">
        <ele>851</ele>
        <time>2016-06-26T09:54:21Z</time>
      </trkpt>
      <trkpt lat="46.64047" lon="6.03821">
        <ele>843</ele>
        <time>2016-06-26T09:54:31Z</time>
      </trkpt>
      <trkpt lat="46.64048" lon="6.03793">
        <ele>841</ele>
        <time>2016-06-26T09:54:40Z</time>
      </trkpt>
      <trkpt lat="46.64053" lon="6.03767">
        <ele>839</ele>
        <time>2016-06-26T09:54:48Z</time>
      </trkpt>
      <trkpt lat="46.64051" lon="6.0374">
        <ele>829</ele>
        <time>2016-06-26T09:54:57Z</time>
      </trkpt>
      <trkpt lat="46.64045" lon="6.0371">
        <ele>826</ele>
        <time>2016-06-26T09:55:03Z</time>
      </trkpt>
      <trkpt lat="46.6403" lon="6.03677">
        <ele>824</ele>
        <time>2016-06-26T09:55:08Z</time>
      </trkpt>
      <trkpt lat="46.64012" lon="6.03655">
        <ele>817</ele>
        <time>2016-06-26T09:55:13Z</time>
      </trkpt>
      <trkpt lat="46.63997" lon="6.03638">
        <ele>815</ele>
        <time>2016-06-26T09:55:18Z</time>
      </trkpt>
      <trkpt lat="46.63986" lon="6.03611">
        <ele>813</ele>
        <time>2016-06-26T09:55:24Z</time>
      </trkpt>
      <trkpt lat="46.63972" lon="6.03578">
        <ele>808</ele>
        <time>2016-06-26T09:55:29Z</time>
      </trkpt>
      <trkpt lat="46.6395" lon="6.03566">
        <ele>807</ele>
        <time>2016-06-26T09:55:33Z</time>
      </trkpt>
      <trkpt lat="46.6393" lon="6.03562">
        <ele>807</ele>
        <time>2016-06-26T09:55:37Z</time>
      </trkpt>
      <trkpt lat="46.63908" lon="6.03561">
        <ele>804</ele>
        <time>2016-06-26T09:55:40Z</time>
      </trkpt>
      <trkpt lat="46.63886" lon="6.03562">
        <ele>803</ele>
        <time>2016-06-26T09:55:44Z</time>
      </trkpt>
      <trkpt lat="46.63868" lon="6.03561">
        <ele>802</ele>
        <time>2016-06-26T09:55:47Z</time>
      </trkpt>
      <trkpt lat="46.63849" lon="6.03556">
        <ele>801</ele>
        <time>2016-06-26T09:55:50Z</time>
      </trkpt>
      <trkpt lat="46.63839" lon="6.03532">
        <ele>799</ele>
        <time>2016-06-26T09:55:53Z</time>
      </trkpt>
      <trkpt lat="46.63836" lon="6.03504">
        <ele>796</ele>
        <time>2016-06-26T09:55:58Z</time>
      </trkpt>
      <trkpt lat="46.63827" lon="6.03476">
        <ele>796</ele>
        <time>2016-06-26T09:56:03Z</time>
      </trkpt>
      <trkpt lat="46.63823" lon="6.03448">
        <ele>796</ele>
        <time>2016-06-26T09:56:07Z</time>
      </trkpt>
      <trkpt lat="46.63813" lon="6.03419">
        <ele>796</ele>
        <time>2016-06-26T09:56:11Z</time>
      </trkpt>
      <trkpt lat="46.63802" lon="6.03392">
        <ele>796</ele>
        <time>2016-06-26T09:56:15Z</time>
      </trkpt>
      <trkpt lat="46.63797" lon="6.03364">
        <ele>796</ele>
        <time>2016-06-26T09:56:18Z</time>
      </trkpt>
      <trkpt lat="46.63796" lon="6.03334">
        <ele>796</ele>
        <time>2016-06-26T09:56:21Z</time>
      </trkpt>
      <trkpt lat="46.63792" lon="6.03305">
        <ele>794</ele>
        <time>2016-06-26T09:56:24Z</time>
      </trkpt>
      <trkpt lat="46.63796" lon="6.03277">
        <ele>793</ele>
        <time>2016-06-26T09:56:27Z</time>
      </trkpt>
      <trkpt lat="46.63808" lon="6.03256">
        <ele>793</ele>
        <time>2016-06-26T09:56:30Z</time>
      </trkpt>
      <trkpt lat="46.63825" lon="6.03241">
        <ele>792</ele>
        <time>2016-06-26T09:56:33Z</time>
      </trkpt>
      <trkpt lat="46.63841" lon="6.0322">
        <ele>793</ele>
        <time>2016-06-26T09:56:36Z</time>
      </trkpt>
      <trkpt lat="46.63845" lon="6.0319">
        <ele>792</ele>
        <time>2016-06-26T09:56:40Z</time>
      </trkpt>
      <trkpt lat="46.63828" lon="6.03178">
        <ele>790</ele>
        <time>2016-06-26T09:57:12Z</time>
      </trkpt>
      <trkpt lat="46.63818" lon="6.03154">
        <ele>791</ele>
        <time>2016-06-26T09:57:18Z</time>
      </trkpt>
      <trkpt lat="46.63806" lon="6.03132">
        <ele>792</ele>
        <time>2016-06-26T09:57:27Z</time>
      </trkpt>
      <trkpt lat="46.63796" lon="6.0311">
        <ele>793</ele>
        <time>2016-06-26T09:57:36Z</time>
      </trkpt>
      <trkpt lat="46.63786" lon="6.03086">
        <ele>793</ele>
        <time>2016-06-26T09:57:48Z</time>
      </trkpt>
      <trkpt lat="46.63775" lon="6.03064">
        <ele>795</ele>
        <time>2016-06-26T09:58:08Z</time>
      </trkpt>
      <trkpt lat="46.63765" lon="6.03041">
        <ele>796</ele>
        <time>2016-06-26T09:58:24Z</time>
      </trkpt>
      <trkpt lat="46.63782" lon="6.03028">
        <ele>796</ele>
        <time>2016-06-26T09:58:44Z</time>
      </trkpt>
      <trkpt lat="46.63794" lon="6.03047">
        <ele>796</ele>
        <time>2016-06-26T09:59:42Z</time>
      </trkpt>
      <trkpt lat="46.63807" lon="6.03066">
        <ele>795</ele>
        <time>2016-06-26T10:00:32Z</time>
      </trkpt>
      <trkpt lat="46.63807" lon="6.03039">
        <ele>796</ele>
        <time>2016-06-26T10:16:19Z</time>
      </trkpt>
      <trkpt lat="46.63825" lon="6.03026">
        <ele>796</ele>
        <time>2016-06-26T10:17:11Z</time>
      </trkpt>
      <trkpt lat="46.63845" lon="6.03027">
        <ele>794</ele>
        <time>2016-06-26T10:17:17Z</time>
      </trkpt>
      <trkpt lat="46.63864" lon="6.03022">
        <ele>793</ele>
        <time>2016-06-26T10:17:23Z</time>
      </trkpt>
      <trkpt lat="46.63882" lon="6.03015">
        <ele>792</ele>
        <time>2016-06-26T10:17:30Z</time>
      </trkpt>
      <trkpt lat="46.639" lon="6.0301">
        <ele>792</ele>
        <time>2016-06-26T10:18:01Z</time>
      </trkpt>
      <trkpt lat="46.6392" lon="6.03011">
        <ele>790</ele>
        <time>2016-06-26T10:18:10Z</time>
      </trkpt>
      <trkpt lat="46.6394" lon="6.03008">
        <ele>789</ele>
        <time>2016-06-26T10:18:18Z</time>
      </trkpt>
      <trkpt lat="46.6396" lon="6.03005">
        <ele>789</ele>
        <time>2016-06-26T10:18:24Z</time>
      </trkpt>
      <trkpt lat="46.63981" lon="6.03002">
        <ele>788</ele>
        <time>2016-06-26T10:18:29Z</time>
      </trkpt>
      <trkpt lat="46.64001" lon="6.02996">
        <ele>789</ele>
        <time>2016-06-26T10:18:34Z</time>
      </trkpt>
      <trkpt lat="46.6402" lon="6.02978">
        <ele>791</ele>
        <time>2016-06-26T10:18:37Z</time>
      </trkpt>
      <trkpt lat="46.64033" lon="6.0296">
        <ele>791</ele>
        <time>2016-06-26T10:18:40Z</time>
      </trkpt>
      <trkpt lat="46.64047" lon="6.02935">
        <ele>792</ele>
        <time>2016-06-26T10:18:44Z</time>
      </trkpt>
      <trkpt lat="46.64054" lon="6.02904">
        <ele>792</ele>
        <time>2016-06-26T10:18:48Z</time>
      </trkpt>
      <trkpt lat="46.64053" lon="6.02873">
        <ele>792</ele>
        <time>2016-06-26T10:18:51Z</time>
      </trkpt>
      <trkpt lat="46.64061" lon="6.02842">
        <ele>793</ele>
        <time>2016-06-26T10:18:55Z</time>
      </trkpt>
      <trkpt lat="46.64067" lon="6.02817">
        <ele>794</ele>
        <time>2016-06-26T10:18:58Z</time>
      </trkpt>
      <trkpt lat="46.64078" lon="6.02791">
        <ele>794</ele>
        <time>2016-06-26T10:19:01Z</time>
      </trkpt>
      <trkpt lat="46.64093" lon="6.02769">
        <ele>795</ele>
        <time>2016-06-26T10:19:04Z</time>
      </trkpt>
      <trkpt lat="46.64114" lon="6.02753">
        <ele>796</ele>
        <time>2016-06-26T10:19:07Z</time>
      </trkpt>
      <trkpt lat="46.64138" lon="6.02744">
        <ele>797</ele>
        <time>2016-06-26T10:19:10Z</time>
      </trkpt>
      <trkpt lat="46.64161" lon="6.02739">
        <ele>797</ele>
        <time>2016-06-26T10:19:13Z</time>
      </trkpt>
      <trkpt lat="46.64184" lon="6.02735">
        <ele>798</ele>
        <time>2016-06-26T10:19:16Z</time>
      </trkpt>
      <trkpt lat="46.64207" lon="6.02729">
        <ele>799</ele>
        <time>2016-06-26T10:19:19Z</time>
      </trkpt>
      <trkpt lat="46.64231" lon="6.02722">
        <ele>800</ele>
        <time>2016-06-26T10:19:22Z</time>
      </trkpt>
      <trkpt lat="46.64257" lon="6.02718">
        <ele>803</ele>
        <time>2016-06-26T10:19:25Z</time>
      </trkpt>
      <trkpt lat="46.6428" lon="6.02708">
        <ele>804</ele>
        <time>2016-06-26T10:19:28Z</time>
      </trkpt>
      <trkpt lat="46.64304" lon="6.02695">
        <ele>804</ele>
        <time>2016-06-26T10:19:31Z</time>
      </trkpt>
      <trkpt lat="46.64323" lon="6.02682">
        <ele>804</ele>
        <time>2016-06-26T10:19:34Z</time>
      </trkpt>
      <trkpt lat="46.64345" lon="6.02672">
        <ele>808</ele>
        <time>2016-06-26T10:19:38Z</time>
      </trkpt>
      <trkpt lat="46.64366" lon="6.02666">
        <ele>811</ele>
        <time>2016-06-26T10:19:41Z</time>
      </trkpt>
      <trkpt lat="46.64386" lon="6.02658">
        <ele>813</ele>
        <time>2016-06-26T10:19:44Z</time>
      </trkpt>
      <trkpt lat="46.64406" lon="6.02646">
        <ele>814</ele>
        <time>2016-06-26T10:19:47Z</time>
      </trkpt>
      <trkpt lat="46.64426" lon="6.02635">
        <ele>818</ele>
        <time>2016-06-26T10:19:50Z</time>
      </trkpt>
      <trkpt lat="46.64444" lon="6.02626">
        <ele>819</ele>
        <time>2016-06-26T10:19:53Z</time>
      </trkpt>
      <trkpt lat="46.64462" lon="6.02609">
        <ele>819</ele>
        <time>2016-06-26T10:19:57Z</time>
      </trkpt>
      <trkpt lat="46.64478" lon="6.02595">
        <ele>818</ele>
        <time>2016-06-26T10:20:00Z</time>
      </trkpt>
      <trkpt lat="46.64617" lon="6.02416">
        <ele>788</ele>
        <time>2016-06-26T10:21:30Z</time>
      </trkpt>
      <trkpt lat="46.64636" lon="6.02413">
        <ele>786</ele>
        <time>2016-06-26T10:21:32Z</time>
      </trkpt>
      <trkpt lat="46.64661" lon="6.02405">
        <ele>786</ele>
        <time>2016-06-26T10:21:35Z</time>
      </trkpt>
      <trkpt lat="46.64679" lon="6.02398">
        <ele>781</ele>
        <time>2016-06-26T10:21:38Z</time>
      </trkpt>
      <trkpt lat="46.64697" lon="6.02387">
        <ele>778</ele>
        <time>2016-06-26T10:21:41Z</time>
      </trkpt>
      <trkpt lat="46.64717" lon="6.02381">
        <ele>777</ele>
        <time>2016-06-26T10:21:45Z</time>
      </trkpt>
      <trkpt lat="46.64742" lon="6.02376">
        <ele>776</ele>
        <time>2016-06-26T10:21:49Z</time>
      </trkpt>
      <trkpt lat="46.64767" lon="6.02376">
        <ele>777</ele>
        <time>2016-06-26T10:21:52Z</time>
      </trkpt>
      <trkpt lat="46.64792" lon="6.02375">
        <ele>777</ele>
        <time>2016-06-26T10:21:55Z</time>
      </trkpt>
      <trkpt lat="46.64817" lon="6.02364">
        <ele>774</ele>
        <time>2016-06-26T10:21:58Z</time>
      </trkpt>
      <trkpt lat="46.64835" lon="6.02347">
        <ele>774</ele>
        <time>2016-06-26T10:22:01Z</time>
      </trkpt>
      <trkpt lat="46.64851" lon="6.0232">
        <ele>769</ele>
        <time>2016-06-26T10:23:24Z</time>
      </trkpt>
      <trkpt lat="46.6486" lon="6.02295">
        <ele>771</ele>
        <time>2016-06-26T10:23:27Z</time>
      </trkpt>
      <trkpt lat="46.64872" lon="6.02267">
        <ele>772</ele>
        <time>2016-06-26T10:23:30Z</time>
      </trkpt>
      <trkpt lat="46.64882" lon="6.02233">
        <ele>767</ele>
        <time>2016-06-26T10:23:33Z</time>
      </trkpt>
      <trkpt lat="46.64891" lon="6.02194">
        <ele>765</ele>
        <time>2016-06-26T10:23:36Z</time>
      </trkpt>
      <trkpt lat="46.64905" lon="6.02165">
        <ele>763</ele>
        <time>2016-06-26T10:23:39Z</time>
      </trkpt>
      <trkpt lat="46.64921" lon="6.02137">
        <ele>768</ele>
        <time>2016-06-26T10:23:42Z</time>
      </trkpt>
      <trkpt lat="46.64936" lon="6.0211">
        <ele>765</ele>
        <time>2016-06-26T10:23:45Z</time>
      </trkpt>
      <trkpt lat="46.64954" lon="6.02086">
        <ele>765</ele>
        <time>2016-06-26T10:23:48Z</time>
      </trkpt>
      <trkpt lat="46.64974" lon="6.02073">
        <ele>757</ele>
        <time>2016-06-26T10:23:51Z</time>
      </trkpt>
      <trkpt lat="46.64995" lon="6.02056">
        <ele>757</ele>
        <time>2016-06-26T10:23:54Z</time>
      </trkpt>
      <trkpt lat="46.65014" lon="6.02035">
        <ele>762</ele>
        <time>2016-06-26T10:23:57Z</time>
      </trkpt>
      <trkpt lat="46.65033" lon="6.02018">
        <ele>761</ele>
        <time>2016-06-26T10:24:00Z</time>
      </trkpt>
      <trkpt lat="46.65056" lon="6.02">
        <ele>753</ele>
        <time>2016-06-26T10:24:03Z</time>
      </trkpt>
      <trkpt lat="46.65079" lon="6.01984">
        <ele>754</ele>
        <time>2016-06-26T10:24:06Z</time>
      </trkpt>
      <trkpt lat="46.65105" lon="6.01979">
        <ele>754</ele>
        <time>2016-06-26T10:24:09Z</time>
      </trkpt>
      <trkpt lat="46.65129" lon="6.0197">
        <ele>752</ele>
        <time>2016-06-26T10:24:12Z</time>
      </trkpt>
      <trkpt lat="46.6515" lon="6.01952">
        <ele>750</ele>
        <time>2016-06-26T10:24:15Z</time>
      </trkpt>
      <trkpt lat="46.65165" lon="6.01933">
        <ele>747</ele>
        <time>2016-06-26T10:24:17Z</time>
      </trkpt>
      <trkpt lat="46.65182" lon="6.01906">
        <ele>747</ele>
        <time>2016-06-26T10:24:20Z</time>
      </trkpt>
      <trkpt lat="46.65191" lon="6.0186">
        <ele>749</ele>
        <time>2016-06-26T10:24:23Z</time>
      </trkpt>
      <trkpt lat="46.65191" lon="6.01831">
        <ele>750</ele>
        <time>2016-06-26T10:24:26Z</time>
      </trkpt>
      <trkpt lat="46.65185" lon="6.01796">
        <ele>751</ele>
        <time>2016-06-26T10:24:29Z</time>
      </trkpt>
      <trkpt lat="46.65178" lon="6.01761">
        <ele>748</ele>
        <time>2016-06-26T10:24:32Z</time>
      </trkpt>
      <trkpt lat="46.65177" lon="6.01635">
        <ele>745</ele>
        <time>2016-06-26T10:24:45Z</time>
      </trkpt>
      <trkpt lat="46.65194" lon="6.01615">
        <ele>747</ele>
        <time>2016-06-26T10:24:50Z</time>
      </trkpt>
      <trkpt lat="46.65208" lon="6.01591">
        <ele>749</ele>
        <time>2016-06-26T10:24:55Z</time>
      </trkpt>
      <trkpt lat="46.65222" lon="6.01566">
        <ele>746</ele>
        <time>2016-06-26T10:25:00Z</time>
      </trkpt>
      <trkpt lat="46.65234" lon="6.0154">
        <ele>744</ele>
        <time>2016-06-26T10:25:04Z</time>
      </trkpt>
      <trkpt lat="46.65248" lon="6.01513">
        <ele>740</ele>
        <time>2016-06-26T10:25:08Z</time>
      </trkpt>
      <trkpt lat="46.65261" lon="6.01495">
        <ele>742</ele>
        <time>2016-06-26T10:25:11Z</time>
      </trkpt>
      <trkpt lat="46.65277" lon="6.01476">
        <ele>745</ele>
        <time>2016-06-26T10:25:14Z</time>
      </trkpt>
      <trkpt lat="46.65292" lon="6.01461">
        <ele>746</ele>
        <time>2016-06-26T10:25:17Z</time>
      </trkpt>
      <trkpt lat="46.6531" lon="6.01439">
        <ele>745</ele>
        <time>2016-06-26T10:25:21Z</time>
      </trkpt>
      <trkpt lat="46.65328" lon="6.01423">
        <ele>743</ele>
        <time>2016-06-26T10:25:24Z</time>
      </trkpt>
      <trkpt lat="46.65345" lon="6.01406">
        <ele>744</ele>
        <time>2016-06-26T10:25:27Z</time>
      </trkpt>
      <trkpt lat="46.65365" lon="6.01386">
        <ele>745</ele>
        <time>2016-06-26T10:25:31Z</time>
      </trkpt>
      <trkpt lat="46.6538" lon="6.01372">
        <ele>746</ele>
        <time>2016-06-26T10:25:34Z</time>
      </trkpt>
      <trkpt lat="46.65398" lon="6.01353">
        <ele>746</ele>
        <time>2016-06-26T10:25:38Z</time>
      </trkpt>
      <trkpt lat="46.65414" lon="6.01329">
        <ele>743</ele>
        <time>2016-06-26T10:25:42Z</time>
      </trkpt>
      <trkpt lat="46.65426" lon="6.01308">
        <ele>751</ele>
        <time>2016-06-26T10:25:46Z</time>
      </trkpt>
      <trkpt lat="46.65431" lon="6.01274">
        <ele>747</ele>
        <time>2016-06-26T10:25:50Z</time>
      </trkpt>
      <trkpt lat="46.65435" lon="6.01248">
        <ele>737</ele>
        <time>2016-06-26T10:25:52Z</time>
      </trkpt>
      <trkpt lat="46.65435" lon="6.01211">
        <ele>738</ele>
        <time>2016-06-26T10:25:55Z</time>
      </trkpt>
      <trkpt lat="46.65434" lon="6.01172">
        <ele>734</ele>
        <time>2016-06-26T10:25:58Z</time>
      </trkpt>
      <trkpt lat="46.65431" lon="6.0114">
        <ele>731</ele>
        <time>2016-06-26T10:26:01Z</time>
      </trkpt>
      <trkpt lat="46.65426" lon="6.01112">
        <ele>731</ele>
        <time>2016-06-26T10:26:04Z</time>
      </trkpt>
      <trkpt lat="46.65419" lon="6.01083">
        <ele>728</ele>
        <time>2016-06-26T10:26:08Z</time>
      </trkpt>
      <trkpt lat="46.65414" lon="6.01057">
        <ele>729</ele>
        <time>2016-06-26T10:26:12Z</time>
      </trkpt>
      <trkpt lat="46.65407" lon="6.01028">
        <ele>729</ele>
        <time>2016-06-26T10:26:17Z</time>
      </trkpt>
      <trkpt lat="46.65399" lon="6.00997">
        <ele>727</ele>
        <time>2016-06-26T10:26:22Z</time>
      </trkpt>
      <trkpt lat="46.65391" lon="6.0097">
        <ele>726</ele>
        <time>2016-06-26T10:26:27Z</time>
      </trkpt>
      <trkpt lat="46.65382" lon="6.00944">
        <ele>726</ele>
        <time>2016-06-26T10:26:34Z</time>
      </trkpt>
      <trkpt lat="46.65386" lon="6.00917">
        <ele>726</ele>
        <time>2016-06-26T10:26:40Z</time>
      </trkpt>
      <trkpt lat="46.65367" lon="6.00919">
        <ele>726</ele>
        <time>2016-06-26T10:26:47Z</time>
      </trkpt>
      <trkpt lat="46.65346" lon="6.00931">
        <ele>725</ele>
        <time>2016-06-26T10:26:51Z</time>
      </trkpt>
      <trkpt lat="46.65328" lon="6.00945">
        <ele>726</ele>
        <time>2016-06-26T10:26:56Z</time>
      </trkpt>
      <trkpt lat="46.65308" lon="6.00953">
        <ele>728</ele>
        <time>2016-06-26T10:27:01Z</time>
      </trkpt>
      <trkpt lat="46.6529" lon="6.00939">
        <ele>728</ele>
        <time>2016-06-26T10:27:06Z</time>
      </trkpt>
      <trkpt lat="46.65278" lon="6.00914">
        <ele>725</ele>
        <time>2016-06-26T10:27:10Z</time>
      </trkpt>
      <trkpt lat="46.65275" lon="6.00886">
        <ele>725</ele>
        <time>2016-06-26T10:27:13Z</time>
      </trkpt>
      <trkpt lat="46.65274" lon="6.00857">
        <ele>724</ele>
        <time>2016-06-26T10:27:16Z</time>
      </trkpt>
      <trkpt lat="46.65277" lon="6.00822">
        <ele>724</ele>
        <time>2016-06-26T10:27:19Z</time>
      </trkpt>
      <trkpt lat="46.65287" lon="6.00789">
        <ele>724</ele>
        <time>2016-06-26T10:27:22Z</time>
      </trkpt>
      <trkpt lat="46.65305" lon="6.00763">
        <ele>722</ele>
        <time>2016-06-26T10:27:25Z</time>
      </trkpt>
      <trkpt lat="46.65322" lon="6.00742">
        <ele>721</ele>
        <time>2016-06-26T10:27:28Z</time>
      </trkpt>
      <trkpt lat="46.65337" lon="6.00719">
        <ele>719</ele>
        <time>2016-06-26T10:27:31Z</time>
      </trkpt>
      <trkpt lat="46.65348" lon="6.00697">
        <ele>719</ele>
        <time>2016-06-26T10:27:34Z</time>
      </trkpt>
      <trkpt lat="46.65362" lon="6.00673">
        <ele>719</ele>
        <time>2016-06-26T10:27:39Z</time>
      </trkpt>
      <trkpt lat="46.65364" lon="6.00645">
        <ele>719</ele>
        <time>2016-06-26T10:27:45Z</time>
      </trkpt>
      <trkpt lat="46.65367" lon="6.00619">
        <ele>719</ele>
        <time>2016-06-26T10:27:49Z</time>
      </trkpt>
      <trkpt lat="46.65381" lon="6.0059">
        <ele>718</ele>
        <time>2016-06-26T10:27:53Z</time>
      </trkpt>
      <trkpt lat="46.65395" lon="6.00567">
        <ele>715</ele>
        <time>2016-06-26T10:27:56Z</time>
      </trkpt>
      <trkpt lat="46.65407" lon="6.00535">
        <ele>713</ele>
        <time>2016-06-26T10:27:59Z</time>
      </trkpt>
      <trkpt lat="46.65419" lon="6.00514">
        <ele>708</ele>
        <time>2016-06-26T10:28:01Z</time>
      </trkpt>
      <trkpt lat="46.65435" lon="6.00497">
        <ele>704</ele>
        <time>2016-06-26T10:28:03Z</time>
      </trkpt>
      <trkpt lat="46.65454" lon="6.00489">
        <ele>703</ele>
        <time>2016-06-26T10:28:05Z</time>
      </trkpt>
      <trkpt lat="46.65475" lon="6.00479">
        <ele>701</ele>
        <time>2016-06-26T10:28:08Z</time>
      </trkpt>
      <trkpt lat="46.65492" lon="6.00451">
        <ele>700</ele>
        <time>2016-06-26T10:28:11Z</time>
      </trkpt>
      <trkpt lat="46.65507" lon="6.0043">
        <ele>696</ele>
        <time>2016-06-26T10:28:13Z</time>
      </trkpt>
      <trkpt lat="46.65522" lon="6.00416">
        <ele>694</ele>
        <time>2016-06-26T10:28:15Z</time>
      </trkpt>
      <trkpt lat="46.6554" lon="6.00401">
        <ele>693</ele>
        <time>2016-06-26T10:28:18Z</time>
      </trkpt>
      <trkpt lat="46.6556" lon="6.00408">
        <ele>693</ele>
        <time>2016-06-26T10:28:22Z</time>
      </trkpt>
      <trkpt lat="46.65572" lon="6.00429">
        <ele>695</ele>
        <time>2016-06-26T10:28:27Z</time>
      </trkpt>
      <trkpt lat="46.65575" lon="6.00458">
        <ele>696</ele>
        <time>2016-06-26T10:28:35Z</time>
      </trkpt>
      <trkpt lat="46.65581" lon="6.00484">
        <ele>697</ele>
        <time>2016-06-26T10:28:44Z</time>
      </trkpt>
      <trkpt lat="46.6559" lon="6.00508">
        <ele>697</ele>
        <time>2016-06-26T10:29:26Z</time>
      </trkpt>
      <trkpt lat="46.65596" lon="6.00535">
        <ele>698</ele>
        <time>2016-06-26T10:29:29Z</time>
      </trkpt>
      <trkpt lat="46.65611" lon="6.00555">
        <ele>698</ele>
        <time>2016-06-26T10:29:33Z</time>
      </trkpt>
      <trkpt lat="46.65629" lon="6.00566">
        <ele>698</ele>
        <time>2016-06-26T10:29:39Z</time>
      </trkpt>
      <trkpt lat="46.65638" lon="6.0059">
        <ele>703</ele>
        <time>2016-06-26T10:29:50Z</time>
      </trkpt>
      <trkpt lat="46.65643" lon="6.00619">
        <ele>704</ele>
        <time>2016-06-26T10:30:02Z</time>
      </trkpt>
      <trkpt lat="46.65636" lon="6.00648">
        <ele>705</ele>
        <time>2016-06-26T10:30:14Z</time>
      </trkpt>
      <trkpt lat="46.65624" lon="6.00668">
        <ele>708</ele>
        <time>2016-06-26T10:30:25Z</time>
      </trkpt>
      <trkpt lat="46.6561" lon="6.00687">
        <ele>709</ele>
        <time>2016-06-26T10:30:35Z</time>
      </trkpt>
      <trkpt lat="46.65597" lon="6.00706">
        <ele>709</ele>
        <time>2016-06-26T10:30:45Z</time>
      </trkpt>
      <trkpt lat="46.65582" lon="6.00723">
        <ele>710</ele>
        <time>2016-06-26T10:30:55Z</time>
      </trkpt>
      <trkpt lat="46.65567" lon="6.00741">
        <ele>710</ele>
        <time>2016-06-26T10:31:05Z</time>
      </trkpt>
      <trkpt lat="46.65547" lon="6.00754">
        <ele>714</ele>
        <time>2016-06-26T10:31:16Z</time>
      </trkpt>
      <trkpt lat="46.65528" lon="6.00758">
        <ele>715</ele>
        <time>2016-06-26T10:31:26Z</time>
      </trkpt>
      <trkpt lat="46.6551" lon="6.00759">
        <ele>715</ele>
        <time>2016-06-26T10:31:36Z</time>
      </trkpt>
      <trkpt lat="46.65493" lon="6.00768">
        <ele>718</ele>
        <time>2016-06-26T10:31:46Z</time>
      </trkpt>
      <trkpt lat="46.65486" lon="6.00794">
        <ele>720</ele>
        <time>2016-06-26T10:31:57Z</time>
      </trkpt>
      <trkpt lat="46.65493" lon="6.00819">
        <ele>721</ele>
        <time>2016-06-26T10:32:07Z</time>
      </trkpt>
      <trkpt lat="46.65502" lon="6.00842">
        <ele>722</ele>
        <time>2016-06-26T10:32:16Z</time>
      </trkpt>
      <trkpt lat="46.65509" lon="6.00869">
        <ele>722</ele>
        <time>2016-06-26T10:32:23Z</time>
      </trkpt>
      <trkpt lat="46.65513" lon="6.00898">
        <ele>723</ele>
        <time>2016-06-26T10:32:29Z</time>
      </trkpt>
      <trkpt lat="46.65534" lon="6.00907">
        <ele>723</ele>
        <time>2016-06-26T10:32:35Z</time>
      </trkpt>
      <trkpt lat="46.65555" lon="6.0091">
        <ele>723</ele>
        <time>2016-06-26T10:32:39Z</time>
      </trkpt>
      <trkpt lat="46.65573" lon="6.00907">
        <ele>723</ele>
        <time>2016-06-26T10:32:43Z</time>
      </trkpt>
      <trkpt lat="46.65593" lon="6.00898">
        <ele>724</ele>
        <time>2016-06-26T10:32:49Z</time>
      </trkpt>
      <trkpt lat="46.65611" lon="6.00886">
        <ele>723</ele>
        <time>2016-06-26T10:32:56Z</time>
      </trkpt>
      <trkpt lat="46.6563" lon="6.00876">
        <ele>723</ele>
        <time>2016-06-26T10:33:04Z</time>
      </trkpt>
      <trkpt lat="46.6565" lon="6.00881">
        <ele>724</ele>
        <time>2016-06-26T10:33:12Z</time>
      </trkpt>
      <trkpt lat="46.65663" lon="6.00904">
        <ele>727</ele>
        <time>2016-06-26T10:33:20Z</time>
      </trkpt>
      <trkpt lat="46.65665" lon="6.00932">
        <ele>731</ele>
        <time>2016-06-26T10:33:27Z</time>
      </trkpt>
      <trkpt lat="46.65658" lon="6.00957">
        <ele>733</ele>
        <time>2016-06-26T10:33:35Z</time>
      </trkpt>
      <trkpt lat="46.65672" lon="6.00977">
        <ele>738</ele>
        <time>2016-06-26T10:33:44Z</time>
      </trkpt>
      <trkpt lat="46.65691" lon="6.00977">
        <ele>738</ele>
        <time>2016-06-26T10:33:50Z</time>
      </trkpt>
      <trkpt lat="46.65711" lon="6.00974">
        <ele>738</ele>
        <time>2016-06-26T10:33:54Z</time>
      </trkpt>
      <trkpt lat="46.65732" lon="6.00966">
        <ele>738</ele>
        <time>2016-06-26T10:33:58Z</time>
      </trkpt>
      <trkpt lat="46.65752" lon="6.00959">
        <ele>737</ele>
        <time>2016-06-26T10:34:02Z</time>
      </trkpt>
      <trkpt lat="46.65775" lon="6.00963">
        <ele>737</ele>
        <time>2016-06-26T10:34:06Z</time>
      </trkpt>
      <trkpt lat="46.65797" lon="6.0097">
        <ele>737</ele>
        <time>2016-06-26T10:34:10Z</time>
      </trkpt>
      <trkpt lat="46.65817" lon="6.00989">
        <ele>740</ele>
        <time>2016-06-26T10:34:14Z</time>
      </trkpt>
      <trkpt lat="46.65833" lon="6.01004">
        <ele>747</ele>
        <time>2016-06-26T10:34:17Z</time>
      </trkpt>
      <trkpt lat="46.65848" lon="6.01022">
        <ele>747</ele>
        <time>2016-06-26T10:34:20Z</time>
      </trkpt>
      <trkpt lat="46.6587" lon="6.01032">
        <ele>747</ele>
        <time>2016-06-26T10:34:24Z</time>
      </trkpt>
      <trkpt lat="46.65889" lon="6.01036">
        <ele>746</ele>
        <time>2016-06-26T10:34:27Z</time>
      </trkpt>
      <trkpt lat="46.65907" lon="6.01029">
        <ele>743</ele>
        <time>2016-06-26T10:34:30Z</time>
      </trkpt>
      <trkpt lat="46.65925" lon="6.01018">
        <ele>736</ele>
        <time>2016-06-26T10:34:33Z</time>
      </trkpt>
      <trkpt lat="46.65941" lon="6.01005">
        <ele>737</ele>
        <time>2016-06-26T10:34:36Z</time>
      </trkpt>
      <trkpt lat="46.65956" lon="6.00978">
        <ele>736</ele>
        <time>2016-06-26T10:34:40Z</time>
      </trkpt>
      <trkpt lat="46.65967" lon="6.00953">
        <ele>737</ele>
        <time>2016-06-26T10:34:44Z</time>
      </trkpt>
      <trkpt lat="46.65971" lon="6.00927">
        <ele>739</ele>
        <time>2016-06-26T10:34:48Z</time>
      </trkpt>
      <trkpt lat="46.65968" lon="6.00899">
        <ele>741</ele>
        <time>2016-06-26T10:34:53Z</time>
      </trkpt>
      <trkpt lat="46.65963" lon="6.00872">
        <ele>740</ele>
        <time>2016-06-26T10:34:57Z</time>
      </trkpt>
      <trkpt lat="46.65954" lon="6.00847">
        <ele>739</ele>
        <time>2016-06-26T10:35:03Z</time>
      </trkpt>
      <trkpt lat="46.65941" lon="6.00828">
        <ele>741</ele>
        <time>2016-06-26T10:35:08Z</time>
      </trkpt>
      <trkpt lat="46.65928" lon="6.00806">
        <ele>741</ele>
        <time>2016-06-26T10:35:13Z</time>
      </trkpt>
      <trkpt lat="46.65914" lon="6.00785">
        <ele>726</ele>
        <time>2016-06-26T10:35:19Z</time>
      </trkpt>
      <trkpt lat="46.65904" lon="6.00761">
        <ele>729</ele>
        <time>2016-06-26T10:35:25Z</time>
      </trkpt>
      <trkpt lat="46.65893" lon="6.00737">
        <ele>727</ele>
        <time>2016-06-26T10:35:31Z</time>
      </trkpt>
      <trkpt lat="46.65893" lon="6.00706">
        <ele>726</ele>
        <time>2016-06-26T10:35:37Z</time>
      </trkpt>
      <trkpt lat="46.65897" lon="6.00678">
        <ele>728</ele>
        <time>2016-06-26T10:35:43Z</time>
      </trkpt>
      <trkpt lat="46.65903" lon="6.00653">
        <ele>726</ele>
        <time>2016-06-26T10:35:49Z</time>
      </trkpt>
      <trkpt lat="46.65914" lon="6.00627">
        <ele>723</ele>
        <time>2016-06-26T10:35:55Z</time>
      </trkpt>
      <trkpt lat="46.65923" lon="6.00602">
        <ele>741</ele>
        <time>2016-06-26T10:36:00Z</time>
      </trkpt>
      <trkpt lat="46.65933" lon="6.00577">
        <ele>734</ele>
        <time>2016-06-26T10:36:05Z</time>
      </trkpt>
      <trkpt lat="46.65945" lon="6.00552">
        <ele>736</ele>
        <time>2016-06-26T10:36:10Z</time>
      </trkpt>
      <trkpt lat="46.6596" lon="6.00522">
        <ele>737</ele>
        <time>2016-06-26T10:36:15Z</time>
      </trkpt>
      <trkpt lat="46.65974" lon="6.00499">
        <ele>728</ele>
        <time>2016-06-26T10:36:20Z</time>
      </trkpt>
      <trkpt lat="46.65985" lon="6.00479">
        <ele>729</ele>
        <time>2016-06-26T10:36:25Z</time>
      </trkpt>
      <trkpt lat="46.66" lon="6.00456">
        <ele>723</ele>
        <time>2016-06-26T10:36:31Z</time>
      </trkpt>
      <trkpt lat="46.66012" lon="6.00435">
        <ele>750</ele>
        <time>2016-06-26T10:36:36Z</time>
      </trkpt>
      <trkpt lat="46.66026" lon="6.00416">
        <ele>736</ele>
        <time>2016-06-26T10:36:41Z</time>
      </trkpt>
      <trkpt lat="46.6614" lon="6.00318">
        <ele>745</ele>
        <time>2016-06-26T10:37:18Z</time>
      </trkpt>
      <trkpt lat="46.66158" lon="6.00307">
        <ele>746</ele>
        <time>2016-06-26T10:37:23Z</time>
      </trkpt>
      <trkpt lat="46.66175" lon="6.00298">
        <ele>757</ele>
        <time>2016-06-26T10:37:28Z</time>
      </trkpt>
      <trkpt lat="46.6619" lon="6.00284">
        <ele>753</ele>
        <time>2016-06-26T10:37:34Z</time>
      </trkpt>
      <trkpt lat="46.66206" lon="6.0027">
        <ele>752</ele>
        <time>2016-06-26T10:37:40Z</time>
      </trkpt>
      <trkpt lat="46.66222" lon="6.00258">
        <ele>751</ele>
        <time>2016-06-26T10:37:46Z</time>
      </trkpt>
      <trkpt lat="46.66239" lon="6.00244">
        <ele>737</ele>
        <time>2016-06-26T10:37:53Z</time>
      </trkpt>
      <trkpt lat="46.66257" lon="6.00232">
        <ele>743</ele>
        <time>2016-06-26T10:38:00Z</time>
      </trkpt>
      <trkpt lat="46.66274" lon="6.0022">
        <ele>742</ele>
        <time>2016-06-26T10:38:07Z</time>
      </trkpt>
      <trkpt lat="46.66289" lon="6.00204">
        <ele>741</ele>
        <time>2016-06-26T10:38:14Z</time>
      </trkpt>
      <trkpt lat="46.66306" lon="6.00191">
        <ele>741</ele>
        <time>2016-06-26T10:38:22Z</time>
      </trkpt>
      <trkpt lat="46.66323" lon="6.00178">
        <ele>740</ele>
        <time>2016-06-26T10:38:32Z</time>
      </trkpt>
      <trkpt lat="46.66343" lon="6.00176">
        <ele>746</ele>
        <time>2016-06-26T10:38:40Z</time>
      </trkpt>
      <trkpt lat="46.66361" lon="6.00179">
        <ele>750</ele>
        <time>2016-06-26T10:38:49Z</time>
      </trkpt>
      <trkpt lat="46.6638" lon="6.00179">
        <ele>752</ele>
        <time>2016-06-26T10:38:58Z</time>
      </trkpt>
      <trkpt lat="46.66398" lon="6.00163">
        <ele>742</ele>
        <time>2016-06-26T10:39:09Z</time>
      </trkpt>
      <trkpt lat="46.66414" lon="6.00148">
        <ele>742</ele>
        <time>2016-06-26T10:39:14Z</time>
      </trkpt>
      <trkpt lat="46.66428" lon="6.0013">
        <ele>748</ele>
        <time>2016-06-26T10:39:20Z</time>
      </trkpt>
      <trkpt lat="46.66443" lon="6.0011">
        <ele>748</ele>
        <time>2016-06-26T10:39:27Z</time>
      </trkpt>
      <trkpt lat="46.66459" lon="6.00096">
        <ele>749</ele>
        <time>2016-06-26T10:39:35Z</time>
      </trkpt>
      <trkpt lat="46.66476" lon="6.00087">
        <ele>750</ele>
        <time>2016-06-26T10:39:43Z</time>
      </trkpt>
      <trkpt lat="46.66494" lon="6.00077">
        <ele>749</ele>
        <time>2016-06-26T10:39:51Z</time>
      </trkpt>
      <trkpt lat="46.66512" lon="6.00066">
        <ele>751</ele>
        <time>2016-06-26T10:39:59Z</time>
      </trkpt>
      <trkpt lat="46.66529" lon="6.00053">
        <ele>751</ele>
        <time>2016-06-26T10:40:07Z</time>
      </trkpt>
      <trkpt lat="46.66547" lon="6.00043">
        <ele>751</ele>
        <time>2016-06-26T10:40:15Z</time>
      </trkpt>
      <trkpt lat="46.66562" lon="6.00028">
        <ele>751</ele>
        <time>2016-06-26T10:40:22Z</time>
      </trkpt>
      <trkpt lat="46.66576" lon="6.00008">
        <ele>751</ele>
        <time>2016-06-26T10:40:29Z</time>
      </trkpt>
      <trkpt lat="46.66587" lon="5.99984">
        <ele>754</ele>
        <time>2016-06-26T10:40:37Z</time>
      </trkpt>
      <trkpt lat="46.66593" lon="5.99957">
        <ele>755</ele>
        <time>2016-06-26T10:40:46Z</time>
      </trkpt>
      <trkpt lat="46.66598" lon="5.99932">
        <ele>754</ele>
        <time>2016-06-26T10:40:55Z</time>
      </trkpt>
      <trkpt lat="46.66606" lon="5.99905">
        <ele>754</ele>
        <time>2016-06-26T10:41:05Z</time>
      </trkpt>
      <trkpt lat="46.66613" lon="5.99881">
        <ele>754</ele>
        <time>2016-06-26T10:41:13Z</time>
      </trkpt>
      <trkpt lat="46.66625" lon="5.99856">
        <ele>755</ele>
        <time>2016-06-26T10:41:21Z</time>
      </trkpt>
      <trkpt lat="46.66633" lon="5.99829">
        <ele>753</ele>
        <time>2016-06-26T10:41:29Z</time>
      </trkpt>
      <trkpt lat="46.6664" lon="5.99804">
        <ele>753</ele>
        <time>2016-06-26T10:41:38Z</time>
      </trkpt>
      <trkpt lat="46.66647" lon="5.99778">
        <ele>752</ele>
        <time>2016-06-26T10:41:48Z</time>
      </trkpt>
      <trkpt lat="46.66653" lon="5.99753">
        <ele>752</ele>
        <time>2016-06-26T10:41:56Z</time>
      </trkpt>
      <trkpt lat="46.6666" lon="5.99727">
        <ele>750</ele>
        <time>2016-06-26T10:42:03Z</time>
      </trkpt>
      <trkpt lat="46.66666" lon="5.997">
        <ele>750</ele>
        <time>2016-06-26T10:42:12Z</time>
      </trkpt>
      <trkpt lat="46.66672" lon="5.99675">
        <ele>753</ele>
        <time>2016-06-26T10:42:21Z</time>
      </trkpt>
      <trkpt lat="46.66676" lon="5.99647">
        <ele>754</ele>
        <time>2016-06-26T10:42:31Z</time>
      </trkpt>
      <trkpt lat="46.66677" lon="5.99619">
        <ele>755</ele>
        <time>2016-06-26T10:42:41Z</time>
      </trkpt>
      <trkpt lat="46.66678" lon="5.99591">
        <ele>755</ele>
        <time>2016-06-26T10:42:50Z</time>
      </trkpt>
      <trkpt lat="46.66681" lon="5.99562">
        <ele>756</ele>
        <time>2016-06-26T10:42:57Z</time>
      </trkpt>
      <trkpt lat="46.66685" lon="5.99533">
        <ele>756</ele>
        <time>2016-06-26T10:43:06Z</time>
      </trkpt>
      <trkpt lat="46.66692" lon="5.99509">
        <ele>756</ele>
        <time>2016-06-26T10:43:13Z</time>
      </trkpt>
      <trkpt lat="46.66701" lon="5.99484">
        <ele>758</ele>
        <time>2016-06-26T10:43:19Z</time>
      </trkpt>
      <trkpt lat="46.66712" lon="5.9946">
        <ele>759</ele>
        <time>2016-06-26T10:43:24Z</time>
      </trkpt>
      <trkpt lat="46.66722" lon="5.99433">
        <ele>760</ele>
        <time>2016-06-26T10:43:29Z</time>
      </trkpt>
      <trkpt lat="46.66724" lon="5.99405">
        <ele>761</ele>
        <time>2016-06-26T10:43:33Z</time>
      </trkpt>
      <trkpt lat="46.66723" lon="5.99379">
        <ele>761</ele>
        <time>2016-06-26T10:43:39Z</time>
      </trkpt>
      <trkpt lat="46.6673" lon="5.99354">
        <ele>761</ele>
        <time>2016-06-26T10:43:48Z</time>
      </trkpt>
      <trkpt lat="46.66742" lon="5.99335">
        <ele>761</ele>
        <time>2016-06-26T10:43:56Z</time>
      </trkpt>
      <trkpt lat="46.66757" lon="5.99315">
        <ele>762</ele>
        <time>2016-06-26T10:44:00Z</time>
      </trkpt>
      <trkpt lat="46.66769" lon="5.99293">
        <ele>763</ele>
        <time>2016-06-26T10:44:04Z</time>
      </trkpt>
      <trkpt lat="46.66782" lon="5.9927">
        <ele>763</ele>
        <time>2016-06-26T10:44:08Z</time>
      </trkpt>
      <trkpt lat="46.66797" lon="5.99256">
        <ele>763</ele>
        <time>2016-06-26T10:44:12Z</time>
      </trkpt>
      <trkpt lat="46.66809" lon="5.99232">
        <ele>764</ele>
        <time>2016-06-26T10:44:16Z</time>
      </trkpt>
      <trkpt lat="46.66823" lon="5.99214">
        <ele>764</ele>
        <time>2016-06-26T10:44:20Z</time>
      </trkpt>
      <trkpt lat="46.66838" lon="5.99198">
        <ele>765</ele>
        <time>2016-06-26T10:44:24Z</time>
      </trkpt>
      <trkpt lat="46.6685" lon="5.99175">
        <ele>765</ele>
        <time>2016-06-26T10:44:32Z</time>
      </trkpt>
      <trkpt lat="46.66862" lon="5.99155">
        <ele>767</ele>
        <time>2016-06-26T10:44:40Z</time>
      </trkpt>
      <trkpt lat="46.66869" lon="5.99128">
        <ele>768</ele>
        <time>2016-06-26T10:44:47Z</time>
      </trkpt>
      <trkpt lat="46.66879" lon="5.99103">
        <ele>768</ele>
        <time>2016-06-26T10:44:54Z</time>
      </trkpt>
      <trkpt lat="46.66894" lon="5.99087">
        <ele>769</ele>
        <time>2016-06-26T10:45:05Z</time>
      </trkpt>
      <trkpt lat="46.66909" lon="5.99072">
        <ele>770</ele>
        <time>2016-06-26T10:45:32Z</time>
      </trkpt>
      <trkpt lat="46.66924" lon="5.99056">
        <ele>773</ele>
        <time>2016-06-26T10:45:47Z</time>
      </trkpt>
      <trkpt lat="46.66939" lon="5.99038">
        <ele>774</ele>
        <time>2016-06-26T10:46:00Z</time>
      </trkpt>
      <trkpt lat="46.66954" lon="5.99024">
        <ele>775</ele>
        <time>2016-06-26T10:46:13Z</time>
      </trkpt>
      <trkpt lat="46.66969" lon="5.99006">
        <ele>776</ele>
        <time>2016-06-26T10:46:25Z</time>
      </trkpt>
      <trkpt lat="46.66984" lon="5.98988">
        <ele>777</ele>
        <time>2016-06-26T10:46:38Z</time>
      </trkpt>
      <trkpt lat="46.66998" lon="5.98971">
        <ele>777</ele>
        <time>2016-06-26T10:46:49Z</time>
      </trkpt>
      <trkpt lat="46.67012" lon="5.98952">
        <ele>780</ele>
        <time>2016-06-26T10:46:57Z</time>
      </trkpt>
      <trkpt lat="46.67026" lon="5.98934">
        <ele>780</ele>
        <time>2016-06-26T10:47:02Z</time>
      </trkpt>
      <trkpt lat="46.6704" lon="5.98917">
        <ele>780</ele>
        <time>2016-06-26T10:47:07Z</time>
      </trkpt>
      <trkpt lat="46.67056" lon="5.98902">
        <ele>782</ele>
        <time>2016-06-26T10:47:14Z</time>
      </trkpt>
      <trkpt lat="46.67071" lon="5.98885">
        <ele>782</ele>
        <time>2016-06-26T10:47:22Z</time>
      </trkpt>
      <trkpt lat="46.67084" lon="5.98867">
        <ele>788</ele>
        <time>2016-06-26T10:47:30Z</time>
      </trkpt>
      <trkpt lat="46.671" lon="5.98849">
        <ele>788</ele>
        <time>2016-06-26T10:47:39Z</time>
      </trkpt>
      <trkpt lat="46.67114" lon="5.9883">
        <ele>789</ele>
        <time>2016-06-26T10:47:49Z</time>
      </trkpt>
      <trkpt lat="46.67127" lon="5.98811">
        <ele>790</ele>
        <time>2016-06-26T10:47:59Z</time>
      </trkpt>
      <trkpt lat="46.67141" lon="5.98793">
        <ele>790</ele>
        <time>2016-06-26T10:48:08Z</time>
      </trkpt>
      <trkpt lat="46.67151" lon="5.9877">
        <ele>790</ele>
        <time>2016-06-26T10:48:19Z</time>
      </trkpt>
      <trkpt lat="46.67152" lon="5.98743">
        <ele>791</ele>
        <time>2016-06-26T10:48:38Z</time>
      </trkpt>
      <trkpt lat="46.67135" lon="5.9873">
        <ele>790</ele>
        <time>2016-06-26T10:48:48Z</time>
      </trkpt>
      <trkpt lat="46.67118" lon="5.98715">
        <ele>790</ele>
        <time>2016-06-26T10:48:53Z</time>
      </trkpt>
      <trkpt lat="46.671" lon="5.98699">
        <ele>789</ele>
        <time>2016-06-26T10:48:59Z</time>
      </trkpt>
      <trkpt lat="46.67081" lon="5.98697">
        <ele>786</ele>
        <time>2016-06-26T10:49:02Z</time>
      </trkpt>
      <trkpt lat="46.6708" lon="5.98668">
        <ele>787</ele>
        <time>2016-06-26T10:49:15Z</time>
      </trkpt>
      <trkpt lat="46.6709" lon="5.98644">
        <ele>789</ele>
        <time>2016-06-26T10:49:26Z</time>
      </trkpt>
      <trkpt lat="46.67105" lon="5.98613">
        <ele>790</ele>
        <time>2016-06-26T10:49:49Z</time>
      </trkpt>
      <trkpt lat="46.67114" lon="5.98589">
        <ele>790</ele>
        <time>2016-06-26T10:50:09Z</time>
      </trkpt>
      <trkpt lat="46.67123" lon="5.98565">
        <ele>793</ele>
        <time>2016-06-26T10:50:23Z</time>
      </trkpt>
      <trkpt lat="46.67134" lon="5.98544">
        <ele>794</ele>
        <time>2016-06-26T10:50:38Z</time>
      </trkpt>
      <trkpt lat="46.67146" lon="5.98523">
        <ele>795</ele>
        <time>2016-06-26T10:50:58Z</time>
      </trkpt>
      <trkpt lat="46.67159" lon="5.98505">
        <ele>797</ele>
        <time>2016-06-26T10:51:12Z</time>
      </trkpt>
      <trkpt lat="46.67173" lon="5.98486">
        <ele>800</ele>
        <time>2016-06-26T10:51:25Z</time>
      </trkpt>
      <trkpt lat="46.67188" lon="5.9847">
        <ele>801</ele>
        <time>2016-06-26T10:51:43Z</time>
      </trkpt>
      <trkpt lat="46.67201" lon="5.98452">
        <ele>802</ele>
        <time>2016-06-26T10:52:02Z</time>
      </trkpt>
      <trkpt lat="46.67215" lon="5.98435">
        <ele>803</ele>
        <time>2016-06-26T10:52:16Z</time>
      </trkpt>
      <trkpt lat="46.67232" lon="5.9842">
        <ele>804</ele>
        <time>2016-06-26T10:52:27Z</time>
      </trkpt>
      <trkpt lat="46.67245" lon="5.98402">
        <ele>805</ele>
        <time>2016-06-26T10:52:40Z</time>
      </trkpt>
      <trkpt lat="46.67258" lon="5.98381">
        <ele>807</ele>
        <time>2016-06-26T10:52:58Z</time>
      </trkpt>
      <trkpt lat="46.67272" lon="5.98362">
        <ele>808</ele>
        <time>2016-06-26T10:53:08Z</time>
      </trkpt>
      <trkpt lat="46.67289" lon="5.98342">
        <ele>808</ele>
        <time>2016-06-26T10:53:39Z</time>
      </trkpt>
      <trkpt lat="46.67305" lon="5.98326">
        <ele>807</ele>
        <time>2016-06-26T10:53:45Z</time>
      </trkpt>
      <trkpt lat="46.6732" lon="5.98307">
        <ele>807</ele>
        <time>2016-06-26T10:53:51Z</time>
      </trkpt>
      <trkpt lat="46.67335" lon="5.9829">
        <ele>810</ele>
        <time>2016-06-26T10:54:01Z</time>
      </trkpt>
      <trkpt lat="46.67352" lon="5.98279">
        <ele>810</ele>
        <time>2016-06-26T10:54:14Z</time>
      </trkpt>
      <trkpt lat="46.67361" lon="5.98254">
        <ele>810</ele>
        <time>2016-06-26T10:54:28Z</time>
      </trkpt>
      <trkpt lat="46.67365" lon="5.98224">
        <ele>810</ele>
        <time>2016-06-26T10:54:38Z</time>
      </trkpt>
      <trkpt lat="46.67369" lon="5.98197">
        <ele>810</ele>
        <time>2016-06-26T10:54:44Z</time>
      </trkpt>
      <trkpt lat="46.67375" lon="5.98169">
        <ele>810</ele>
        <time>2016-06-26T10:54:50Z</time>
      </trkpt>
      <trkpt lat="46.67379" lon="5.98139">
        <ele>809</ele>
        <time>2016-06-26T10:54:55Z</time>
      </trkpt>
      <trkpt lat="46.67392" lon="5.98108">
        <ele>808</ele>
        <time>2016-06-26T10:55:00Z</time>
      </trkpt>
      <trkpt lat="46.67407" lon="5.98091">
        <ele>808</ele>
        <time>2016-06-26T10:55:04Z</time>
      </trkpt>
      <trkpt lat="46.67424" lon="5.98081">
        <ele>809</ele>
        <time>2016-06-26T10:55:11Z</time>
      </trkpt>
      <trkpt lat="46.67442" lon="5.98072">
        <ele>810</ele>
        <time>2016-06-26T10:55:22Z</time>
      </trkpt>
      <trkpt lat="46.67459" lon="5.9806">
        <ele>811</ele>
        <time>2016-06-26T10:55:32Z</time>
      </trkpt>
      <trkpt lat="46.67477" lon="5.9805">
        <ele>812</ele>
        <time>2016-06-26T10:55:42Z</time>
      </trkpt>
      <trkpt lat="46.67494" lon="5.98042">
        <ele>812</ele>
        <time>2016-06-26T10:55:52Z</time>
      </trkpt>
      <trkpt lat="46.67512" lon="5.98039">
        <ele>817</ele>
        <time>2016-06-26T10:56:04Z</time>
      </trkpt>
      <trkpt lat="46.6753" lon="5.98036">
        <ele>817</ele>
        <time>2016-06-26T10:56:17Z</time>
      </trkpt>
      <trkpt lat="46.67548" lon="5.98029">
        <ele>818</ele>
        <time>2016-06-26T10:56:27Z</time>
      </trkpt>
      <trkpt lat="46.67566" lon="5.9802">
        <ele>818</ele>
        <time>2016-06-26T10:56:36Z</time>
      </trkpt>
      <trkpt lat="46.67584" lon="5.98008">
        <ele>819</ele>
        <time>2016-06-26T10:56:48Z</time>
      </trkpt>
      <trkpt lat="46.67602" lon="5.97998">
        <ele>818</ele>
        <time>2016-06-26T10:56:55Z</time>
      </trkpt>
      <trkpt lat="46.67623" lon="5.97989">
        <ele>818</ele>
        <time>2016-06-26T10:56:58Z</time>
      </trkpt>
      <trkpt lat="46.67644" lon="5.97991">
        <ele>817</ele>
        <time>2016-06-26T10:57:04Z</time>
      </trkpt>
      <trkpt lat="46.67663" lon="5.97999">
        <ele>816</ele>
        <time>2016-06-26T10:57:10Z</time>
      </trkpt>
      <trkpt lat="46.67682" lon="5.97996">
        <ele>816</ele>
        <time>2016-06-26T10:57:20Z</time>
      </trkpt>
      <trkpt lat="46.67696" lon="5.97976">
        <ele>816</ele>
        <time>2016-06-26T10:57:33Z</time>
      </trkpt>
      <trkpt lat="46.67708" lon="5.97957">
        <ele>816</ele>
        <time>2016-06-26T10:57:39Z</time>
      </trkpt>
      <trkpt lat="46.67725" lon="5.97944">
        <ele>816</ele>
        <time>2016-06-26T10:57:43Z</time>
      </trkpt>
      <trkpt lat="46.67744" lon="5.97934">
        <ele>816</ele>
        <time>2016-06-26T10:57:48Z</time>
      </trkpt>
      <trkpt lat="46.67764" lon="5.97941">
        <ele>815</ele>
        <time>2016-06-26T10:57:54Z</time>
      </trkpt>
      <trkpt lat="46.67776" lon="5.97963">
        <ele>815</ele>
        <time>2016-06-26T10:57:59Z</time>
      </trkpt>
      <trkpt lat="46.6778" lon="5.97989">
        <ele>815</ele>
        <time>2016-06-26T10:58:05Z</time>
      </trkpt>
      <trkpt lat="46.67798" lon="5.97997">
        <ele>815</ele>
        <time>2016-06-26T10:58:26Z</time>
      </trkpt>
      <trkpt lat="46.67817" lon="5.97984">
        <ele>815</ele>
        <time>2016-06-26T10:58:54Z</time>
      </trkpt>
      <trkpt lat="46.67833" lon="5.97963">
        <ele>815</ele>
        <time>2016-06-26T10:58:57Z</time>
      </trkpt>
      <trkpt lat="46.67849" lon="5.97945">
        <ele>814</ele>
        <time>2016-06-26T10:59:00Z</time>
      </trkpt>
      <trkpt lat="46.67864" lon="5.97913">
        <ele>812</ele>
        <time>2016-06-26T10:59:03Z</time>
      </trkpt>
      <trkpt lat="46.67879" lon="5.97889">
        <ele>811</ele>
        <time>2016-06-26T10:59:06Z</time>
      </trkpt>
      <trkpt lat="46.679" lon="5.97877">
        <ele>810</ele>
        <time>2016-06-26T10:59:09Z</time>
      </trkpt>
      <trkpt lat="46.67922" lon="5.97865">
        <ele>808</ele>
        <time>2016-06-26T10:59:12Z</time>
      </trkpt>
      <trkpt lat="46.6794" lon="5.97856">
        <ele>808</ele>
        <time>2016-06-26T10:59:15Z</time>
      </trkpt>
      <trkpt lat="46.67958" lon="5.97849">
        <ele>808</ele>
        <time>2016-06-26T10:59:20Z</time>
      </trkpt>
      <trkpt lat="46.67976" lon="5.97848">
        <ele>809</ele>
        <time>2016-06-26T10:59:25Z</time>
      </trkpt>
      <trkpt lat="46.67995" lon="5.97835">
        <ele>808</ele>
        <time>2016-06-26T10:59:30Z</time>
      </trkpt>
      <trkpt lat="46.68012" lon="5.97819">
        <ele>809</ele>
        <time>2016-06-26T10:59:35Z</time>
      </trkpt>
      <trkpt lat="46.68028" lon="5.97803">
        <ele>810</ele>
        <time>2016-06-26T10:59:40Z</time>
      </trkpt>
      <trkpt lat="46.68045" lon="5.97787">
        <ele>810</ele>
        <time>2016-06-26T10:59:45Z</time>
      </trkpt>
      <trkpt lat="46.68059" lon="5.9777">
        <ele>810</ele>
        <time>2016-06-26T10:59:50Z</time>
      </trkpt>
      <trkpt lat="46.68073" lon="5.9775">
        <ele>810</ele>
        <time>2016-06-26T10:59:56Z</time>
      </trkpt>
      <trkpt lat="46.68089" lon="5.97733">
        <ele>812</ele>
        <time>2016-06-26T11:00:03Z</time>
      </trkpt>
      <trkpt lat="46.68105" lon="5.97715">
        <ele>813</ele>
        <time>2016-06-26T11:00:11Z</time>
      </trkpt>
      <trkpt lat="46.68121" lon="5.97698">
        <ele>813</ele>
        <time>2016-06-26T11:00:17Z</time>
      </trkpt>
      <trkpt lat="46.6814" lon="5.97679">
        <ele>813</ele>
        <time>2016-06-26T11:00:22Z</time>
      </trkpt>
      <trkpt lat="46.68153" lon="5.97657">
        <ele>814</ele>
        <time>2016-06-26T11:00:25Z</time>
      </trkpt>
      <trkpt lat="46.68166" lon="5.97638">
        <ele>815</ele>
        <time>2016-06-26T11:00:29Z</time>
      </trkpt>
      <trkpt lat="46.68179" lon="5.97615">
        <ele>813</ele>
        <time>2016-06-26T11:00:34Z</time>
      </trkpt>
      <trkpt lat="46.68198" lon="5.97606">
        <ele>812</ele>
        <time>2016-06-26T11:00:40Z</time>
      </trkpt>
      <trkpt lat="46.68217" lon="5.97605">
        <ele>811</ele>
        <time>2016-06-26T11:00:45Z</time>
      </trkpt>
      <trkpt lat="46.68239" lon="5.97612">
        <ele>810</ele>
        <time>2016-06-26T11:00:50Z</time>
      </trkpt>
      <trkpt lat="46.68256" lon="5.97622">
        <ele>808</ele>
        <time>2016-06-26T11:00:54Z</time>
      </trkpt>
      <trkpt lat="46.68275" lon="5.97607">
        <ele>808</ele>
        <time>2016-06-26T11:01:00Z</time>
      </trkpt>
      <trkpt lat="46.68288" lon="5.9758">
        <ele>809</ele>
        <time>2016-06-26T11:01:05Z</time>
      </trkpt>
      <trkpt lat="46.68299" lon="5.97554">
        <ele>810</ele>
        <time>2016-06-26T11:01:09Z</time>
      </trkpt>
      <trkpt lat="46.6831" lon="5.9753">
        <ele>810</ele>
        <time>2016-06-26T11:01:13Z</time>
      </trkpt>
      <trkpt lat="46.68323" lon="5.97504">
        <ele>811</ele>
        <time>2016-06-26T11:01:18Z</time>
      </trkpt>
      <trkpt lat="46.6834" lon="5.97485">
        <ele>813</ele>
        <time>2016-06-26T11:01:24Z</time>
      </trkpt>
      <trkpt lat="46.68354" lon="5.97469">
        <ele>815</ele>
        <time>2016-06-26T11:01:29Z</time>
      </trkpt>
      <trkpt lat="46.6837" lon="5.97455">
        <ele>815</ele>
        <time>2016-06-26T11:01:35Z</time>
      </trkpt>
      <trkpt lat="46.68385" lon="5.97439">
        <ele>816</ele>
        <time>2016-06-26T11:01:43Z</time>
      </trkpt>
      <trkpt lat="46.68402" lon="5.97426">
        <ele>816</ele>
        <time>2016-06-26T11:01:55Z</time>
      </trkpt>
      <trkpt lat="46.68417" lon="5.97411">
        <ele>818</ele>
        <time>2016-06-26T11:02:04Z</time>
      </trkpt>
      <trkpt lat="46.68434" lon="5.97399">
        <ele>820</ele>
        <time>2016-06-26T11:02:11Z</time>
      </trkpt>
      <trkpt lat="46.6845" lon="5.97386">
        <ele>821</ele>
        <time>2016-06-26T11:02:20Z</time>
      </trkpt>
      <trkpt lat="46.68468" lon="5.97371">
        <ele>821</ele>
        <time>2016-06-26T11:02:30Z</time>
      </trkpt>
      <trkpt lat="46.68483" lon="5.97356">
        <ele>822</ele>
        <time>2016-06-26T11:02:38Z</time>
      </trkpt>
      <trkpt lat="46.685" lon="5.97341">
        <ele>822</ele>
        <time>2016-06-26T11:02:47Z</time>
      </trkpt>
      <trkpt lat="46.68514" lon="5.97323">
        <ele>823</ele>
        <time>2016-06-26T11:03:00Z</time>
      </trkpt>
      <trkpt lat="46.6853" lon="5.97306">
        <ele>824</ele>
        <time>2016-06-26T11:03:08Z</time>
      </trkpt>
      <trkpt lat="46.68545" lon="5.97289">
        <ele>824</ele>
        <time>2016-06-26T11:03:15Z</time>
      </trkpt>
      <trkpt lat="46.6856" lon="5.97272">
        <ele>824</ele>
        <time>2016-06-26T11:03:22Z</time>
      </trkpt>
      <trkpt lat="46.68575" lon="5.97256">
        <ele>824</ele>
        <time>2016-06-26T11:03:30Z</time>
      </trkpt>
      <trkpt lat="46.6859" lon="5.97239">
        <ele>824</ele>
        <time>2016-06-26T11:03:37Z</time>
      </trkpt>
      <trkpt lat="46.68604" lon="5.97219">
        <ele>823</ele>
        <time>2016-06-26T11:03:44Z</time>
      </trkpt>
      <trkpt lat="46.6862" lon="5.97202">
        <ele>823</ele>
        <time>2016-06-26T11:03:50Z</time>
      </trkpt>
      <trkpt lat="46.68638" lon="5.97183">
        <ele>823</ele>
        <time>2016-06-26T11:03:56Z</time>
      </trkpt>
      <trkpt lat="46.68652" lon="5.97166">
        <ele>820</ele>
        <time>2016-06-26T11:03:58Z</time>
      </trkpt>
      <trkpt lat="46.68666" lon="5.97146">
        <ele>819</ele>
        <time>2016-06-26T11:04:02Z</time>
      </trkpt>
      <trkpt lat="46.68677" lon="5.97124">
        <ele>820</ele>
        <time>2016-06-26T11:04:05Z</time>
      </trkpt>
      <trkpt lat="46.68691" lon="5.97101">
        <ele>818</ele>
        <time>2016-06-26T11:04:08Z</time>
      </trkpt>
      <trkpt lat="46.68707" lon="5.97077">
        <ele>814</ele>
        <time>2016-06-26T11:04:11Z</time>
      </trkpt>
      <trkpt lat="46.68722" lon="5.97052">
        <ele>814</ele>
        <time>2016-06-26T11:04:14Z</time>
      </trkpt>
      <trkpt lat="46.68738" lon="5.97019">
        <ele>813</ele>
        <time>2016-06-26T11:04:17Z</time>
      </trkpt>
      <trkpt lat="46.68749" lon="5.96994">
        <ele>810</ele>
        <time>2016-06-26T11:04:19Z</time>
      </trkpt>
      <trkpt lat="46.68763" lon="5.96972">
        <ele>809</ele>
        <time>2016-06-26T11:04:21Z</time>
      </trkpt>
      <trkpt lat="46.68779" lon="5.96949">
        <ele>807</ele>
        <time>2016-06-26T11:04:23Z</time>
      </trkpt>
      <trkpt lat="46.68796" lon="5.96928">
        <ele>807</ele>
        <time>2016-06-26T11:04:25Z</time>
      </trkpt>
      <trkpt lat="46.68813" lon="5.96906">
        <ele>803</ele>
        <time>2016-06-26T11:04:27Z</time>
      </trkpt>
      <trkpt lat="46.68834" lon="5.96887">
        <ele>802</ele>
        <time>2016-06-26T11:04:29Z</time>
      </trkpt>
      <trkpt lat="46.68854" lon="5.96882">
        <ele>802</ele>
        <time>2016-06-26T11:04:31Z</time>
      </trkpt>
      <trkpt lat="46.68874" lon="5.96878">
        <ele>801</ele>
        <time>2016-06-26T11:04:33Z</time>
      </trkpt>
      <trkpt lat="46.68896" lon="5.9687">
        <ele>800</ele>
        <time>2016-06-26T11:04:35Z</time>
      </trkpt>
      <trkpt lat="46.68917" lon="5.96871">
        <ele>797</ele>
        <time>2016-06-26T11:04:37Z</time>
      </trkpt>
      <trkpt lat="46.68944" lon="5.96874">
        <ele>797</ele>
        <time>2016-06-26T11:04:40Z</time>
      </trkpt>
      <trkpt lat="46.68971" lon="5.96879">
        <ele>797</ele>
        <time>2016-06-26T11:04:42Z</time>
      </trkpt>
      <trkpt lat="46.68992" lon="5.96886">
        <ele>797</ele>
        <time>2016-06-26T11:04:44Z</time>
      </trkpt>
      <trkpt lat="46.69014" lon="5.96886">
        <ele>792</ele>
        <time>2016-06-26T11:04:46Z</time>
      </trkpt>
      <trkpt lat="46.69035" lon="5.96879">
        <ele>791</ele>
        <time>2016-06-26T11:04:48Z</time>
      </trkpt>
      <trkpt lat="46.69057" lon="5.9687">
        <ele>790</ele>
        <time>2016-06-26T11:04:50Z</time>
      </trkpt>
      <trkpt lat="46.6908" lon="5.96857">
        <ele>787</ele>
        <time>2016-06-26T11:04:52Z</time>
      </trkpt>
      <trkpt lat="46.69104" lon="5.96849">
        <ele>782</ele>
        <time>2016-06-26T11:04:54Z</time>
      </trkpt>
      <trkpt lat="46.69127" lon="5.96868">
        <ele>782</ele>
        <time>2016-06-26T11:04:57Z</time>
      </trkpt>
      <trkpt lat="46.69147" lon="5.96875">
        <ele>781</ele>
        <time>2016-06-26T11:04:59Z</time>
      </trkpt>
      <trkpt lat="46.69163" lon="5.96888">
        <ele>781</ele>
        <time>2016-06-26T11:05:01Z</time>
      </trkpt>
      <trkpt lat="46.6918" lon="5.96902">
        <ele>777</ele>
        <time>2016-06-26T11:05:03Z</time>
      </trkpt>
      <trkpt lat="46.69198" lon="5.96915">
        <ele>776</ele>
        <time>2016-06-26T11:05:05Z</time>
      </trkpt>
      <trkpt lat="46.69216" lon="5.96926">
        <ele>779</ele>
        <time>2016-06-26T11:05:07Z</time>
      </trkpt>
      <trkpt lat="46.69239" lon="5.96937">
        <ele>778</ele>
        <time>2016-06-26T11:05:10Z</time>
      </trkpt>
      <trkpt lat="46.69256" lon="5.96962">
        <ele>773</ele>
        <time>2016-06-26T11:05:13Z</time>
      </trkpt>
      <trkpt lat="46.69275" lon="5.96989">
        <ele>774</ele>
        <time>2016-06-26T11:05:16Z</time>
      </trkpt>
      <trkpt lat="46.69294" lon="5.97014">
        <ele>776</ele>
        <time>2016-06-26T11:05:19Z</time>
      </trkpt>
      <trkpt lat="46.69308" lon="5.97037">
        <ele>776</ele>
        <time>2016-06-26T11:05:22Z</time>
      </trkpt>
      <trkpt lat="46.69318" lon="5.9707">
        <ele>776</ele>
        <time>2016-06-26T11:05:25Z</time>
      </trkpt>
      <trkpt lat="46.69336" lon="5.9708">
        <ele>773</ele>
        <time>2016-06-26T11:05:34Z</time>
      </trkpt>
      <trkpt lat="46.69359" lon="5.97076">
        <ele>768</ele>
        <time>2016-06-26T11:05:40Z</time>
      </trkpt>
      <trkpt lat="46.69378" lon="5.9708">
        <ele>766</ele>
        <time>2016-06-26T11:05:44Z</time>
      </trkpt>
      <trkpt lat="46.69397" lon="5.97087">
        <ele>768</ele>
        <time>2016-06-26T11:05:51Z</time>
      </trkpt>
      <trkpt lat="46.69415" lon="5.97095">
        <ele>766</ele>
        <time>2016-06-26T11:05:58Z</time>
      </trkpt>
      <trkpt lat="46.69436" lon="5.97093">
        <ele>763</ele>
        <time>2016-06-26T11:06:06Z</time>
      </trkpt>
      <trkpt lat="46.69451" lon="5.97073">
        <ele>758</ele>
        <time>2016-06-26T11:06:11Z</time>
      </trkpt>
      <trkpt lat="46.69463" lon="5.97052">
        <ele>757</ele>
        <time>2016-06-26T11:06:16Z</time>
      </trkpt>
      <trkpt lat="46.69479" lon="5.97035">
        <ele>755</ele>
        <time>2016-06-26T11:06:26Z</time>
      </trkpt>
      <trkpt lat="46.69494" lon="5.97022">
        <ele>754</ele>
        <time>2016-06-26T11:06:38Z</time>
      </trkpt>
      <trkpt lat="46.6951" lon="5.97005">
        <ele>751</ele>
        <time>2016-06-26T11:06:52Z</time>
      </trkpt>
      <trkpt lat="46.69527" lon="5.96995">
        <ele>747</ele>
        <time>2016-06-26T11:07:07Z</time>
      </trkpt>
      <trkpt lat="46.69545" lon="5.96991">
        <ele>746</ele>
        <time>2016-06-26T11:07:25Z</time>
      </trkpt>
      <trkpt lat="46.69564" lon="5.96987">
        <ele>747</ele>
        <time>2016-06-26T11:07:35Z</time>
      </trkpt>
      <trkpt lat="46.69582" lon="5.96987">
        <ele>747</ele>
        <time>2016-06-26T11:07:43Z</time>
      </trkpt>
      <trkpt lat="46.696" lon="5.96983">
        <ele>746</ele>
        <time>2016-06-26T11:07:51Z</time>
      </trkpt>
      <trkpt lat="46.69619" lon="5.96981">
        <ele>746</ele>
        <time>2016-06-26T11:07:56Z</time>
      </trkpt>
      <trkpt lat="46.69639" lon="5.96987">
        <ele>746</ele>
        <time>2016-06-26T11:08:03Z</time>
      </trkpt>
      <trkpt lat="46.69658" lon="5.96993">
        <ele>747</ele>
        <time>2016-06-26T11:08:14Z</time>
      </trkpt>
      <trkpt lat="46.69677" lon="5.97002">
        <ele>748</ele>
        <time>2016-06-26T11:08:21Z</time>
      </trkpt>
      <trkpt lat="46.69695" lon="5.97008">
        <ele>748</ele>
        <time>2016-06-26T11:08:28Z</time>
      </trkpt>
      <trkpt lat="46.69713" lon="5.97015">
        <ele>747</ele>
        <time>2016-06-26T11:10:29Z</time>
      </trkpt>
      <trkpt lat="46.69732" lon="5.9702">
        <ele>746</ele>
        <time>2016-06-26T11:10:38Z</time>
      </trkpt>
      <trkpt lat="46.6975" lon="5.97029">
        <ele>747</ele>
        <time>2016-06-26T11:10:48Z</time>
      </trkpt>
      <trkpt lat="46.69763" lon="5.97048">
        <ele>745</ele>
        <time>2016-06-26T11:10:57Z</time>
      </trkpt>
      <trkpt lat="46.69781" lon="5.9706">
        <ele>744</ele>
        <time>2016-06-26T11:11:03Z</time>
      </trkpt>
      <trkpt lat="46.698" lon="5.97072">
        <ele>744</ele>
        <time>2016-06-26T11:11:08Z</time>
      </trkpt>
      <trkpt lat="46.69822" lon="5.97081">
        <ele>743</ele>
        <time>2016-06-26T11:11:13Z</time>
      </trkpt>
      <trkpt lat="46.69842" lon="5.97089">
        <ele>743</ele>
        <time>2016-06-26T11:11:17Z</time>
      </trkpt>
      <trkpt lat="46.69857" lon="5.97105">
        <ele>742</ele>
        <time>2016-06-26T11:11:21Z</time>
      </trkpt>
      <trkpt lat="46.69875" lon="5.9712">
        <ele>742</ele>
        <time>2016-06-26T11:11:27Z</time>
      </trkpt>
      <trkpt lat="46.69895" lon="5.97131">
        <ele>741</ele>
        <time>2016-06-26T11:11:32Z</time>
      </trkpt>
      <trkpt lat="46.69914" lon="5.97137">
        <ele>741</ele>
        <time>2016-06-26T11:11:36Z</time>
      </trkpt>
      <trkpt lat="46.69934" lon="5.97142">
        <ele>738</ele>
        <time>2016-06-26T11:11:40Z</time>
      </trkpt>
      <trkpt lat="46.69957" lon="5.97143">
        <ele>737</ele>
        <time>2016-06-26T11:11:45Z</time>
      </trkpt>
      <trkpt lat="46.69979" lon="5.97136">
        <ele>737</ele>
        <time>2016-06-26T11:11:49Z</time>
      </trkpt>
      <trkpt lat="46.7" lon="5.97131">
        <ele>734</ele>
        <time>2016-06-26T11:11:53Z</time>
      </trkpt>
      <trkpt lat="46.70023" lon="5.97128">
        <ele>734</ele>
        <time>2016-06-26T11:11:57Z</time>
      </trkpt>
      <trkpt lat="46.70042" lon="5.97124">
        <ele>733</ele>
        <time>2016-06-26T11:12:00Z</time>
      </trkpt>
      <trkpt lat="46.70064" lon="5.97118">
        <ele>732</ele>
        <time>2016-06-26T11:12:04Z</time>
      </trkpt>
      <trkpt lat="46.70086" lon="5.97116">
        <ele>730</ele>
        <time>2016-06-26T11:12:08Z</time>
      </trkpt>
      <trkpt lat="46.70105" lon="5.97114">
        <ele>729</ele>
        <time>2016-06-26T11:12:11Z</time>
      </trkpt>
      <trkpt lat="46.70123" lon="5.97116">
        <ele>729</ele>
        <time>2016-06-26T11:12:15Z</time>
      </trkpt>
      <trkpt lat="46.70144" lon="5.97119">
        <ele>729</ele>
        <time>2016-06-26T11:12:19Z</time>
      </trkpt>
      <trkpt lat="46.70164" lon="5.97124">
        <ele>729</ele>
        <time>2016-06-26T11:12:23Z</time>
      </trkpt>
      <trkpt lat="46.70187" lon="5.97133">
        <ele>726</ele>
        <time>2016-06-26T11:12:27Z</time>
      </trkpt>
      <trkpt lat="46.70208" lon="5.97141">
        <ele>725</ele>
        <time>2016-06-26T11:12:31Z</time>
      </trkpt>
      <trkpt lat="46.70227" lon="5.97151">
        <ele>725</ele>
        <time>2016-06-26T11:12:35Z</time>
      </trkpt>
      <trkpt lat="46.70247" lon="5.97164">
        <ele>726</ele>
        <time>2016-06-26T11:12:39Z</time>
      </trkpt>
      <trkpt lat="46.70269" lon="5.97178">
        <ele>725</ele>
        <time>2016-06-26T11:12:43Z</time>
      </trkpt>
      <trkpt lat="46.70287" lon="5.97185">
        <ele>724</ele>
        <time>2016-06-26T11:12:46Z</time>
      </trkpt>
      <trkpt lat="46.70303" lon="5.97197">
        <ele>724</ele>
        <time>2016-06-26T11:12:49Z</time>
      </trkpt>
      <trkpt lat="46.70323" lon="5.97215">
        <ele>724</ele>
        <time>2016-06-26T11:12:53Z</time>
      </trkpt>
      <trkpt lat="46.70336" lon="5.97237">
        <ele>722</ele>
        <time>2016-06-26T11:12:57Z</time>
      </trkpt>
      <trkpt lat="46.70355" lon="5.97245">
        <ele>720</ele>
        <time>2016-06-26T11:13:02Z</time>
      </trkpt>
      <trkpt lat="46.7036" lon="5.97213">
        <ele>718</ele>
        <time>2016-06-26T11:13:07Z</time>
      </trkpt>
      <trkpt lat="46.70347" lon="5.97187">
        <ele>717</ele>
        <time>2016-06-26T11:13:10Z</time>
      </trkpt>
      <trkpt lat="46.70342" lon="5.97157">
        <ele>713</ele>
        <time>2016-06-26T11:13:13Z</time>
      </trkpt>
      <trkpt lat="46.70354" lon="5.97132">
        <ele>708</ele>
        <time>2016-06-26T11:13:16Z</time>
      </trkpt>
      <trkpt lat="46.70374" lon="5.97139">
        <ele>707</ele>
        <time>2016-06-26T11:13:19Z</time>
      </trkpt>
      <trkpt lat="46.70392" lon="5.97154">
        <ele>706</ele>
        <time>2016-06-26T11:13:23Z</time>
      </trkpt>
      <trkpt lat="46.70395" lon="5.97127">
        <ele>705</ele>
        <time>2016-06-26T11:13:32Z</time>
      </trkpt>
      <trkpt lat="46.70405" lon="5.97097">
        <ele>700</ele>
        <time>2016-06-26T11:13:35Z</time>
      </trkpt>
      <trkpt lat="46.70419" lon="5.97077">
        <ele>694</ele>
        <time>2016-06-26T11:13:37Z</time>
      </trkpt>
      <trkpt lat="46.70434" lon="5.97061">
        <ele>691</ele>
        <time>2016-06-26T11:13:39Z</time>
      </trkpt>
      <trkpt lat="46.70455" lon="5.97059">
        <ele>690</ele>
        <time>2016-06-26T11:13:41Z</time>
      </trkpt>
      <trkpt lat="46.70473" lon="5.9706">
        <ele>689</ele>
        <time>2016-06-26T11:13:43Z</time>
      </trkpt>
      <trkpt lat="46.70492" lon="5.97048">
        <ele>688</ele>
        <time>2016-06-26T11:13:45Z</time>
      </trkpt>
      <trkpt lat="46.70506" lon="5.9703">
        <ele>682</ele>
        <time>2016-06-26T11:13:47Z</time>
      </trkpt>
      <trkpt lat="46.70515" lon="5.97004">
        <ele>681</ele>
        <time>2016-06-26T11:13:49Z</time>
      </trkpt>
      <trkpt lat="46.70525" lon="5.96978">
        <ele>676</ele>
        <time>2016-06-26T11:13:51Z</time>
      </trkpt>
      <trkpt lat="46.70541" lon="5.96957">
        <ele>674</ele>
        <time>2016-06-26T11:13:53Z</time>
      </trkpt>
      <trkpt lat="46.70559" lon="5.96944">
        <ele>672</ele>
        <time>2016-06-26T11:13:55Z</time>
      </trkpt>
      <trkpt lat="46.70577" lon="5.96947">
        <ele>672</ele>
        <time>2016-06-26T11:13:57Z</time>
      </trkpt>
      <trkpt lat="46.70597" lon="5.96955">
        <ele>668</ele>
        <time>2016-06-26T11:13:59Z</time>
      </trkpt>
      <trkpt lat="46.70619" lon="5.96962">
        <ele>667</ele>
        <time>2016-06-26T11:14:01Z</time>
      </trkpt>
      <trkpt lat="46.70638" lon="5.9697">
        <ele>667</ele>
        <time>2016-06-26T11:14:03Z</time>
      </trkpt>
      <trkpt lat="46.70657" lon="5.96988">
        <ele>667</ele>
        <time>2016-06-26T11:14:06Z</time>
      </trkpt>
      <trkpt lat="46.7068" lon="5.96997">
        <ele>665</ele>
        <time>2016-06-26T11:14:10Z</time>
      </trkpt>
      <trkpt lat="46.70699" lon="5.96996">
        <ele>663</ele>
        <time>2016-06-26T11:14:13Z</time>
      </trkpt>
      <trkpt lat="46.70719" lon="5.96995">
        <ele>662</ele>
        <time>2016-06-26T11:14:15Z</time>
      </trkpt>
      <trkpt lat="46.70741" lon="5.96994">
        <ele>661</ele>
        <time>2016-06-26T11:14:17Z</time>
      </trkpt>
      <trkpt lat="46.70763" lon="5.96993">
        <ele>659</ele>
        <time>2016-06-26T11:14:19Z</time>
      </trkpt>
      <trkpt lat="46.70783" lon="5.96993">
        <ele>658</ele>
        <time>2016-06-26T11:14:21Z</time>
      </trkpt>
      <trkpt lat="46.70806" lon="5.96991">
        <ele>657</ele>
        <time>2016-06-26T11:14:23Z</time>
      </trkpt>
      <trkpt lat="46.70828" lon="5.9699">
        <ele>657</ele>
        <time>2016-06-26T11:14:25Z</time>
      </trkpt>
      <trkpt lat="46.70849" lon="5.96991">
        <ele>654</ele>
        <time>2016-06-26T11:14:27Z</time>
      </trkpt>
      <trkpt lat="46.70871" lon="5.9699">
        <ele>653</ele>
        <time>2016-06-26T11:14:29Z</time>
      </trkpt>
      <trkpt lat="46.70894" lon="5.96988">
        <ele>652</ele>
        <time>2016-06-26T11:14:31Z</time>
      </trkpt>
      <trkpt lat="46.70917" lon="5.96984">
        <ele>652</ele>
        <time>2016-06-26T11:14:33Z</time>
      </trkpt>
      <trkpt lat="46.70937" lon="5.96973">
        <ele>649</ele>
        <time>2016-06-26T11:14:35Z</time>
      </trkpt>
      <trkpt lat="46.70957" lon="5.96963">
        <ele>648</ele>
        <time>2016-06-26T11:14:37Z</time>
      </trkpt>
      <trkpt lat="46.70978" lon="5.96952">
        <ele>648</ele>
        <time>2016-06-26T11:14:39Z</time>
      </trkpt>
      <trkpt lat="46.70998" lon="5.96942">
        <ele>647</ele>
        <time>2016-06-26T11:14:41Z</time>
      </trkpt>
      <trkpt lat="46.71019" lon="5.96931">
        <ele>644</ele>
        <time>2016-06-26T11:14:43Z</time>
      </trkpt>
      <trkpt lat="46.71038" lon="5.96921">
        <ele>644</ele>
        <time>2016-06-26T11:14:45Z</time>
      </trkpt>
      <trkpt lat="46.71059" lon="5.9691">
        <ele>641</ele>
        <time>2016-06-26T11:14:47Z</time>
      </trkpt>
      <trkpt lat="46.71079" lon="5.96899">
        <ele>640</ele>
        <time>2016-06-26T11:14:49Z</time>
      </trkpt>
      <trkpt lat="46.71101" lon="5.96889">
        <ele>638</ele>
        <time>2016-06-26T11:14:51Z</time>
      </trkpt>
      <trkpt lat="46.71122" lon="5.96883">
        <ele>637</ele>
        <time>2016-06-26T11:14:53Z</time>
      </trkpt>
      <trkpt lat="46.71143" lon="5.96883">
        <ele>636</ele>
        <time>2016-06-26T11:14:55Z</time>
      </trkpt>
      <trkpt lat="46.71164" lon="5.96884">
        <ele>636</ele>
        <time>2016-06-26T11:14:57Z</time>
      </trkpt>
      <trkpt lat="46.71184" lon="5.96883">
        <ele>632</ele>
        <time>2016-06-26T11:14:59Z</time>
      </trkpt>
      <trkpt lat="46.71203" lon="5.96881">
        <ele>632</ele>
        <time>2016-06-26T11:15:01Z</time>
      </trkpt>
      <trkpt lat="46.71222" lon="5.96877">
        <ele>631</ele>
        <time>2016-06-26T11:15:03Z</time>
      </trkpt>
      <trkpt lat="46.71241" lon="5.96873">
        <ele>631</ele>
        <time>2016-06-26T11:15:05Z</time>
      </trkpt>
      <trkpt lat="46.7126" lon="5.9687">
        <ele>628</ele>
        <time>2016-06-26T11:15:07Z</time>
      </trkpt>
      <trkpt lat="46.71278" lon="5.96869">
        <ele>628</ele>
        <time>2016-06-26T11:15:09Z</time>
      </trkpt>
      <trkpt lat="46.71296" lon="5.96866">
        <ele>627</ele>
        <time>2016-06-26T11:15:11Z</time>
      </trkpt>
      <trkpt lat="46.71314" lon="5.96865">
        <ele>627</ele>
        <time>2016-06-26T11:15:13Z</time>
      </trkpt>
      <trkpt lat="46.7134" lon="5.9686">
        <ele>625</ele>
        <time>2016-06-26T11:15:16Z</time>
      </trkpt>
      <trkpt lat="46.71365" lon="5.96858">
        <ele>624</ele>
        <time>2016-06-26T11:15:19Z</time>
      </trkpt>
      <trkpt lat="46.71384" lon="5.9686">
        <ele>624</ele>
        <time>2016-06-26T11:15:21Z</time>
      </trkpt>
      <trkpt lat="46.71403" lon="5.96865">
        <ele>624</ele>
        <time>2016-06-26T11:15:23Z</time>
      </trkpt>
      <trkpt lat="46.71423" lon="5.96872">
        <ele>623</ele>
        <time>2016-06-26T11:15:25Z</time>
      </trkpt>
      <trkpt lat="46.71442" lon="5.9688">
        <ele>623</ele>
        <time>2016-06-26T11:15:27Z</time>
      </trkpt>
      <trkpt lat="46.71459" lon="5.96889">
        <ele>622</ele>
        <time>2016-06-26T11:15:29Z</time>
      </trkpt>
      <trkpt lat="46.71476" lon="5.969">
        <ele>622</ele>
        <time>2016-06-26T11:15:31Z</time>
      </trkpt>
      <trkpt lat="46.71493" lon="5.96911">
        <ele>622</ele>
        <time>2016-06-26T11:15:33Z</time>
      </trkpt>
      <trkpt lat="46.71517" lon="5.96925">
        <ele>621</ele>
        <time>2016-06-26T11:15:36Z</time>
      </trkpt>
      <trkpt lat="46.71533" lon="5.96937">
        <ele>621</ele>
        <time>2016-06-26T11:15:38Z</time>
      </trkpt>
      <trkpt lat="46.71557" lon="5.96948">
        <ele>620</ele>
        <time>2016-06-26T11:15:41Z</time>
      </trkpt>
      <trkpt lat="46.71581" lon="5.96952">
        <ele>620</ele>
        <time>2016-06-26T11:15:44Z</time>
      </trkpt>
      <trkpt lat="46.71604" lon="5.96964">
        <ele>619</ele>
        <time>2016-06-26T11:15:47Z</time>
      </trkpt>
      <trkpt lat="46.71625" lon="5.96976">
        <ele>619</ele>
        <time>2016-06-26T11:15:50Z</time>
      </trkpt>
      <trkpt lat="46.71643" lon="5.96984">
        <ele>619</ele>
        <time>2016-06-26T11:15:53Z</time>
      </trkpt>
      <trkpt lat="46.7166" lon="5.96995">
        <ele>618</ele>
        <time>2016-06-26T11:15:56Z</time>
      </trkpt>
      <trkpt lat="46.7168" lon="5.97006">
        <ele>618</ele>
        <time>2016-06-26T11:16:00Z</time>
      </trkpt>
      <trkpt lat="46.71698" lon="5.97018">
        <ele>618</ele>
        <time>2016-06-26T11:16:04Z</time>
      </trkpt>
      <trkpt lat="46.71718" lon="5.97024">
        <ele>618</ele>
        <time>2016-06-26T11:16:09Z</time>
      </trkpt>
      <trkpt lat="46.71736" lon="5.97022">
        <ele>617</ele>
        <time>2016-06-26T11:16:13Z</time>
      </trkpt>
      <trkpt lat="46.71758" lon="5.9702">
        <ele>617</ele>
        <time>2016-06-26T11:16:18Z</time>
      </trkpt>
      <trkpt lat="46.71777" lon="5.97017">
        <ele>617</ele>
        <time>2016-06-26T11:16:23Z</time>
      </trkpt>
      <trkpt lat="46.71799" lon="5.97013">
        <ele>616</ele>
        <time>2016-06-26T11:16:28Z</time>
      </trkpt>
      <trkpt lat="46.71822" lon="5.97012">
        <ele>616</ele>
        <time>2016-06-26T11:16:33Z</time>
      </trkpt>
      <trkpt lat="46.71839" lon="5.9702">
        <ele>616</ele>
        <time>2016-06-26T11:16:37Z</time>
      </trkpt>
      <trkpt lat="46.71857" lon="5.97039">
        <ele>616</ele>
        <time>2016-06-26T11:16:42Z</time>
      </trkpt>
      <trkpt lat="46.71873" lon="5.97055">
        <ele>615</ele>
        <time>2016-06-26T11:16:46Z</time>
      </trkpt>
      <trkpt lat="46.71892" lon="5.97065">
        <ele>615</ele>
        <time>2016-06-26T11:16:50Z</time>
      </trkpt>
      <trkpt lat="46.71912" lon="5.97075">
        <ele>614</ele>
        <time>2016-06-26T11:16:54Z</time>
      </trkpt>
      <trkpt lat="46.71933" lon="5.97085">
        <ele>614</ele>
        <time>2016-06-26T11:16:58Z</time>
      </trkpt>
      <trkpt lat="46.71954" lon="5.97094">
        <ele>614</ele>
        <time>2016-06-26T11:17:02Z</time>
      </trkpt>
      <trkpt lat="46.71976" lon="5.97097">
        <ele>613</ele>
        <time>2016-06-26T11:17:06Z</time>
      </trkpt>
      <trkpt lat="46.71996" lon="5.97101">
        <ele>613</ele>
        <time>2016-06-26T11:17:10Z</time>
      </trkpt>
      <trkpt lat="46.72015" lon="5.97107">
        <ele>612</ele>
        <time>2016-06-26T11:17:14Z</time>
      </trkpt>
      <trkpt lat="46.72038" lon="5.97113">
        <ele>611</ele>
        <time>2016-06-26T11:17:18Z</time>
      </trkpt>
      <trkpt lat="46.7206" lon="5.97118">
        <ele>611</ele>
        <time>2016-06-26T11:17:22Z</time>
      </trkpt>
      <trkpt lat="46.72083" lon="5.97125">
        <ele>610</ele>
        <time>2016-06-26T11:17:26Z</time>
      </trkpt>
      <trkpt lat="46.72102" lon="5.9713">
        <ele>610</ele>
        <time>2016-06-26T11:17:29Z</time>
      </trkpt>
      <trkpt lat="46.72122" lon="5.97148">
        <ele>610</ele>
        <time>2016-06-26T11:17:33Z</time>
      </trkpt>
      <trkpt lat="46.7214" lon="5.97163">
        <ele>610</ele>
        <time>2016-06-26T11:17:37Z</time>
      </trkpt>
      <trkpt lat="46.72157" lon="5.97185">
        <ele>610</ele>
        <time>2016-06-26T11:17:41Z</time>
      </trkpt>
      <trkpt lat="46.72172" lon="5.9721">
        <ele>610</ele>
        <time>2016-06-26T11:17:45Z</time>
      </trkpt>
      <trkpt lat="46.72185" lon="5.97233">
        <ele>610</ele>
        <time>2016-06-26T11:17:49Z</time>
      </trkpt>
      <trkpt lat="46.72199" lon="5.97257">
        <ele>610</ele>
        <time>2016-06-26T11:17:53Z</time>
      </trkpt>
      <trkpt lat="46.72216" lon="5.97278">
        <ele>610</ele>
        <time>2016-06-26T11:17:57Z</time>
      </trkpt>
      <trkpt lat="46.72235" lon="5.97297">
        <ele>610</ele>
        <time>2016-06-26T11:18:01Z</time>
      </trkpt>
      <trkpt lat="46.72251" lon="5.97315">
        <ele>609</ele>
        <time>2016-06-26T11:18:05Z</time>
      </trkpt>
      <trkpt lat="46.72267" lon="5.9733">
        <ele>609</ele>
        <time>2016-06-26T11:18:09Z</time>
      </trkpt>
      <trkpt lat="46.7228" lon="5.97351">
        <ele>609</ele>
        <time>2016-06-26T11:18:13Z</time>
      </trkpt>
      <trkpt lat="46.72293" lon="5.97373">
        <ele>609</ele>
        <time>2016-06-26T11:18:17Z</time>
      </trkpt>
      <trkpt lat="46.72309" lon="5.97396">
        <ele>609</ele>
        <time>2016-06-26T11:18:21Z</time>
      </trkpt>
      <trkpt lat="46.72325" lon="5.97414">
        <ele>609</ele>
        <time>2016-06-26T11:18:25Z</time>
      </trkpt>
      <trkpt lat="46.7234" lon="5.9743">
        <ele>609</ele>
        <time>2016-06-26T11:18:29Z</time>
      </trkpt>
      <trkpt lat="46.72356" lon="5.97443">
        <ele>609</ele>
        <time>2016-06-26T11:18:33Z</time>
      </trkpt>
      <trkpt lat="46.72373" lon="5.97456">
        <ele>609</ele>
        <time>2016-06-26T11:18:37Z</time>
      </trkpt>
      <trkpt lat="46.72391" lon="5.97465">
        <ele>609</ele>
        <time>2016-06-26T11:18:41Z</time>
      </trkpt>
      <trkpt lat="46.72408" lon="5.97475">
        <ele>609</ele>
        <time>2016-06-26T11:18:45Z</time>
      </trkpt>
      <trkpt lat="46.72425" lon="5.97496">
        <ele>610</ele>
        <time>2016-06-26T11:18:50Z</time>
      </trkpt>
      <trkpt lat="46.72438" lon="5.97521">
        <ele>610</ele>
        <time>2016-06-26T11:18:55Z</time>
      </trkpt>
      <trkpt lat="46.72453" lon="5.97543">
        <ele>610</ele>
        <time>2016-06-26T11:19:00Z</time>
      </trkpt>
      <trkpt lat="46.7247" lon="5.97561">
        <ele>610</ele>
        <time>2016-06-26T11:19:05Z</time>
      </trkpt>
      <trkpt lat="46.72484" lon="5.97579">
        <ele>610</ele>
        <time>2016-06-26T11:19:09Z</time>
      </trkpt>
      <trkpt lat="46.72501" lon="5.97596">
        <ele>610</ele>
        <time>2016-06-26T11:19:14Z</time>
      </trkpt>
      <trkpt lat="46.72518" lon="5.97614">
        <ele>610</ele>
        <time>2016-06-26T11:19:19Z</time>
      </trkpt>
      <trkpt lat="46.72535" lon="5.9763">
        <ele>611</ele>
        <time>2016-06-26T11:19:24Z</time>
      </trkpt>
      <trkpt lat="46.72552" lon="5.97649">
        <ele>611</ele>
        <time>2016-06-26T11:19:29Z</time>
      </trkpt>
      <trkpt lat="46.72568" lon="5.97665">
        <ele>610</ele>
        <time>2016-06-26T11:19:34Z</time>
      </trkpt>
      <trkpt lat="46.72583" lon="5.97681">
        <ele>611</ele>
        <time>2016-06-26T11:19:38Z</time>
      </trkpt>
      <trkpt lat="46.72601" lon="5.977">
        <ele>611</ele>
        <time>2016-06-26T11:19:43Z</time>
      </trkpt>
      <trkpt lat="46.72618" lon="5.97721">
        <ele>611</ele>
        <time>2016-06-26T11:19:48Z</time>
      </trkpt>
      <trkpt lat="46.72633" lon="5.97739">
        <ele>611</ele>
        <time>2016-06-26T11:19:52Z</time>
      </trkpt>
      <trkpt lat="46.72648" lon="5.97754">
        <ele>612</ele>
        <time>2016-06-26T11:19:56Z</time>
      </trkpt>
      <trkpt lat="46.72666" lon="5.97763">
        <ele>612</ele>
        <time>2016-06-26T11:20:00Z</time>
      </trkpt>
      <trkpt lat="46.72688" lon="5.97768">
        <ele>612</ele>
        <time>2016-06-26T11:20:05Z</time>
      </trkpt>
      <trkpt lat="46.72706" lon="5.97773">
        <ele>612</ele>
        <time>2016-06-26T11:20:09Z</time>
      </trkpt>
      <trkpt lat="46.72725" lon="5.9779">
        <ele>612</ele>
        <time>2016-06-26T11:20:14Z</time>
      </trkpt>
      <trkpt lat="46.7274" lon="5.97809">
        <ele>612</ele>
        <time>2016-06-26T11:20:19Z</time>
      </trkpt>
      <trkpt lat="46.72752" lon="5.97833">
        <ele>612</ele>
        <time>2016-06-26T11:20:24Z</time>
      </trkpt>
      <trkpt lat="46.72763" lon="5.97862">
        <ele>612</ele>
        <time>2016-06-26T11:20:29Z</time>
      </trkpt>
      <trkpt lat="46.72774" lon="5.97883">
        <ele>612</ele>
        <time>2016-06-26T11:20:33Z</time>
      </trkpt>
      <trkpt lat="46.72788" lon="5.979">
        <ele>612</ele>
        <time>2016-06-26T11:20:37Z</time>
      </trkpt>
      <trkpt lat="46.72807" lon="5.97916">
        <ele>612</ele>
        <time>2016-06-26T11:20:42Z</time>
      </trkpt>
      <trkpt lat="46.72826" lon="5.97935">
        <ele>612</ele>
        <time>2016-06-26T11:20:47Z</time>
      </trkpt>
      <trkpt lat="46.72843" lon="5.9795">
        <ele>613</ele>
        <time>2016-06-26T11:20:51Z</time>
      </trkpt>
      <trkpt lat="46.72858" lon="5.97965">
        <ele>613</ele>
        <time>2016-06-26T11:20:55Z</time>
      </trkpt>
      <trkpt lat="46.72874" lon="5.97982">
        <ele>613</ele>
        <time>2016-06-26T11:20:59Z</time>
      </trkpt>
      <trkpt lat="46.72888" lon="5.98002">
        <ele>614</ele>
        <time>2016-06-26T11:21:03Z</time>
      </trkpt>
      <trkpt lat="46.72905" lon="5.9802">
        <ele>614</ele>
        <time>2016-06-26T11:21:07Z</time>
      </trkpt>
      <trkpt lat="46.72923" lon="5.98035">
        <ele>614</ele>
        <time>2016-06-26T11:21:11Z</time>
      </trkpt>
      <trkpt lat="46.72942" lon="5.98048">
        <ele>614</ele>
        <time>2016-06-26T11:21:15Z</time>
      </trkpt>
      <trkpt lat="46.7296" lon="5.98057">
        <ele>614</ele>
        <time>2016-06-26T11:21:18Z</time>
      </trkpt>
      <trkpt lat="46.7298" lon="5.98069">
        <ele>613</ele>
        <time>2016-06-26T11:21:22Z</time>
      </trkpt>
      <trkpt lat="46.72997" lon="5.98078">
        <ele>612</ele>
        <time>2016-06-26T11:21:25Z</time>
      </trkpt>
      <trkpt lat="46.73018" lon="5.98092">
        <ele>612</ele>
        <time>2016-06-26T11:21:29Z</time>
      </trkpt>
      <trkpt lat="46.73039" lon="5.98104">
        <ele>613</ele>
        <time>2016-06-26T11:21:33Z</time>
      </trkpt>
      <trkpt lat="46.73059" lon="5.98118">
        <ele>613</ele>
        <time>2016-06-26T11:21:37Z</time>
      </trkpt>
      <trkpt lat="46.7308" lon="5.98132">
        <ele>613</ele>
        <time>2016-06-26T11:21:41Z</time>
      </trkpt>
      <trkpt lat="46.731" lon="5.98149">
        <ele>613</ele>
        <time>2016-06-26T11:21:45Z</time>
      </trkpt>
      <trkpt lat="46.73116" lon="5.98172">
        <ele>612</ele>
        <time>2016-06-26T11:21:49Z</time>
      </trkpt>
      <trkpt lat="46.7313" lon="5.98198">
        <ele>612</ele>
        <time>2016-06-26T11:21:53Z</time>
      </trkpt>
      <trkpt lat="46.73141" lon="5.98222">
        <ele>612</ele>
        <time>2016-06-26T11:21:57Z</time>
      </trkpt>
      <trkpt lat="46.73159" lon="5.98248">
        <ele>611</ele>
        <time>2016-06-26T11:22:01Z</time>
      </trkpt>
      <trkpt lat="46.73176" lon="5.98269">
        <ele>612</ele>
        <time>2016-06-26T11:22:04Z</time>
      </trkpt>
      <trkpt lat="46.73191" lon="5.9829">
        <ele>612</ele>
        <time>2016-06-26T11:22:07Z</time>
      </trkpt>
      <trkpt lat="46.73205" lon="5.9831">
        <ele>612</ele>
        <time>2016-06-26T11:22:14Z</time>
      </trkpt>
      <trkpt lat="46.73222" lon="5.98319">
        <ele>612</ele>
        <time>2016-06-26T11:36:47Z</time>
      </trkpt>
      <trkpt lat="46.7324" lon="5.98322">
        <ele>613</ele>
        <time>2016-06-26T11:36:56Z</time>
      </trkpt>
      <trkpt lat="46.73249" lon="5.98298">
        <ele>612</ele>
        <time>2016-06-26T11:37:09Z</time>
      </trkpt>
      <trkpt lat="46.73259" lon="5.98272">
        <ele>613</ele>
        <time>2016-06-26T11:37:15Z</time>
      </trkpt>
      <trkpt lat="46.73272" lon="5.98249">
        <ele>613</ele>
        <time>2016-06-26T11:37:20Z</time>
      </trkpt>
      <trkpt lat="46.73286" lon="5.98226">
        <ele>613</ele>
        <time>2016-06-26T11:37:25Z</time>
      </trkpt>
      <trkpt lat="46.733" lon="5.982">
        <ele>613</ele>
        <time>2016-06-26T11:37:29Z</time>
      </trkpt>
      <trkpt lat="46.73336" lon="5.98138">
        <ele>613</ele>
        <time>2016-06-26T11:37:42Z</time>
      </trkpt>
      <trkpt lat="46.73339" lon="5.98111">
        <ele>613</ele>
        <time>2016-06-26T11:37:47Z</time>
      </trkpt>
      <trkpt lat="46.73346" lon="5.98086">
        <ele>613</ele>
        <time>2016-06-26T11:37:52Z</time>
      </trkpt>
      <trkpt lat="46.73355" lon="5.98058">
        <ele>614</ele>
        <time>2016-06-26T11:37:58Z</time>
      </trkpt>
      <trkpt lat="46.73365" lon="5.98033">
        <ele>614</ele>
        <time>2016-06-26T11:38:04Z</time>
      </trkpt>
      <trkpt lat="46.73376" lon="5.98006">
        <ele>615</ele>
        <time>2016-06-26T11:38:13Z</time>
      </trkpt>
      <trkpt lat="46.73385" lon="5.9798">
        <ele>615</ele>
        <time>2016-06-26T11:38:18Z</time>
      </trkpt>
      <trkpt lat="46.73394" lon="5.97955">
        <ele>615</ele>
        <time>2016-06-26T11:38:23Z</time>
      </trkpt>
      <trkpt lat="46.73403" lon="5.97928">
        <ele>615</ele>
        <time>2016-06-26T11:38:28Z</time>
      </trkpt>
      <trkpt lat="46.73414" lon="5.97902">
        <ele>615</ele>
        <time>2016-06-26T11:38:33Z</time>
      </trkpt>
      <trkpt lat="46.73423" lon="5.97869">
        <ele>612</ele>
        <time>2016-06-26T11:38:38Z</time>
      </trkpt>
      <trkpt lat="46.73422" lon="5.97837">
        <ele>613</ele>
        <time>2016-06-26T11:38:43Z</time>
      </trkpt>
      <trkpt lat="46.73418" lon="5.97811">
        <ele>612</ele>
        <time>2016-06-26T11:38:47Z</time>
      </trkpt>
      <trkpt lat="46.73411" lon="5.97785">
        <ele>615</ele>
        <time>2016-06-26T11:38:51Z</time>
      </trkpt>
      <trkpt lat="46.73403" lon="5.97759">
        <ele>614</ele>
        <time>2016-06-26T11:38:55Z</time>
      </trkpt>
      <trkpt lat="46.73388" lon="5.97735">
        <ele>614</ele>
        <time>2016-06-26T11:38:59Z</time>
      </trkpt>
      <trkpt lat="46.73375" lon="5.97716">
        <ele>614</ele>
        <time>2016-06-26T11:39:02Z</time>
      </trkpt>
      <trkpt lat="46.7336" lon="5.97697">
        <ele>614</ele>
        <time>2016-06-26T11:39:05Z</time>
      </trkpt>
      <trkpt lat="46.73345" lon="5.97672">
        <ele>614</ele>
        <time>2016-06-26T11:39:09Z</time>
      </trkpt>
      <trkpt lat="46.73334" lon="5.97643">
        <ele>611</ele>
        <time>2016-06-26T11:39:13Z</time>
      </trkpt>
      <trkpt lat="46.73326" lon="5.97619">
        <ele>614</ele>
        <time>2016-06-26T11:39:16Z</time>
      </trkpt>
      <trkpt lat="46.73322" lon="5.97593">
        <ele>612</ele>
        <time>2016-06-26T11:39:19Z</time>
      </trkpt>
      <trkpt lat="46.7332" lon="5.97564">
        <ele>610</ele>
        <time>2016-06-26T11:39:22Z</time>
      </trkpt>
      <trkpt lat="46.73317" lon="5.97536">
        <ele>610</ele>
        <time>2016-06-26T11:39:25Z</time>
      </trkpt>
      <trkpt lat="46.73313" lon="5.97501">
        <ele>609</ele>
        <time>2016-06-26T11:39:29Z</time>
      </trkpt>
      <trkpt lat="46.73311" lon="5.97472">
        <ele>607</ele>
        <time>2016-06-26T11:39:32Z</time>
      </trkpt>
      <trkpt lat="46.73308" lon="5.97441">
        <ele>607</ele>
        <time>2016-06-26T11:39:35Z</time>
      </trkpt>
      <trkpt lat="46.73306" lon="5.97411">
        <ele>606</ele>
        <time>2016-06-26T11:39:38Z</time>
      </trkpt>
      <trkpt lat="46.73307" lon="5.97382">
        <ele>606</ele>
        <time>2016-06-26T11:39:41Z</time>
      </trkpt>
      <trkpt lat="46.73308" lon="5.97351">
        <ele>606</ele>
        <time>2016-06-26T11:39:44Z</time>
      </trkpt>
      <trkpt lat="46.73312" lon="5.97323">
        <ele>604</ele>
        <time>2016-06-26T11:39:47Z</time>
      </trkpt>
      <trkpt lat="46.73319" lon="5.97295">
        <ele>604</ele>
        <time>2016-06-26T11:39:50Z</time>
      </trkpt>
      <trkpt lat="46.73324" lon="5.97264">
        <ele>603</ele>
        <time>2016-06-26T11:39:54Z</time>
      </trkpt>
      <trkpt lat="46.73329" lon="5.97233">
        <ele>603</ele>
        <time>2016-06-26T11:39:58Z</time>
      </trkpt>
      <trkpt lat="46.73334" lon="5.97204">
        <ele>609</ele>
        <time>2016-06-26T11:40:02Z</time>
      </trkpt>
      <trkpt lat="46.73336" lon="5.97175">
        <ele>608</ele>
        <time>2016-06-26T11:40:06Z</time>
      </trkpt>
      <trkpt lat="46.73341" lon="5.97149">
        <ele>610</ele>
        <time>2016-06-26T11:40:10Z</time>
      </trkpt>
      <trkpt lat="46.73347" lon="5.97123">
        <ele>612</ele>
        <time>2016-06-26T11:40:17Z</time>
      </trkpt>
      <trkpt lat="46.73359" lon="5.97101">
        <ele>613</ele>
        <time>2016-06-26T11:47:22Z</time>
      </trkpt>
      <trkpt lat="46.7336" lon="5.97072">
        <ele>614</ele>
        <time>2016-06-26T11:47:31Z</time>
      </trkpt>
      <trkpt lat="46.73353" lon="5.97046">
        <ele>613</ele>
        <time>2016-06-26T11:47:39Z</time>
      </trkpt>
      <trkpt lat="46.73345" lon="5.97022">
        <ele>612</ele>
        <time>2016-06-26T11:47:46Z</time>
      </trkpt>
      <trkpt lat="46.73338" lon="5.96991">
        <ele>610</ele>
        <time>2016-06-26T11:47:52Z</time>
      </trkpt>
      <trkpt lat="46.73333" lon="5.96961">
        <ele>606</ele>
        <time>2016-06-26T11:47:56Z</time>
      </trkpt>
      <trkpt lat="46.73325" lon="5.96934">
        <ele>606</ele>
        <time>2016-06-26T11:48:00Z</time>
      </trkpt>
      <trkpt lat="46.73321" lon="5.96904">
        <ele>607</ele>
        <time>2016-06-26T11:48:04Z</time>
      </trkpt>
      <trkpt lat="46.73317" lon="5.96875">
        <ele>606</ele>
        <time>2016-06-26T11:48:08Z</time>
      </trkpt>
      <trkpt lat="46.73308" lon="5.96847">
        <ele>606</ele>
        <time>2016-06-26T11:48:12Z</time>
      </trkpt>
      <trkpt lat="46.73305" lon="5.96814">
        <ele>606</ele>
        <time>2016-06-26T11:48:16Z</time>
      </trkpt>
      <trkpt lat="46.73298" lon="5.96789">
        <ele>605</ele>
        <time>2016-06-26T11:48:20Z</time>
      </trkpt>
      <trkpt lat="46.73291" lon="5.96764">
        <ele>605</ele>
        <time>2016-06-26T11:48:25Z</time>
      </trkpt>
      <trkpt lat="46.73278" lon="5.96741">
        <ele>608</ele>
        <time>2016-06-26T11:48:29Z</time>
      </trkpt>
      <trkpt lat="46.73275" lon="5.96713">
        <ele>610</ele>
        <time>2016-06-26T11:48:34Z</time>
      </trkpt>
      <trkpt lat="46.73277" lon="5.96682">
        <ele>612</ele>
        <time>2016-06-26T11:48:40Z</time>
      </trkpt>
      <trkpt lat="46.73268" lon="5.96658">
        <ele>625</ele>
        <time>2016-06-26T11:48:45Z</time>
      </trkpt>
      <trkpt lat="46.73251" lon="5.96644">
        <ele>627</ele>
        <time>2016-06-26T11:48:50Z</time>
      </trkpt>
      <trkpt lat="46.73232" lon="5.96636">
        <ele>621</ele>
        <time>2016-06-26T11:48:56Z</time>
      </trkpt>
      <trkpt lat="46.73215" lon="5.96628">
        <ele>622</ele>
        <time>2016-06-26T11:49:10Z</time>
      </trkpt>
      <trkpt lat="46.73198" lon="5.96617">
        <ele>623</ele>
        <time>2016-06-26T11:49:26Z</time>
      </trkpt>
      <trkpt lat="46.73181" lon="5.96605">
        <ele>625</ele>
        <time>2016-06-26T11:49:40Z</time>
      </trkpt>
      <trkpt lat="46.73164" lon="5.96595">
        <ele>625</ele>
        <time>2016-06-26T11:49:56Z</time>
      </trkpt>
      <trkpt lat="46.73147" lon="5.96584">
        <ele>623</ele>
        <time>2016-06-26T11:50:16Z</time>
      </trkpt>
      <trkpt lat="46.7313" lon="5.96575">
        <ele>640</ele>
        <time>2016-06-26T11:50:36Z</time>
      </trkpt>
      <trkpt lat="46.73112" lon="5.9657">
        <ele>639</ele>
        <time>2016-06-26T11:51:19Z</time>
      </trkpt>
      <trkpt lat="46.73097" lon="5.96553">
        <ele>642</ele>
        <time>2016-06-26T11:51:53Z</time>
      </trkpt>
      <trkpt lat="46.73078" lon="5.96553">
        <ele>636</ele>
        <time>2016-06-26T11:52:07Z</time>
      </trkpt>
      <trkpt lat="46.73061" lon="5.96548">
        <ele>637</ele>
        <time>2016-06-26T11:52:20Z</time>
      </trkpt>
      <trkpt lat="46.73043" lon="5.96543">
        <ele>638</ele>
        <time>2016-06-26T11:52:34Z</time>
      </trkpt>
      <trkpt lat="46.73025" lon="5.96537">
        <ele>638</ele>
        <time>2016-06-26T11:52:47Z</time>
      </trkpt>
      <trkpt lat="46.73006" lon="5.96533">
        <ele>639</ele>
        <time>2016-06-26T11:53:02Z</time>
      </trkpt>
      <trkpt lat="46.72987" lon="5.96528">
        <ele>634</ele>
        <time>2016-06-26T11:53:16Z</time>
      </trkpt>
      <trkpt lat="46.72968" lon="5.96521">
        <ele>633</ele>
        <time>2016-06-26T11:53:28Z</time>
      </trkpt>
      <trkpt lat="46.72948" lon="5.96513">
        <ele>632</ele>
        <time>2016-06-26T11:53:39Z</time>
      </trkpt>
      <trkpt lat="46.7293" lon="5.96504">
        <ele>634</ele>
        <time>2016-06-26T11:53:50Z</time>
      </trkpt>
      <trkpt lat="46.72913" lon="5.96496">
        <ele>640</ele>
        <time>2016-06-26T11:54:03Z</time>
      </trkpt>
      <trkpt lat="46.72896" lon="5.96485">
        <ele>642</ele>
        <time>2016-06-26T11:54:15Z</time>
      </trkpt>
      <trkpt lat="46.72878" lon="5.96476">
        <ele>642</ele>
        <time>2016-06-26T11:54:30Z</time>
      </trkpt>
      <trkpt lat="46.72864" lon="5.96457">
        <ele>644</ele>
        <time>2016-06-26T11:54:45Z</time>
      </trkpt>
      <trkpt lat="46.7285" lon="5.96437">
        <ele>647</ele>
        <time>2016-06-26T11:55:01Z</time>
      </trkpt>
      <trkpt lat="46.72842" lon="5.96414">
        <ele>656</ele>
        <time>2016-06-26T11:55:21Z</time>
      </trkpt>
      <trkpt lat="46.72827" lon="5.96396">
        <ele>651</ele>
        <time>2016-06-26T11:55:42Z</time>
      </trkpt>
      <trkpt lat="46.72813" lon="5.96378">
        <ele>651</ele>
        <time>2016-06-26T11:55:48Z</time>
      </trkpt>
      <trkpt lat="46.72796" lon="5.96369">
        <ele>650</ele>
        <time>2016-06-26T11:55:56Z</time>
      </trkpt>
      <trkpt lat="46.72762" lon="5.96353">
        <ele>648</ele>
        <time>2016-06-26T11:56:00Z</time>
      </trkpt>
      <trkpt lat="46.72736" lon="5.96335">
        <ele>640</ele>
        <time>2016-06-26T11:56:04Z</time>
      </trkpt>
      <trkpt lat="46.72719" lon="5.96323">
        <ele>643</ele>
        <time>2016-06-26T11:56:07Z</time>
      </trkpt>
      <trkpt lat="46.727" lon="5.96304">
        <ele>640</ele>
        <time>2016-06-26T11:56:10Z</time>
      </trkpt>
      <trkpt lat="46.72685" lon="5.96281">
        <ele>640</ele>
        <time>2016-06-26T11:56:13Z</time>
      </trkpt>
      <trkpt lat="46.72674" lon="5.96259">
        <ele>639</ele>
        <time>2016-06-26T11:56:16Z</time>
      </trkpt>
      <trkpt lat="46.72655" lon="5.96238">
        <ele>635</ele>
        <time>2016-06-26T11:56:20Z</time>
      </trkpt>
      <trkpt lat="46.7264" lon="5.96218">
        <ele>633</ele>
        <time>2016-06-26T11:56:22Z</time>
      </trkpt>
      <trkpt lat="46.72627" lon="5.96196">
        <ele>633</ele>
        <time>2016-06-26T11:56:24Z</time>
      </trkpt>
      <trkpt lat="46.72615" lon="5.96175">
        <ele>632</ele>
        <time>2016-06-26T11:56:26Z</time>
      </trkpt>
      <trkpt lat="46.72602" lon="5.96151">
        <ele>634</ele>
        <time>2016-06-26T11:56:28Z</time>
      </trkpt>
      <trkpt lat="46.72591" lon="5.9613">
        <ele>635</ele>
        <time>2016-06-26T11:56:30Z</time>
      </trkpt>
      <trkpt lat="46.72579" lon="5.961">
        <ele>626</ele>
        <time>2016-06-26T11:56:33Z</time>
      </trkpt>
      <trkpt lat="46.72566" lon="5.96073">
        <ele>626</ele>
        <time>2016-06-26T11:56:36Z</time>
      </trkpt>
      <trkpt lat="46.72559" lon="5.96048">
        <ele>623</ele>
        <time>2016-06-26T11:56:39Z</time>
      </trkpt>
      <trkpt lat="46.72556" lon="5.96017">
        <ele>623</ele>
        <time>2016-06-26T11:56:43Z</time>
      </trkpt>
      <trkpt lat="46.72572" lon="5.96001">
        <ele>627</ele>
        <time>2016-06-26T11:56:48Z</time>
      </trkpt>
      <trkpt lat="46.72594" lon="5.9599">
        <ele>624</ele>
        <time>2016-06-26T11:56:53Z</time>
      </trkpt>
      <trkpt lat="46.72618" lon="5.95991">
        <ele>620</ele>
        <time>2016-06-26T11:56:56Z</time>
      </trkpt>
      <trkpt lat="46.72643" lon="5.95982">
        <ele>618</ele>
        <time>2016-06-26T11:56:59Z</time>
      </trkpt>
      <trkpt lat="46.72664" lon="5.9598">
        <ele>617</ele>
        <time>2016-06-26T11:57:02Z</time>
      </trkpt>
      <trkpt lat="46.72684" lon="5.95982">
        <ele>608</ele>
        <time>2016-06-26T11:57:05Z</time>
      </trkpt>
      <trkpt lat="46.72704" lon="5.95982">
        <ele>604</ele>
        <time>2016-06-26T11:57:08Z</time>
      </trkpt>
      <trkpt lat="46.72729" lon="5.95988">
        <ele>602</ele>
        <time>2016-06-26T11:57:11Z</time>
      </trkpt>
      <trkpt lat="46.72755" lon="5.95999">
        <ele>600</ele>
        <time>2016-06-26T11:57:14Z</time>
      </trkpt>
      <trkpt lat="46.72778" lon="5.9601">
        <ele>609</ele>
        <time>2016-06-26T11:57:17Z</time>
      </trkpt>
      <trkpt lat="46.72802" lon="5.96022">
        <ele>608</ele>
        <time>2016-06-26T11:57:20Z</time>
      </trkpt>
      <trkpt lat="46.72818" lon="5.96037">
        <ele>610</ele>
        <time>2016-06-26T11:57:22Z</time>
      </trkpt>
      <trkpt lat="46.72834" lon="5.96051">
        <ele>603</ele>
        <time>2016-06-26T11:57:24Z</time>
      </trkpt>
      <trkpt lat="46.72851" lon="5.96061">
        <ele>604</ele>
        <time>2016-06-26T11:57:26Z</time>
      </trkpt>
      <trkpt lat="46.72874" lon="5.96077">
        <ele>603</ele>
        <time>2016-06-26T11:57:29Z</time>
      </trkpt>
      <trkpt lat="46.72892" lon="5.96084">
        <ele>620</ele>
        <time>2016-06-26T11:57:31Z</time>
      </trkpt>
      <trkpt lat="46.72917" lon="5.96092">
        <ele>610</ele>
        <time>2016-06-26T11:57:34Z</time>
      </trkpt>
      <trkpt lat="46.72933" lon="5.96112">
        <ele>612</ele>
        <time>2016-06-26T11:57:37Z</time>
      </trkpt>
      <trkpt lat="46.7295" lon="5.96121">
        <ele>613</ele>
        <time>2016-06-26T11:57:40Z</time>
      </trkpt>
      <trkpt lat="46.72969" lon="5.96134">
        <ele>612</ele>
        <time>2016-06-26T11:57:42Z</time>
      </trkpt>
      <trkpt lat="46.72995" lon="5.96147">
        <ele>609</ele>
        <time>2016-06-26T11:57:45Z</time>
      </trkpt>
      <trkpt lat="46.7302" lon="5.96162">
        <ele>599</ele>
        <time>2016-06-26T11:57:48Z</time>
      </trkpt>
      <trkpt lat="46.73045" lon="5.96175">
        <ele>615</ele>
        <time>2016-06-26T11:57:51Z</time>
      </trkpt>
      <trkpt lat="46.7307" lon="5.96186">
        <ele>611</ele>
        <time>2016-06-26T11:57:54Z</time>
      </trkpt>
      <trkpt lat="46.73089" lon="5.96192">
        <ele>601</ele>
        <time>2016-06-26T11:57:56Z</time>
      </trkpt>
      <trkpt lat="46.7311" lon="5.96204">
        <ele>604</ele>
        <time>2016-06-26T11:57:59Z</time>
      </trkpt>
      <trkpt lat="46.73129" lon="5.9621">
        <ele>603</ele>
        <time>2016-06-26T11:58:01Z</time>
      </trkpt>
      <trkpt lat="46.73148" lon="5.96217">
        <ele>602</ele>
        <time>2016-06-26T11:58:04Z</time>
      </trkpt>
      <trkpt lat="46.7317" lon="5.96223">
        <ele>593</ele>
        <time>2016-06-26T11:58:07Z</time>
      </trkpt>
      <trkpt lat="46.73194" lon="5.96232">
        <ele>592</ele>
        <time>2016-06-26T11:58:11Z</time>
      </trkpt>
      <trkpt lat="46.73212" lon="5.96239">
        <ele>591</ele>
        <time>2016-06-26T11:58:14Z</time>
      </trkpt>
      <trkpt lat="46.73234" lon="5.96243">
        <ele>589</ele>
        <time>2016-06-26T11:58:16Z</time>
      </trkpt>
      <trkpt lat="46.7326" lon="5.96244">
        <ele>587</ele>
        <time>2016-06-26T11:58:19Z</time>
      </trkpt>
      <trkpt lat="46.73283" lon="5.96242">
        <ele>587</ele>
        <time>2016-06-26T11:58:22Z</time>
      </trkpt>
      <trkpt lat="46.73304" lon="5.96237">
        <ele>587</ele>
        <time>2016-06-26T11:58:25Z</time>
      </trkpt>
      <trkpt lat="46.73323" lon="5.96233">
        <ele>588</ele>
        <time>2016-06-26T11:58:28Z</time>
      </trkpt>
      <trkpt lat="46.73346" lon="5.96225">
        <ele>588</ele>
        <time>2016-06-26T11:58:32Z</time>
      </trkpt>
      <trkpt lat="46.73364" lon="5.96218">
        <ele>587</ele>
        <time>2016-06-26T11:58:35Z</time>
      </trkpt>
      <trkpt lat="46.73385" lon="5.96206">
        <ele>586</ele>
        <time>2016-06-26T11:58:39Z</time>
      </trkpt>
      <trkpt lat="46.73405" lon="5.96198">
        <ele>586</ele>
        <time>2016-06-26T11:58:43Z</time>
      </trkpt>
      <trkpt lat="46.73424" lon="5.96197">
        <ele>590</ele>
        <time>2016-06-26T11:58:48Z</time>
      </trkpt>
      <trkpt lat="46.73442" lon="5.96191">
        <ele>591</ele>
        <time>2016-06-26T11:58:53Z</time>
      </trkpt>
      <trkpt lat="46.73462" lon="5.9618">
        <ele>593</ele>
        <time>2016-06-26T11:58:59Z</time>
      </trkpt>
      <trkpt lat="46.73483" lon="5.9617">
        <ele>594</ele>
        <time>2016-06-26T11:59:04Z</time>
      </trkpt>
      <trkpt lat="46.735" lon="5.96156">
        <ele>594</ele>
        <time>2016-06-26T11:59:09Z</time>
      </trkpt>
      <trkpt lat="46.73517" lon="5.96143">
        <ele>593</ele>
        <time>2016-06-26T11:59:14Z</time>
      </trkpt>
      <trkpt lat="46.73535" lon="5.96131">
        <ele>593</ele>
        <time>2016-06-26T11:59:18Z</time>
      </trkpt>
      <trkpt lat="46.73553" lon="5.96119">
        <ele>593</ele>
        <time>2016-06-26T11:59:23Z</time>
      </trkpt>
      <trkpt lat="46.73571" lon="5.96108">
        <ele>592</ele>
        <time>2016-06-26T11:59:27Z</time>
      </trkpt>
      <trkpt lat="46.73591" lon="5.96099">
        <ele>594</ele>
        <time>2016-06-26T11:59:33Z</time>
      </trkpt>
      <trkpt lat="46.73609" lon="5.96095">
        <ele>596</ele>
        <time>2016-06-26T11:59:39Z</time>
      </trkpt>
      <trkpt lat="46.73627" lon="5.96086">
        <ele>596</ele>
        <time>2016-06-26T11:59:45Z</time>
      </trkpt>
      <trkpt lat="46.73646" lon="5.96078">
        <ele>588</ele>
        <time>2016-06-26T11:59:52Z</time>
      </trkpt>
      <trkpt lat="46.73672" lon="5.9607">
        <ele>591</ele>
        <time>2016-06-26T11:59:58Z</time>
      </trkpt>
      <trkpt lat="46.73689" lon="5.96063">
        <ele>590</ele>
        <time>2016-06-26T12:00:02Z</time>
      </trkpt>
      <trkpt lat="46.73707" lon="5.96054">
        <ele>590</ele>
        <time>2016-06-26T12:00:06Z</time>
      </trkpt>
      <trkpt lat="46.73724" lon="5.96043">
        <ele>589</ele>
        <time>2016-06-26T12:00:11Z</time>
      </trkpt>
      <trkpt lat="46.73746" lon="5.9603">
        <ele>588</ele>
        <time>2016-06-26T12:00:15Z</time>
      </trkpt>
      <trkpt lat="46.73766" lon="5.96015">
        <ele>593</ele>
        <time>2016-06-26T12:00:19Z</time>
      </trkpt>
      <trkpt lat="46.73783" lon="5.96003">
        <ele>595</ele>
        <time>2016-06-26T12:00:22Z</time>
      </trkpt>
      <trkpt lat="46.73804" lon="5.95986">
        <ele>589</ele>
        <time>2016-06-26T12:00:26Z</time>
      </trkpt>
      <trkpt lat="46.73821" lon="5.95973">
        <ele>589</ele>
        <time>2016-06-26T12:00:29Z</time>
      </trkpt>
      <trkpt lat="46.7384" lon="5.95961">
        <ele>592</ele>
        <time>2016-06-26T12:00:31Z</time>
      </trkpt>
      <trkpt lat="46.7386" lon="5.95947">
        <ele>591</ele>
        <time>2016-06-26T12:00:35Z</time>
      </trkpt>
      <trkpt lat="46.73878" lon="5.95932">
        <ele>590</ele>
        <time>2016-06-26T12:00:38Z</time>
      </trkpt>
      <trkpt lat="46.73897" lon="5.95918">
        <ele>588</ele>
        <time>2016-06-26T12:00:41Z</time>
      </trkpt>
      <trkpt lat="46.7392" lon="5.95907">
        <ele>584</ele>
        <time>2016-06-26T12:00:43Z</time>
      </trkpt>
      <trkpt lat="46.7394" lon="5.95893">
        <ele>583</ele>
        <time>2016-06-26T12:00:47Z</time>
      </trkpt>
      <trkpt lat="46.73958" lon="5.95878">
        <ele>583</ele>
        <time>2016-06-26T12:00:50Z</time>
      </trkpt>
      <trkpt lat="46.73978" lon="5.9586">
        <ele>583</ele>
        <time>2016-06-26T12:00:54Z</time>
      </trkpt>
      <trkpt lat="46.74001" lon="5.95847">
        <ele>583</ele>
        <time>2016-06-26T12:00:58Z</time>
      </trkpt>
      <trkpt lat="46.74021" lon="5.95832">
        <ele>581</ele>
        <time>2016-06-26T12:01:01Z</time>
      </trkpt>
      <trkpt lat="46.74042" lon="5.95818">
        <ele>581</ele>
        <time>2016-06-26T12:01:04Z</time>
      </trkpt>
      <trkpt lat="46.74126" lon="5.95765">
        <ele>580</ele>
        <time>2016-06-26T12:01:17Z</time>
      </trkpt>
      <trkpt lat="46.7414" lon="5.95748">
        <ele>580</ele>
        <time>2016-06-26T12:01:21Z</time>
      </trkpt>
      <trkpt lat="46.74158" lon="5.95734">
        <ele>580</ele>
        <time>2016-06-26T12:01:26Z</time>
      </trkpt>
      <trkpt lat="46.74175" lon="5.9572">
        <ele>579</ele>
        <time>2016-06-26T12:01:33Z</time>
      </trkpt>
      <trkpt lat="46.74193" lon="5.95706">
        <ele>579</ele>
        <time>2016-06-26T12:01:39Z</time>
      </trkpt>
      <trkpt lat="46.7421" lon="5.95692">
        <ele>579</ele>
        <time>2016-06-26T12:01:44Z</time>
      </trkpt>
      <trkpt lat="46.74231" lon="5.95679">
        <ele>579</ele>
        <time>2016-06-26T12:01:49Z</time>
      </trkpt>
      <trkpt lat="46.74245" lon="5.95662">
        <ele>578</ele>
        <time>2016-06-26T12:01:53Z</time>
      </trkpt>
      <trkpt lat="46.74266" lon="5.95649">
        <ele>581</ele>
        <time>2016-06-26T12:01:58Z</time>
      </trkpt>
      <trkpt lat="46.74283" lon="5.95639">
        <ele>583</ele>
        <time>2016-06-26T12:02:03Z</time>
      </trkpt>
      <trkpt lat="46.74301" lon="5.95632">
        <ele>583</ele>
        <time>2016-06-26T12:02:09Z</time>
      </trkpt>
      <trkpt lat="46.7432" lon="5.95629">
        <ele>584</ele>
        <time>2016-06-26T12:02:14Z</time>
      </trkpt>
      <trkpt lat="46.74338" lon="5.95627">
        <ele>590</ele>
        <time>2016-06-26T12:02:19Z</time>
      </trkpt>
      <trkpt lat="46.74357" lon="5.95632">
        <ele>591</ele>
        <time>2016-06-26T12:02:28Z</time>
      </trkpt>
      <trkpt lat="46.74375" lon="5.95639">
        <ele>591</ele>
        <time>2016-06-26T12:02:37Z</time>
      </trkpt>
      <trkpt lat="46.74393" lon="5.95651">
        <ele>591</ele>
        <time>2016-06-26T12:02:44Z</time>
      </trkpt>
      <trkpt lat="46.74414" lon="5.95658">
        <ele>590</ele>
        <time>2016-06-26T12:02:49Z</time>
      </trkpt>
      <trkpt lat="46.74436" lon="5.95664">
        <ele>596</ele>
        <time>2016-06-26T12:02:54Z</time>
      </trkpt>
      <trkpt lat="46.74456" lon="5.95672">
        <ele>587</ele>
        <time>2016-06-26T12:02:59Z</time>
      </trkpt>
      <trkpt lat="46.74476" lon="5.95679">
        <ele>589</ele>
        <time>2016-06-26T12:03:04Z</time>
      </trkpt>
      <trkpt lat="46.74495" lon="5.95686">
        <ele>589</ele>
        <time>2016-06-26T12:03:09Z</time>
      </trkpt>
      <trkpt lat="46.74515" lon="5.95688">
        <ele>590</ele>
        <time>2016-06-26T12:03:15Z</time>
      </trkpt>
      <trkpt lat="46.74533" lon="5.9568">
        <ele>589</ele>
        <time>2016-06-26T12:03:21Z</time>
      </trkpt>
      <trkpt lat="46.7455" lon="5.95668">
        <ele>590</ele>
        <time>2016-06-26T12:03:27Z</time>
      </trkpt>
      <trkpt lat="46.7457" lon="5.95655">
        <ele>603</ele>
        <time>2016-06-26T12:03:37Z</time>
      </trkpt>
      <trkpt lat="46.74588" lon="5.95652">
        <ele>602</ele>
        <time>2016-06-26T12:03:44Z</time>
      </trkpt>
      <trkpt lat="46.74606" lon="5.95652">
        <ele>604</ele>
        <time>2016-06-26T12:03:51Z</time>
      </trkpt>
      <trkpt lat="46.74625" lon="5.9565">
        <ele>605</ele>
        <time>2016-06-26T12:03:56Z</time>
      </trkpt>
      <trkpt lat="46.74644" lon="5.95651">
        <ele>603</ele>
        <time>2016-06-26T12:04:01Z</time>
      </trkpt>
      <trkpt lat="46.74663" lon="5.95646">
        <ele>602</ele>
        <time>2016-06-26T12:04:07Z</time>
      </trkpt>
      <trkpt lat="46.74683" lon="5.95639">
        <ele>598</ele>
        <time>2016-06-26T12:04:13Z</time>
      </trkpt>
      <trkpt lat="46.74702" lon="5.95627">
        <ele>599</ele>
        <time>2016-06-26T12:04:22Z</time>
      </trkpt>
      <trkpt lat="46.74722" lon="5.95619">
        <ele>598</ele>
        <time>2016-06-26T12:04:28Z</time>
      </trkpt>
      <trkpt lat="46.74741" lon="5.95611">
        <ele>597</ele>
        <time>2016-06-26T12:04:32Z</time>
      </trkpt>
      <trkpt lat="46.74757" lon="5.95595">
        <ele>593</ele>
        <time>2016-06-26T12:04:38Z</time>
      </trkpt>
      <trkpt lat="46.74775" lon="5.95584">
        <ele>591</ele>
        <time>2016-06-26T12:04:45Z</time>
      </trkpt>
      <trkpt lat="46.74793" lon="5.95569">
        <ele>597</ele>
        <time>2016-06-26T12:04:52Z</time>
      </trkpt>
      <trkpt lat="46.74809" lon="5.95555">
        <ele>597</ele>
        <time>2016-06-26T12:04:59Z</time>
      </trkpt>
      <trkpt lat="46.74826" lon="5.95542">
        <ele>597</ele>
        <time>2016-06-26T12:05:07Z</time>
      </trkpt>
      <trkpt lat="46.74843" lon="5.95531">
        <ele>591</ele>
        <time>2016-06-26T12:05:15Z</time>
      </trkpt>
      <trkpt lat="46.74859" lon="5.95518">
        <ele>591</ele>
        <time>2016-06-26T12:05:24Z</time>
      </trkpt>
      <trkpt lat="46.74874" lon="5.95502">
        <ele>591</ele>
        <time>2016-06-26T12:05:33Z</time>
      </trkpt>
      <trkpt lat="46.7489" lon="5.95485">
        <ele>597</ele>
        <time>2016-06-26T12:05:42Z</time>
      </trkpt>
      <trkpt lat="46.74905" lon="5.9547">
        <ele>598</ele>
        <time>2016-06-26T12:05:49Z</time>
      </trkpt>
      <trkpt lat="46.74921" lon="5.95457">
        <ele>595</ele>
        <time>2016-06-26T12:05:56Z</time>
      </trkpt>
      <trkpt lat="46.74936" lon="5.9544">
        <ele>596</ele>
        <time>2016-06-26T12:06:03Z</time>
      </trkpt>
      <trkpt lat="46.74951" lon="5.95426">
        <ele>597</ele>
        <time>2016-06-26T12:06:09Z</time>
      </trkpt>
      <trkpt lat="46.74968" lon="5.9541">
        <ele>603</ele>
        <time>2016-06-26T12:06:16Z</time>
      </trkpt>
      <trkpt lat="46.75013" lon="5.95365">
        <ele>600</ele>
        <time>2016-06-26T12:06:32Z</time>
      </trkpt>
      <trkpt lat="46.75029" lon="5.95346">
        <ele>600</ele>
        <time>2016-06-26T12:06:41Z</time>
      </trkpt>
      <trkpt lat="46.75045" lon="5.95327">
        <ele>603</ele>
        <time>2016-06-26T12:06:47Z</time>
      </trkpt>
      <trkpt lat="46.75062" lon="5.95312">
        <ele>602</ele>
        <time>2016-06-26T12:06:53Z</time>
      </trkpt>
      <trkpt lat="46.75079" lon="5.95295">
        <ele>602</ele>
        <time>2016-06-26T12:06:59Z</time>
      </trkpt>
      <trkpt lat="46.75096" lon="5.9528">
        <ele>599</ele>
        <time>2016-06-26T12:07:04Z</time>
      </trkpt>
      <trkpt lat="46.75111" lon="5.95266">
        <ele>599</ele>
        <time>2016-06-26T12:07:09Z</time>
      </trkpt>
      <trkpt lat="46.75127" lon="5.95252">
        <ele>598</ele>
        <time>2016-06-26T12:07:15Z</time>
      </trkpt>
      <trkpt lat="46.75143" lon="5.95234">
        <ele>604</ele>
        <time>2016-06-26T12:07:22Z</time>
      </trkpt>
      <trkpt lat="46.75159" lon="5.95218">
        <ele>605</ele>
        <time>2016-06-26T12:07:27Z</time>
      </trkpt>
      <trkpt lat="46.75174" lon="5.95203">
        <ele>600</ele>
        <time>2016-06-26T12:07:32Z</time>
      </trkpt>
      <trkpt lat="46.7519" lon="5.95185">
        <ele>601</ele>
        <time>2016-06-26T12:07:40Z</time>
      </trkpt>
      <trkpt lat="46.75206" lon="5.95173">
        <ele>600</ele>
        <time>2016-06-26T12:07:47Z</time>
      </trkpt>
      <trkpt lat="46.7522" lon="5.95155">
        <ele>608</ele>
        <time>2016-06-26T12:07:54Z</time>
      </trkpt>
      <trkpt lat="46.75237" lon="5.95142">
        <ele>608</ele>
        <time>2016-06-26T12:08:01Z</time>
      </trkpt>
      <trkpt lat="46.75253" lon="5.9513">
        <ele>602</ele>
        <time>2016-06-26T12:08:10Z</time>
      </trkpt>
      <trkpt lat="46.75267" lon="5.9511">
        <ele>604</ele>
        <time>2016-06-26T12:08:18Z</time>
      </trkpt>
      <trkpt lat="46.75285" lon="5.95098">
        <ele>603</ele>
        <time>2016-06-26T12:08:26Z</time>
      </trkpt>
      <trkpt lat="46.75302" lon="5.95086">
        <ele>602</ele>
        <time>2016-06-26T12:08:37Z</time>
      </trkpt>
      <trkpt lat="46.75321" lon="5.95079">
        <ele>606</ele>
        <time>2016-06-26T12:08:46Z</time>
      </trkpt>
      <trkpt lat="46.75339" lon="5.95072">
        <ele>600</ele>
        <time>2016-06-26T12:08:55Z</time>
      </trkpt>
      <trkpt lat="46.75358" lon="5.9506">
        <ele>599</ele>
        <time>2016-06-26T12:09:02Z</time>
      </trkpt>
      <trkpt lat="46.75374" lon="5.9505">
        <ele>599</ele>
        <time>2016-06-26T12:09:10Z</time>
      </trkpt>
      <trkpt lat="46.75391" lon="5.95034">
        <ele>599</ele>
        <time>2016-06-26T12:09:20Z</time>
      </trkpt>
      <trkpt lat="46.75402" lon="5.95013">
        <ele>600</ele>
        <time>2016-06-26T12:09:30Z</time>
      </trkpt>
      <trkpt lat="46.75411" lon="5.94988">
        <ele>603</ele>
        <time>2016-06-26T12:09:37Z</time>
      </trkpt>
      <trkpt lat="46.75423" lon="5.94963">
        <ele>596</ele>
        <time>2016-06-26T12:09:44Z</time>
      </trkpt>
      <trkpt lat="46.75426" lon="5.94934">
        <ele>598</ele>
        <time>2016-06-26T12:09:51Z</time>
      </trkpt>
      <trkpt lat="46.75424" lon="5.94908">
        <ele>599</ele>
        <time>2016-06-26T12:09:57Z</time>
      </trkpt>
      <trkpt lat="46.7542" lon="5.94881">
        <ele>597</ele>
        <time>2016-06-26T12:10:03Z</time>
      </trkpt>
      <trkpt lat="46.75414" lon="5.94854">
        <ele>608</ele>
        <time>2016-06-26T12:10:09Z</time>
      </trkpt>
      <trkpt lat="46.75406" lon="5.9483">
        <ele>607</ele>
        <time>2016-06-26T12:10:14Z</time>
      </trkpt>
      <trkpt lat="46.75402" lon="5.94799">
        <ele>609</ele>
        <time>2016-06-26T12:10:20Z</time>
      </trkpt>
      <trkpt lat="46.754" lon="5.94768">
        <ele>608</ele>
        <time>2016-06-26T12:10:26Z</time>
      </trkpt>
      <trkpt lat="46.75402" lon="5.94737">
        <ele>607</ele>
        <time>2016-06-26T12:10:32Z</time>
      </trkpt>
      <trkpt lat="46.75401" lon="5.94705">
        <ele>609</ele>
        <time>2016-06-26T12:10:37Z</time>
      </trkpt>
      <trkpt lat="46.75405" lon="5.94677">
        <ele>607</ele>
        <time>2016-06-26T12:10:41Z</time>
      </trkpt>
      <trkpt lat="46.75411" lon="5.94646">
        <ele>609</ele>
        <time>2016-06-26T12:10:45Z</time>
      </trkpt>
      <trkpt lat="46.75416" lon="5.94614">
        <ele>612</ele>
        <time>2016-06-26T12:10:49Z</time>
      </trkpt>
      <trkpt lat="46.75423" lon="5.94586">
        <ele>607</ele>
        <time>2016-06-26T12:10:53Z</time>
      </trkpt>
      <trkpt lat="46.75429" lon="5.94559">
        <ele>603</ele>
        <time>2016-06-26T12:10:58Z</time>
      </trkpt>
      <trkpt lat="46.75437" lon="5.94533">
        <ele>601</ele>
        <time>2016-06-26T12:11:03Z</time>
      </trkpt>
      <trkpt lat="46.75445" lon="5.94508">
        <ele>601</ele>
        <time>2016-06-26T12:11:08Z</time>
      </trkpt>
      <trkpt lat="46.75448" lon="5.94481">
        <ele>602</ele>
        <time>2016-06-26T12:11:13Z</time>
      </trkpt>
      <trkpt lat="46.75447" lon="5.94455">
        <ele>602</ele>
        <time>2016-06-26T12:11:18Z</time>
      </trkpt>
      <trkpt lat="46.75451" lon="5.94428">
        <ele>602</ele>
        <time>2016-06-26T12:11:23Z</time>
      </trkpt>
      <trkpt lat="46.7546" lon="5.94401">
        <ele>601</ele>
        <time>2016-06-26T12:11:29Z</time>
      </trkpt>
      <trkpt lat="46.75495" lon="5.9432">
        <ele>598</ele>
        <time>2016-06-26T12:11:45Z</time>
      </trkpt>
      <trkpt lat="46.75497" lon="5.94288">
        <ele>599</ele>
        <time>2016-06-26T12:11:48Z</time>
      </trkpt>
      <trkpt lat="46.75504" lon="5.94255">
        <ele>597</ele>
        <time>2016-06-26T12:11:52Z</time>
      </trkpt>
      <trkpt lat="46.75513" lon="5.94227">
        <ele>596</ele>
        <time>2016-06-26T12:11:56Z</time>
      </trkpt>
      <trkpt lat="46.75519" lon="5.94202">
        <ele>595</ele>
        <time>2016-06-26T12:12:00Z</time>
      </trkpt>
      <trkpt lat="46.75516" lon="5.94174">
        <ele>596</ele>
        <time>2016-06-26T12:12:05Z</time>
      </trkpt>
      <trkpt lat="46.75507" lon="5.94149">
        <ele>596</ele>
        <time>2016-06-26T12:12:11Z</time>
      </trkpt>
      <trkpt lat="46.755" lon="5.94121">
        <ele>595</ele>
        <time>2016-06-26T12:12:18Z</time>
      </trkpt>
      <trkpt lat="46.75492" lon="5.94094">
        <ele>597</ele>
        <time>2016-06-26T12:12:23Z</time>
      </trkpt>
      <trkpt lat="46.75482" lon="5.94065">
        <ele>596</ele>
        <time>2016-06-26T12:12:28Z</time>
      </trkpt>
      <trkpt lat="46.75467" lon="5.94037">
        <ele>595</ele>
        <time>2016-06-26T12:12:32Z</time>
      </trkpt>
      <trkpt lat="46.75457" lon="5.94015">
        <ele>595</ele>
        <time>2016-06-26T12:12:36Z</time>
      </trkpt>
      <trkpt lat="46.75448" lon="5.93988">
        <ele>592</ele>
        <time>2016-06-26T12:12:41Z</time>
      </trkpt>
      <trkpt lat="46.75435" lon="5.93964">
        <ele>591</ele>
        <time>2016-06-26T12:12:46Z</time>
      </trkpt>
      <trkpt lat="46.75418" lon="5.93948">
        <ele>590</ele>
        <time>2016-06-26T12:12:51Z</time>
      </trkpt>
      <trkpt lat="46.75402" lon="5.93927">
        <ele>588</ele>
        <time>2016-06-26T12:12:58Z</time>
      </trkpt>
      <trkpt lat="46.75392" lon="5.93905">
        <ele>585</ele>
        <time>2016-06-26T12:13:02Z</time>
      </trkpt>
      <trkpt lat="46.75377" lon="5.93881">
        <ele>584</ele>
        <time>2016-06-26T12:13:07Z</time>
      </trkpt>
      <trkpt lat="46.7536" lon="5.93867">
        <ele>583</ele>
        <time>2016-06-26T12:13:10Z</time>
      </trkpt>
      <trkpt lat="46.75346" lon="5.93846">
        <ele>582</ele>
        <time>2016-06-26T12:13:15Z</time>
      </trkpt>
      <trkpt lat="46.75329" lon="5.93837">
        <ele>580</ele>
        <time>2016-06-26T12:13:24Z</time>
      </trkpt>
      <trkpt lat="46.75312" lon="5.93849">
        <ele>581</ele>
        <time>2016-06-26T12:13:32Z</time>
      </trkpt>
      <trkpt lat="46.75294" lon="5.93855">
        <ele>582</ele>
        <time>2016-06-26T12:13:38Z</time>
      </trkpt>
      <trkpt lat="46.75274" lon="5.9386">
        <ele>582</ele>
        <time>2016-06-26T12:13:46Z</time>
      </trkpt>
      <trkpt lat="46.75256" lon="5.93868">
        <ele>582</ele>
        <time>2016-06-26T12:13:52Z</time>
      </trkpt>
      <trkpt lat="46.75239" lon="5.93876">
        <ele>582</ele>
        <time>2016-06-26T12:15:08Z</time>
      </trkpt>
      <trkpt lat="46.75221" lon="5.93882">
        <ele>582</ele>
        <time>2016-06-26T12:15:26Z</time>
      </trkpt>
      <trkpt lat="46.75235" lon="5.93899">
        <ele>583</ele>
        <time>2016-06-26T12:19:55Z</time>
      </trkpt>
      <trkpt lat="46.75216" lon="5.93903">
        <ele>583</ele>
        <time>2016-06-26T12:22:29Z</time>
      </trkpt>
      <trkpt lat="46.75196" lon="5.93904">
        <ele>583</ele>
        <time>2016-06-26T12:23:10Z</time>
      </trkpt>
      <trkpt lat="46.75177" lon="5.939">
        <ele>584</ele>
        <time>2016-06-26T12:23:16Z</time>
      </trkpt>
      <trkpt lat="46.75156" lon="5.93894">
        <ele>584</ele>
        <time>2016-06-26T12:23:23Z</time>
      </trkpt>
      <trkpt lat="46.75137" lon="5.93894">
        <ele>584</ele>
        <time>2016-06-26T12:23:29Z</time>
      </trkpt>
      <trkpt lat="46.75118" lon="5.93899">
        <ele>585</ele>
        <time>2016-06-26T12:23:37Z</time>
      </trkpt>
      <trkpt lat="46.75098" lon="5.93895">
        <ele>585</ele>
        <time>2016-06-26T12:23:42Z</time>
      </trkpt>
      <trkpt lat="46.75077" lon="5.93889">
        <ele>586</ele>
        <time>2016-06-26T12:23:45Z</time>
      </trkpt>
      <trkpt lat="46.75059" lon="5.93878">
        <ele>585</ele>
        <time>2016-06-26T12:23:48Z</time>
      </trkpt>
      <trkpt lat="46.75042" lon="5.93863">
        <ele>584</ele>
        <time>2016-06-26T12:23:51Z</time>
      </trkpt>
      <trkpt lat="46.75022" lon="5.93847">
        <ele>584</ele>
        <time>2016-06-26T12:23:54Z</time>
      </trkpt>
      <trkpt lat="46.75002" lon="5.93827">
        <ele>581</ele>
        <time>2016-06-26T12:23:57Z</time>
      </trkpt>
      <trkpt lat="46.74985" lon="5.93812">
        <ele>581</ele>
        <time>2016-06-26T12:23:59Z</time>
      </trkpt>
      <trkpt lat="46.7497" lon="5.93787">
        <ele>581</ele>
        <time>2016-06-26T12:24:02Z</time>
      </trkpt>
      <trkpt lat="46.74952" lon="5.93763">
        <ele>580</ele>
        <time>2016-06-26T12:24:05Z</time>
      </trkpt>
      <trkpt lat="46.74936" lon="5.9374">
        <ele>578</ele>
        <time>2016-06-26T12:24:08Z</time>
      </trkpt>
      <trkpt lat="46.7492" lon="5.93716">
        <ele>577</ele>
        <time>2016-06-26T12:24:11Z</time>
      </trkpt>
      <trkpt lat="46.74899" lon="5.93696">
        <ele>577</ele>
        <time>2016-06-26T12:24:14Z</time>
      </trkpt>
      <trkpt lat="46.7488" lon="5.93675">
        <ele>577</ele>
        <time>2016-06-26T12:24:17Z</time>
      </trkpt>
      <trkpt lat="46.74864" lon="5.93646">
        <ele>574</ele>
        <time>2016-06-26T12:24:20Z</time>
      </trkpt>
      <trkpt lat="46.74854" lon="5.93624">
        <ele>574</ele>
        <time>2016-06-26T12:24:22Z</time>
      </trkpt>
      <trkpt lat="46.74845" lon="5.93601">
        <ele>573</ele>
        <time>2016-06-26T12:24:24Z</time>
      </trkpt>
      <trkpt lat="46.74833" lon="5.9357">
        <ele>575</ele>
        <time>2016-06-26T12:24:27Z</time>
      </trkpt>
      <trkpt lat="46.74825" lon="5.93542">
        <ele>576</ele>
        <time>2016-06-26T12:24:30Z</time>
      </trkpt>
      <trkpt lat="46.74816" lon="5.93511">
        <ele>576</ele>
        <time>2016-06-26T12:24:34Z</time>
      </trkpt>
      <trkpt lat="46.74808" lon="5.93483">
        <ele>576</ele>
        <time>2016-06-26T12:24:39Z</time>
      </trkpt>
      <trkpt lat="46.74795" lon="5.93461">
        <ele>577</ele>
        <time>2016-06-26T12:24:44Z</time>
      </trkpt>
      <trkpt lat="46.74782" lon="5.93442">
        <ele>577</ele>
        <time>2016-06-26T12:24:48Z</time>
      </trkpt>
      <trkpt lat="46.7477" lon="5.93418">
        <ele>577</ele>
        <time>2016-06-26T12:24:52Z</time>
      </trkpt>
      <trkpt lat="46.74754" lon="5.93393">
        <ele>574</ele>
        <time>2016-06-26T12:24:56Z</time>
      </trkpt>
      <trkpt lat="46.74741" lon="5.93368">
        <ele>574</ele>
        <time>2016-06-26T12:24:59Z</time>
      </trkpt>
      <trkpt lat="46.74726" lon="5.93344">
        <ele>574</ele>
        <time>2016-06-26T12:25:02Z</time>
      </trkpt>
      <trkpt lat="46.74711" lon="5.93317">
        <ele>569</ele>
        <time>2016-06-26T12:25:05Z</time>
      </trkpt>
      <trkpt lat="46.74698" lon="5.93285">
        <ele>569</ele>
        <time>2016-06-26T12:25:08Z</time>
      </trkpt>
      <trkpt lat="46.74681" lon="5.93263">
        <ele>568</ele>
        <time>2016-06-26T12:25:11Z</time>
      </trkpt>
      <trkpt lat="46.74665" lon="5.93239">
        <ele>567</ele>
        <time>2016-06-26T12:25:14Z</time>
      </trkpt>
      <trkpt lat="46.7465" lon="5.93208">
        <ele>566</ele>
        <time>2016-06-26T12:25:17Z</time>
      </trkpt>
      <trkpt lat="46.74636" lon="5.93177">
        <ele>565</ele>
        <time>2016-06-26T12:25:20Z</time>
      </trkpt>
      <trkpt lat="46.74624" lon="5.93142">
        <ele>562</ele>
        <time>2016-06-26T12:25:23Z</time>
      </trkpt>
      <trkpt lat="46.7461" lon="5.93112">
        <ele>561</ele>
        <time>2016-06-26T12:25:26Z</time>
      </trkpt>
      <trkpt lat="46.74594" lon="5.93083">
        <ele>562</ele>
        <time>2016-06-26T12:25:29Z</time>
      </trkpt>
      <trkpt lat="46.74576" lon="5.93058">
        <ele>561</ele>
        <time>2016-06-26T12:25:32Z</time>
      </trkpt>
      <trkpt lat="46.74558" lon="5.93035">
        <ele>561</ele>
        <time>2016-06-26T12:25:35Z</time>
      </trkpt>
      <trkpt lat="46.74538" lon="5.93015">
        <ele>561</ele>
        <time>2016-06-26T12:25:38Z</time>
      </trkpt>
      <trkpt lat="46.74522" lon="5.92991">
        <ele>558</ele>
        <time>2016-06-26T12:25:41Z</time>
      </trkpt>
      <trkpt lat="46.74504" lon="5.92973">
        <ele>558</ele>
        <time>2016-06-26T12:25:44Z</time>
      </trkpt>
      <trkpt lat="46.7449" lon="5.92953">
        <ele>559</ele>
        <time>2016-06-26T12:25:47Z</time>
      </trkpt>
      <trkpt lat="46.74477" lon="5.92931">
        <ele>559</ele>
        <time>2016-06-26T12:25:50Z</time>
      </trkpt>
      <trkpt lat="46.74463" lon="5.92909">
        <ele>557</ele>
        <time>2016-06-26T12:25:53Z</time>
      </trkpt>
      <trkpt lat="46.74451" lon="5.92887">
        <ele>556</ele>
        <time>2016-06-26T12:25:56Z</time>
      </trkpt>
      <trkpt lat="46.74438" lon="5.92859">
        <ele>556</ele>
        <time>2016-06-26T12:26:00Z</time>
      </trkpt>
      <trkpt lat="46.74425" lon="5.92834">
        <ele>556</ele>
        <time>2016-06-26T12:26:04Z</time>
      </trkpt>
      <trkpt lat="46.74411" lon="5.92806">
        <ele>555</ele>
        <time>2016-06-26T12:26:08Z</time>
      </trkpt>
      <trkpt lat="46.74402" lon="5.92783">
        <ele>554</ele>
        <time>2016-06-26T12:26:11Z</time>
      </trkpt>
      <trkpt lat="46.7439" lon="5.92757">
        <ele>554</ele>
        <time>2016-06-26T12:26:14Z</time>
      </trkpt>
      <trkpt lat="46.74374" lon="5.92726">
        <ele>553</ele>
        <time>2016-06-26T12:26:17Z</time>
      </trkpt>
      <trkpt lat="46.74363" lon="5.92703">
        <ele>553</ele>
        <time>2016-06-26T12:26:19Z</time>
      </trkpt>
      <trkpt lat="46.74352" lon="5.92679">
        <ele>553</ele>
        <time>2016-06-26T12:26:21Z</time>
      </trkpt>
      <trkpt lat="46.7434" lon="5.92656">
        <ele>552</ele>
        <time>2016-06-26T12:26:23Z</time>
      </trkpt>
      <trkpt lat="46.7433" lon="5.92632">
        <ele>553</ele>
        <time>2016-06-26T12:26:25Z</time>
      </trkpt>
      <trkpt lat="46.74314" lon="5.92602">
        <ele>553</ele>
        <time>2016-06-26T12:26:28Z</time>
      </trkpt>
      <trkpt lat="46.74299" lon="5.9257">
        <ele>552</ele>
        <time>2016-06-26T12:26:31Z</time>
      </trkpt>
      <trkpt lat="46.74284" lon="5.92538">
        <ele>552</ele>
        <time>2016-06-26T12:26:34Z</time>
      </trkpt>
      <trkpt lat="46.74268" lon="5.92509">
        <ele>552</ele>
        <time>2016-06-26T12:26:37Z</time>
      </trkpt>
      <trkpt lat="46.74251" lon="5.9248">
        <ele>551</ele>
        <time>2016-06-26T12:26:40Z</time>
      </trkpt>
      <trkpt lat="46.74234" lon="5.92455">
        <ele>550</ele>
        <time>2016-06-26T12:26:43Z</time>
      </trkpt>
      <trkpt lat="46.7422" lon="5.92439">
        <ele>549</ele>
        <time>2016-06-26T12:26:45Z</time>
      </trkpt>
      <trkpt lat="46.742" lon="5.92414">
        <ele>546</ele>
        <time>2016-06-26T12:26:48Z</time>
      </trkpt>
      <trkpt lat="46.74181" lon="5.92394">
        <ele>546</ele>
        <time>2016-06-26T12:26:51Z</time>
      </trkpt>
      <trkpt lat="46.74162" lon="5.92371">
        <ele>546</ele>
        <time>2016-06-26T12:26:54Z</time>
      </trkpt>
      <trkpt lat="46.7414" lon="5.92348">
        <ele>545</ele>
        <time>2016-06-26T12:26:57Z</time>
      </trkpt>
      <trkpt lat="46.74123" lon="5.92329">
        <ele>545</ele>
        <time>2016-06-26T12:27:00Z</time>
      </trkpt>
      <trkpt lat="46.74106" lon="5.92308">
        <ele>545</ele>
        <time>2016-06-26T12:27:03Z</time>
      </trkpt>
      <trkpt lat="46.74088" lon="5.92289">
        <ele>545</ele>
        <time>2016-06-26T12:27:06Z</time>
      </trkpt>
      <trkpt lat="46.74073" lon="5.92271">
        <ele>546</ele>
        <time>2016-06-26T12:27:09Z</time>
      </trkpt>
      <trkpt lat="46.74059" lon="5.92245">
        <ele>545</ele>
        <time>2016-06-26T12:27:13Z</time>
      </trkpt>
      <trkpt lat="46.74054" lon="5.92215">
        <ele>545</ele>
        <time>2016-06-26T12:27:17Z</time>
      </trkpt>
      <trkpt lat="46.74056" lon="5.92187">
        <ele>545</ele>
        <time>2016-06-26T12:27:21Z</time>
      </trkpt>
      <trkpt lat="46.74064" lon="5.92158">
        <ele>543</ele>
        <time>2016-06-26T12:27:25Z</time>
      </trkpt>
      <trkpt lat="46.74074" lon="5.92134">
        <ele>543</ele>
        <time>2016-06-26T12:27:29Z</time>
      </trkpt>
      <trkpt lat="46.74084" lon="5.92109">
        <ele>543</ele>
        <time>2016-06-26T12:27:33Z</time>
      </trkpt>
      <trkpt lat="46.74094" lon="5.92085">
        <ele>543</ele>
        <time>2016-06-26T12:27:37Z</time>
      </trkpt>
      <trkpt lat="46.74101" lon="5.9206">
        <ele>543</ele>
        <time>2016-06-26T12:27:41Z</time>
      </trkpt>
      <trkpt lat="46.74109" lon="5.92035">
        <ele>543</ele>
        <time>2016-06-26T12:27:45Z</time>
      </trkpt>
      <trkpt lat="46.74117" lon="5.92009">
        <ele>544</ele>
        <time>2016-06-26T12:27:49Z</time>
      </trkpt>
      <trkpt lat="46.74127" lon="5.91982">
        <ele>544</ele>
        <time>2016-06-26T12:27:54Z</time>
      </trkpt>
      <trkpt lat="46.74136" lon="5.91957">
        <ele>545</ele>
        <time>2016-06-26T12:27:58Z</time>
      </trkpt>
      <trkpt lat="46.74144" lon="5.9193">
        <ele>545</ele>
        <time>2016-06-26T12:28:02Z</time>
      </trkpt>
      <trkpt lat="46.74153" lon="5.91905">
        <ele>545</ele>
        <time>2016-06-26T12:28:06Z</time>
      </trkpt>
      <trkpt lat="46.74162" lon="5.9188">
        <ele>545</ele>
        <time>2016-06-26T12:28:10Z</time>
      </trkpt>
      <trkpt lat="46.74169" lon="5.9185">
        <ele>546</ele>
        <time>2016-06-26T12:28:14Z</time>
      </trkpt>
      <trkpt lat="46.74177" lon="5.91822">
        <ele>545</ele>
        <time>2016-06-26T12:28:18Z</time>
      </trkpt>
      <trkpt lat="46.74185" lon="5.91798">
        <ele>544</ele>
        <time>2016-06-26T12:28:22Z</time>
      </trkpt>
      <trkpt lat="46.74196" lon="5.91773">
        <ele>544</ele>
        <time>2016-06-26T12:28:26Z</time>
      </trkpt>
      <trkpt lat="46.74206" lon="5.91746">
        <ele>543</ele>
        <time>2016-06-26T12:28:31Z</time>
      </trkpt>
      <trkpt lat="46.74221" lon="5.91722">
        <ele>543</ele>
        <time>2016-06-26T12:28:36Z</time>
      </trkpt>
      <trkpt lat="46.74235" lon="5.91704">
        <ele>542</ele>
        <time>2016-06-26T12:28:40Z</time>
      </trkpt>
      <trkpt lat="46.74252" lon="5.91682">
        <ele>542</ele>
        <time>2016-06-26T12:28:44Z</time>
      </trkpt>
      <trkpt lat="46.74266" lon="5.91663">
        <ele>542</ele>
        <time>2016-06-26T12:28:48Z</time>
      </trkpt>
      <trkpt lat="46.7428" lon="5.91643">
        <ele>542</ele>
        <time>2016-06-26T12:28:52Z</time>
      </trkpt>
      <trkpt lat="46.74296" lon="5.91623">
        <ele>542</ele>
        <time>2016-06-26T12:28:56Z</time>
      </trkpt>
      <trkpt lat="46.7431" lon="5.91606">
        <ele>542</ele>
        <time>2016-06-26T12:29:00Z</time>
      </trkpt>
      <trkpt lat="46.74324" lon="5.91588">
        <ele>541</ele>
        <time>2016-06-26T12:29:04Z</time>
      </trkpt>
      <trkpt lat="46.7434" lon="5.91568">
        <ele>541</ele>
        <time>2016-06-26T12:29:09Z</time>
      </trkpt>
      <trkpt lat="46.74354" lon="5.91548">
        <ele>541</ele>
        <time>2016-06-26T12:29:14Z</time>
      </trkpt>
      <trkpt lat="46.74365" lon="5.91527">
        <ele>541</ele>
        <time>2016-06-26T12:29:20Z</time>
      </trkpt>
      <trkpt lat="46.74377" lon="5.91505">
        <ele>541</ele>
        <time>2016-06-26T12:29:25Z</time>
      </trkpt>
      <trkpt lat="46.74389" lon="5.91483">
        <ele>541</ele>
        <time>2016-06-26T12:29:30Z</time>
      </trkpt>
      <trkpt lat="46.74401" lon="5.91461">
        <ele>541</ele>
        <time>2016-06-26T12:29:35Z</time>
      </trkpt>
      <trkpt lat="46.74414" lon="5.91438">
        <ele>540</ele>
        <time>2016-06-26T12:29:40Z</time>
      </trkpt>
      <trkpt lat="46.74425" lon="5.91417">
        <ele>540</ele>
        <time>2016-06-26T12:29:44Z</time>
      </trkpt>
      <trkpt lat="46.74438" lon="5.91398">
        <ele>540</ele>
        <time>2016-06-26T12:29:48Z</time>
      </trkpt>
      <trkpt lat="46.74451" lon="5.91374">
        <ele>540</ele>
        <time>2016-06-26T12:29:53Z</time>
      </trkpt>
      <trkpt lat="46.74464" lon="5.91354">
        <ele>540</ele>
        <time>2016-06-26T12:29:58Z</time>
      </trkpt>
      <trkpt lat="46.74479" lon="5.91328">
        <ele>539</ele>
        <time>2016-06-26T12:30:02Z</time>
      </trkpt>
      <trkpt lat="46.74493" lon="5.91302">
        <ele>539</ele>
        <time>2016-06-26T12:30:06Z</time>
      </trkpt>
      <trkpt lat="46.74503" lon="5.91277">
        <ele>538</ele>
        <time>2016-06-26T12:30:09Z</time>
      </trkpt>
      <trkpt lat="46.74518" lon="5.91248">
        <ele>537</ele>
        <time>2016-06-26T12:30:13Z</time>
      </trkpt>
      <trkpt lat="46.74531" lon="5.91227">
        <ele>536</ele>
        <time>2016-06-26T12:30:16Z</time>
      </trkpt>
      <trkpt lat="46.74544" lon="5.91203">
        <ele>536</ele>
        <time>2016-06-26T12:30:19Z</time>
      </trkpt>
      <trkpt lat="46.74555" lon="5.91179">
        <ele>535</ele>
        <time>2016-06-26T12:30:22Z</time>
      </trkpt>
      <trkpt lat="46.74569" lon="5.91156">
        <ele>535</ele>
        <time>2016-06-26T12:30:25Z</time>
      </trkpt>
      <trkpt lat="46.74582" lon="5.91131">
        <ele>535</ele>
        <time>2016-06-26T12:30:28Z</time>
      </trkpt>
      <trkpt lat="46.74596" lon="5.91107">
        <ele>535</ele>
        <time>2016-06-26T12:30:31Z</time>
      </trkpt>
      <trkpt lat="46.74608" lon="5.91085">
        <ele>535</ele>
        <time>2016-06-26T12:30:34Z</time>
      </trkpt>
      <trkpt lat="46.7462" lon="5.91063">
        <ele>536</ele>
        <time>2016-06-26T12:30:37Z</time>
      </trkpt>
      <trkpt lat="46.74634" lon="5.91039">
        <ele>536</ele>
        <time>2016-06-26T12:30:41Z</time>
      </trkpt>
      <trkpt lat="46.74648" lon="5.91015">
        <ele>536</ele>
        <time>2016-06-26T12:30:45Z</time>
      </trkpt>
      <trkpt lat="46.74662" lon="5.90995">
        <ele>536</ele>
        <time>2016-06-26T12:30:49Z</time>
      </trkpt>
    </trkseg>
  </trk>
</gpx>